     2              OBSERVATION DATA    GPS                 RINEX VERSION / TYPE
teqc 1997Jul24 19970814                                     PGM / RUN BY / DATE
                                                            COMMENT
Original Marker Name: NIGU                                  COMMENT
Campaign Name: HPGN 1991                                    COMMENT
4-Character Station Name: NIGU                              COMMENT
6-Character Antenna Code: TRMSST                            COMMENT
Vertical Measurement Point: BPA                             COMMENT
Vertical Offset to Rinex Ref. Point: 0.0000                 COMMENT
Radial Measurement Point: RRP                               COMMENT
Radial Offset to Rinex Ref. Point: 0.0000                   COMMENT
Antenna Height from Field Measurement: 2.2200 m             COMMENT
Original XYZ: -2477022.4364 -4711977.4374 3501813.9245      COMMENT
New XYZ position is based on association with SCEC monument COMMENT
E1D0D8E5+0011. Position of that monument is believed to be  COMMENT
valid to within 1 m horizontally; vertical accuracy         COMMENT
should be no worse than 3-times this value.                 COMMENT
                                                            COMMENT
Revised Rinex header created by UCSD GPS archive for        COMMENT
GSAC on 12-Apr-1999 (1999:102) 03:00:15 GMT                 COMMENT
For assistance contact dagnew@ucsd.edu or hjohnson@ucsd.edu COMMENT
                                                            COMMENT
NIGUEL A 1884 1981                                          MARKER NAME
unknown CALIF DEPT TRANSPORTATION                           OBSERVER / AGENCY
622 TRIMBLE 4000 SST NP 4.30 / SP 4.20                      REC # / TYPE / VERS
123 TR 4000SST L1/L2 GEO                                    ANT # / TYPE
 -2477021.0000 -4711974.0000  3501809.0000                  APPROX POSITION XYZ
        2.2200        0.0000        0.0000                  ANTENNA: DELTA H/E/N
     1     1     0                                          WAVELENGTH FACT L1/2
     3    C1    L1    L2                                    # / TYPES OF OBSERV
     0                                                      INTERVAL
  1991     4    23    19    55   45.000000                  TIME OF FIRST OBS
  1991     4    24     1    58    0.000000                  TIME OF LAST OBS
     0                                                      # OF SATELLITES
                                                            END OF HEADER
 91  4 23 19 55 45.0000000  0  4G18G 2G11G19
  20516378.9774         -0.06858        -0.25373
  23614202.2974         -0.09056        -0.35771
  23562296.180          -0.42516        -0.00331
  20813597.0394         -0.05157        -0.48172
 91  4 23 19 56  0.0000000  0  4G18G 2G11G19
  20520561.8284      21984.51548     17130.56363
  23606421.688      -40896.292 6    -31867.36721
  23557577.0084     -24796.89246    -19321.77361
  20814017.0394       2225.88547      1734.02362
 91  4 23 19 56 15.0000000  0  4G18G 2G11G19
  20524761.9454      44058.69048     34331.18863
  23598643.3834     -81767.26546    -63714.71861
  23552873.227      -49518.575 6    -38585.28021
  20814445.6484       4468.56547      3481.56762
 91  4 23 19 56 30.0000000  0  4G18G 2G11G19
  20528982.3054      66232.46548     51609.41963
  23590872.3054    -122602.88546    -95534.53561
  23548184.3134     -74155.07546    -57782.40661
  20814879.2274       6738.18647      5250.11462
 91  4 23 19 56 45.0000000  0  4G18G 2G11G19
  20533220.9064      88507.63748     68966.66363
  23583107.6724    -163401.17146   -127325.24361
  23543512.7274     -98704.14346    -76911.40461
  20815315.0314       9036.51647      7041.01962
 91  4 23 19 57  0.0000000  0  4G18G 2G11G19
  20537478.8134     110888.53748     86406.29263
  23575352.7734    -204157.61146   -159083.35361
  23538858.555     -123161.070 6    -95968.61921
  20815759.4774      11367.85447      8857.65262
 91  4 23 19 57 15.0000000  0  4G18G 2G11G19
  20541760.4304     133379.42248    103931.62363
  23567607.2344    -244867.41946   -190805.13961
  23534222.766     -147520.993 6   -114950.22921
  20816212.0234      13736.74447     10703.54562
 91  4 23 19 57 30.0000000  0  4G18G 2G11G19
  20546061.6024     155981.97848    121543.96563
  23559868.766     -285528.755 6   -222489.12921
  23529606.805     -171781.863 6   -133854.66721
  20816666.6174      16144.72647     12579.90062
 91  4 23 19 57 45.0000000  0  4G18G 2G11G19
  20550384.7114     178698.71748    139245.28563
  23552140.047     -326139.165 6   -254133.48021
  23525006.8364    -195941.09846   -152679.91161
  20817135.1484      18594.14547     14488.54162
 91  4 23 19 58  0.0000000  0  4G18G 2G11G19
  20554729.2894     201530.83648    157036.51163
  23544423.2344    -366697.12446   -285736.93661
  23520430.867     -219996.937 6   -171424.58721
  20817607.8754      21086.39747     16430.56362
 91  4 23 19 58 15.0000000  0  4G18G 2G11G19
  20559094.0314     224474.15248    174914.38563
  23536712.875     -407206.555 6   -317302.57421
  23515873.977     -243953.074 6   -190091.55921
  20818091.7894      23617.15347     18402.58662
 91  4 23 19 58 30.0000000  0  4G18G 2G11G19
  20563483.5704     247531.99548    192881.49163
  23529012.828     -447664.005 6   -348827.72821
  23511332.5004    -267805.80546   -208677.97561
  20818579.8134      26189.99747     20407.40662
 91  4 23 19 58 45.0000000  0  4G18G 2G11G19
  20567891.8444     270703.11248    210936.87062
  23521325.7664    -488070.71846   -380313.32761
  23506813.1884    -291556.22946   -227184.68161
  20819078.7894      28803.55747     22443.94862
 91  4 23 19 59  0.0000000  0  4G18G 2G11G19
  20572323.3054     293990.20348    229082.61263
  23513646.398     -528423.765 6   -411757.12121
  23502312.0634    -315201.22646   -245609.21461
  20819583.2734      31460.38147     24514.20962
 91  4 23 19 59 15.0000000  0  4G18G 2G11G19
  20576778.813      317395.101 8    247320.15423
  23505979.0474    -568720.97446   -443157.40661
  23497833.906     -338738.378 6   -263949.74021
  20820098.8984      34162.48947     26619.75062
 91  4 23 19 59 30.0000000  0  4G18G 2G11G19
  20581254.094      340916.463 8    265648.44423
  23498320.883     -608963.828 6   -474515.32421
  23493374.641     -362169.097 6   -282207.32921
  20820622.4144      36908.16247     28759.23762
 91  4 23 19 59 45.0000000  0  4G18G 2G11G19
  20585752.273      364556.232 8    284069.00522
  23490673.3364    -649149.98546   -505829.08461
  23488937.3134    -385490.75046   -300379.92561
  20821150.3834      39699.56447     30934.36062
 91  4 23 20  0  0.0000000  0  4G18G 2G11G19
  20590273.031      388312.376 8    302580.23822
  23483036.8834    -689281.04346   -537099.91261
  23484520.2504    -408704.94546   -318468.79361
  20821692.1174      42534.74247     33143.59062
 91  4 23 20  0 15.0000000  0  4G18G 2G11G19
  20594816.133      412185.132 8    321182.33823
  23475410.0554    -729356.57446   -568327.44561
  23480123.820     -431810.998 6   -336473.39321
  20822239.4534      45414.07947     35387.23062
 91  4 23 20  0 30.0000000  0  4G18G 2G11G19
  20599381.383      436176.092 8    339876.54623
  23467795.398     -769375.050 6   -599510.56121
  23475745.9924    -454807.10046   -354392.31361
  20822796.5394      48339.18047     37666.53262
 91  4 23 20  0 45.0000000  0  4G18G 2G11G19
  20603967.414      460278.697 8    358657.75023
  23460189.242     -809342.981 6   -630654.26521
  23471391.258     -477699.327 6   -372230.30021
  20823361.7734      51303.32047     39976.25762
 91  4 23 20  1  0.0000000  0  4G18G 2G11G19
  20608575.883      484495.970 8    377528.30423
  23452595.0164    -849257.00546   -661755.97061
  23467054.125     -500484.437 6   -389984.81821
  20823932.8134      54309.62747     42318.83562
 91  4 23 20  1 15.0000000  0  4G18G 2G11G19
  20613205.953      508830.721 8    396490.39923
  23445010.813     -889114.063 6   -692813.28921
  23462739.680     -523159.126 6   -407653.29121
  20824511.3984      57361.09347     44696.60562
 91  4 23 20  1 30.0000000  0  4G18G 2G11G19
  20617860.039      533282.993 8    415544.07223
  23437434.4534    -928913.77246   -723825.92161
  23458444.938     -545722.903 6   -425235.34721
  20825100.9694      60457.90347     47109.70062
 91  4 23 20  1 45.0000000  0  4G18G 2G11G19
  20622533.703      557845.285 8    434683.47222
  23429869.1174    -968663.73946   -754799.79361
  23454172.047     -568183.118 6   -442736.70121
  20825697.9144      63592.35747     49552.13362
 91  4 23 20  2  0.0000000  0  4G18G 2G11G19
  20627230.539      582522.723 8    453912.59823
  23422316.781    -1008358.560 6   -785730.69421
  23449919.625     -590534.191 6   -460153.01121
  20826304.1484      66769.55647     52027.87262
 91  4 23 20  2 15.0000000  0  4G18G 2G11G19
  20631948.211      607314.847 8    473231.08723
  23414773.1024   -1047998.39146   -816618.74861
  23445685.844     -612776.054 6   -477484.21921
  20826914.6484      69989.36647     54536.81562
 91  4 23 20  2 30.0000000  0  4G18G 2G11G19
  20636688.414      632221.758 8    492639.02723
  23407240.1484   -1087582.91146   -847463.69461
  23441475.086     -634908.252 6   -494729.97621
  20827538.2584      73251.92447     57079.07062
 91  4 23 20  2 45.0000000  0  4G18G 2G11G19
  20641449.555      657243.325 8    512136.30622
  23399718.688    -1127112.492 6   -878265.84121
  23437282.234     -656930.840 6   -511890.33021
  20828165.1724      76556.68847     59654.21662
 91  4 23 20  3  0.0000000  0  4G18G 2G11G19
  20646232.0784     682378.93248    531722.45263
  23392208.117    -1166587.254 6   -909025.25221
  23433115.156     -678843.724 6   -528965.19121
  20828800.5004      79903.15347     62261.84562
 91  4 23 20  3 15.0000000  0  4G18G 2G11G19
  20651036.555      707628.990 8    551397.77222
  23384703.852    -1206006.372 6   -939741.34021
  23428963.6564    -700646.19046   -545954.03161
  20829447.3984      83291.98747     64902.49862
 91  4 23 20  3 30.0000000  0  4G18G 2G11G19
  20655863.820      732993.693 8    571162.42923
  23377213.1564   -1245369.48846   -970413.74861
  23424837.875     -722337.677 6   -562856.38221
  20830101.3204      86723.27447     67576.22462
 91  4 23 20  3 45.0000000  0  4G18G 2G11G19
  20660712.648      758473.498 8    591016.77623
  23369736.8754   -1284675.92446  -1001042.01161
  23420731.219     -743917.159 6   -579671.44921
  20830759.5234      90197.71947     70283.57962
 91  4 23 20  4  0.0000000  0  4G18G 2G11G19
  20665583.180      784066.003 8    610958.93923
  23362265.6334   -1323928.31646  -1031628.17261
  23416643.0394    -765386.94846   -596401.05361
  20831432.7114      93712.62247     73022.46262
 91  4 23 20  4 15.0000000  0  4G18G 2G11G19
  20670474.125      809771.423 8    630989.08823
  23354807.344    -1363126.314 6  -1062171.91621
  23412579.4614    -786746.53646   -613044.78761
  20832106.7894      97268.22747     75793.05962
 91  4 23 20  4 30.0000000  0  4G18G 2G11G19
  20675387.164      835591.381 8    651108.49223
  23347357.1884   -1402267.86346  -1092671.70261
  23408536.805     -807993.775 6   -629600.96221
  20832787.6724     100866.42047     78596.84662
 91  4 23 20  4 45.0000000  0  4G18G 2G11G19
  20680323.359      861524.698 8    671316.22623
  23339918.3054   -1441353.83146  -1123128.17261
  23404513.9384    -829129.51446   -646070.26061
  20833486.1174     104505.94247     81432.83462
 91  4 23 20  5  0.0000000  0  4G18G 2G11G19
  20685280.383      887572.767 8    691613.37923
  23332492.8204   -1480382.63246  -1153540.07161
  23400513.883     -850151.790 6   -662451.14821
  20834184.7734     108188.40247     84302.27862
 91  4 23 20  5 15.0000000  0  4G18G 2G11G19
  20690257.961      913737.052 8    712001.08823
  23325079.0944   -1519352.64546  -1183906.18861
  23396534.242     -871058.940 6   -678742.32521
  20834894.3984     111915.35747     87206.39962
 91  4 23 20  5 30.0000000  0  4G18G 2G11G19
  20695259.406      940016.877 8    732478.82723
  23317672.492    -1558264.487 6  -1214226.97721
  23392576.7424    -891851.18346   -694943.94961
  20835611.0554     115686.09447     90144.63062
 91  4 23 20  5 45.0000000  0  4G18G 2G11G19
  20700282.234      966413.214 8    753047.35823
  23310278.7034   -1597116.69446  -1244501.27561
  23388645.086     -912527.051 6   -711054.90421
  20836337.6484     119501.88647     93117.97362
 91  4 23 20  6  0.0000000  0  4G18G 2G11G19
  20705327.273      992924.831 8    773705.71723
  23302895.6254   -1635910.24846  -1274729.88961
  23384733.7034    -933087.29646   -727075.75761
  20837071.4924     123361.49347     96125.45662
 91  4 23 20  6 15.0000000  0  4G18G 2G11G19
  20710394.570     1019552.248 8    794454.30323
  23295524.9454   -1674644.71246  -1304912.43661
  23380841.5784    -953531.31746   -743006.04461
  20837814.9454     127265.12147     99167.24462
 91  4 23 20  6 30.0000000  0  4G18G 2G11G19
  20715481.852     1046290.011 8    815288.88223
  23288165.602    -1713325.293 6  -1335053.01021
  23376970.9304    -973864.28946   -758849.79961
  20838563.6174     131207.38447    102239.13762
 91  4 23 20  6 45.0000000  0  4G18G 2G11G19
  20720592.734     1073141.473 8    836212.04823
  23280815.164    -1751948.059 6  -1365148.53621
  23373124.6884    -994081.88146   -774603.64961
  20839321.5554     135192.24847    105344.22262
 91  4 23 20  7  0.0000000  0  4G18G 2G11G19
  20725724.391     1100109.454 8    857226.01723
  23273476.7114   -1790510.49546  -1395197.04261
  23369299.8444   -1014181.37146   -790265.47361
  20840087.6804     139222.09747    108484.36862
 91  4 23 20  7 15.0000000  0  4G18G 2G11G19
  20730877.727     1127192.318 8    878329.49923
  23266150.781    -1829013.860 6  -1425199.52921
  23365496.828    -1034164.057 6   -805836.28221
  20840864.9774     143295.33047    111658.31662
 91  4 23 20  7 30.0000000  0  4G18G 2G11G19
  20736053.195     1154388.749 8    899521.47723
  23258833.859    -1867459.237 6  -1455156.82421
  23361715.0554   -1054030.86946   -821316.80161
  20841646.7194     147410.81447    114865.18862
 91  4 23 20  7 45.0000000  0  4G18G 2G11G19
  20741250.977     1181701.668 8    920804.22623
  23251529.7664   -1905843.38946  -1485066.40261
  23357957.797    -1073778.245 6   -836704.25621
  20842438.8594     151571.73347    118107.46462
 91  4 23 20  8  0.0000000  0  4G18G 2G11G19
  20746470.289     1209132.766 8    942179.06123
  23244235.445    -1944164.689 6  -1514927.02621
  23354224.063    -1093404.290 6   -851997.14621
  20843238.5314     155779.73647    121386.42662
 91  4 23 20  8 15.0000000  0  4G18G 2G11G19
  20751711.852     1236680.285 8    963644.61223
  23236955.234    -1982424.615 6  -1544739.81121
  23350512.516    -1112910.421 6   -867196.62021
  20844050.3134     160033.13747    124700.75962
 91  4 23 20  8 30.0000000  0  4G18G 2G11G19
  20756975.867     1264341.436 8    985198.71323
  23229686.578    -2020625.479 6  -1574506.58021
  23346820.5474   -1132298.97446   -882304.46161
  20844866.5784     164329.22647    128048.36462
 91  4 23 20  8 45.0000000  0  4G18G 2G11G19
  20762260.742     1292117.447 8   1006842.30923
  23222425.563    -2058765.969 6  -1604226.29521
  23343154.7974   -1151568.34346   -897319.43061
  20845692.8914     168669.32847    131430.26262
 91  4 23 20  9  0.0000000  0  4G18G 2G11G19
  20767569.2424    1320010.46448   1028577.08763
  23215183.203    -2096843.763 6  -1633897.17221
  23339509.5004   -1170715.95546   -912239.53461
  20846528.7034     173055.50647    134848.06262
 91  4 23 20  9 15.0000000  0  4G18G 2G11G19
  20772899.023     1348017.488 8   1050400.68723
  23207948.539    -2134861.912 6  -1663521.56121
  23335889.3204   -1189744.56146   -927066.91661
  20847371.9144     177484.75447    138299.42162
 91  4 23 20  9 30.0000000  0  4G18G 2G11G19
  20778249.594     1376135.766 8   1072310.98923
  23200724.2114   -2172822.61646  -1693101.20461
  23332290.3524   -1208656.32646   -941803.24161
  20848220.0394     181954.57047    141782.39662
 91  4 23 20  9 45.0000000  0  4G18G 2G11G19
  20783622.938     1404370.567 8   1094312.07923
  23193510.352    -2210720.443 6  -1722631.84321
  23328715.188    -1227445.734 6   -956444.23721
  20849079.5004     186470.06847    145300.96362
 91  4 23 20 10  0.0000000  0  4G18G 2G11G19
  20789017.250     1432717.681 8   1116400.69123
  23186308.6954   -2248559.62246  -1752116.78961
  23325161.281    -1246116.751 6   -970992.96921
  20849944.9844     191027.28047    148852.03462
 91  4 23 20 10 15.0000000  0  4G18G 2G11G19
  20794434.648     1461178.009 8   1138577.52323
  23179120.6414   -2286338.95046  -1781555.09361
  23321632.5084   -1264668.13446   -985448.49061
  20850822.5394     195627.23447    152436.41962
 91  4 23 20 10 30.0000000  0  4G18G 2G11G19
  20799871.258     1489752.170 8   1160843.04523
  23171945.5474   -2324057.56946  -1810946.09361
  23318124.578    -1283098.796 6   -999809.93421
  20851704.3054     200270.65947    156054.66662
 91  4 23 20 10 45.0000000  0  4G18G 2G11G19
  20805328.820     1518440.499 8   1183197.53623
  23164779.0864   -2361714.70246  -1840289.19561
  23314639.102    -1301407.973 6  -1014076.71921
  20852599.4304     204958.03047    159707.16162
 91  4 23 20 11  0.0000000  0  4G18G 2G11G19
  20810809.141     1547240.456 8   1205639.01923
  23157621.336    -2399312.768 6  -1869586.25721
  23311176.711    -1319597.716 6  -1028250.43221
  20853497.5004     209686.82947    163391.94062
 91  4 23 20 11 15.0000000  0  4G18G 2G11G19
  20816311.094     1576151.676 8   1228167.18423
  23150479.3444   -2436851.97546  -1898837.45461
  23307740.109    -1337668.068 6  -1042331.11721
  20854405.0554     214456.60647    167108.63962
 91  4 23 20 11 30.0000000  0  4G18G 2G11G19
  20821834.188     1605173.478 8   1250781.52123
  23143348.375    -2474333.026 6  -1928043.35721
  23304323.156    -1355619.396 6  -1056319.05421
  20855319.8444     219266.52547    170856.62362
 91  4 23 20 11 45.0000000  0  4G18G 2G11G19
  20827378.461     1634305.604 8   1273481.82723
  23136226.8984   -2511755.69246  -1957203.74461
  23300929.3054   -1373451.38446  -1070214.01461
  20856245.6414     224116.84447    174636.09162
 91  4 23 20 12  0.0000000  0  4G18G 2G11G19
  20832944.180     1663548.166 8   1296268.18423
  23129115.8984   -2549119.89646  -1986318.58561
  23297560.547    -1391163.677 6  -1084015.69821
  20857176.5394     229007.62347    178447.08462
 91  4 23 20 12 15.0000000  0  4G18G 2G11G19
  20838528.953     1692899.139 8   1319139.02023
  23122015.6254   -2586427.34946  -2015389.21761
  23294211.883    -1408758.090 6  -1097725.51921
  20858114.1174     233936.89747    182288.08162
 91  4 23 20 12 30.0000000  0  4G18G 2G11G19
  20844134.508     1722358.793 8   1342094.53923
  23114927.6954   -2623677.35846  -2044415.06361
  23290884.719    -1426233.754 6  -1111342.81321
  20859058.1954     238905.24447    186159.51962
 91  4 23 20 12 45.0000000  0  4G18G 2G11G19
  20849761.266     1751932.011 8   1365138.54923
  23107850.844    -2660864.761 6  -2073392.15521
  23287585.6484   -1443585.39946  -1124863.48361
  20860013.8754     243917.50147    190065.17262
 91  4 23 20 13  0.0000000  0  4G18G 2G11G19
  20855410.578     1781617.779 8   1388270.25823
  23100786.2734   -2697990.51446  -2102321.18561
  23284304.8674   -1460813.70346  -1138288.03761
  20860977.2424     248972.83947    194004.39262
 91  4 23 20 13 15.0000000  0  4G18G 2G11G19
  20861081.156     1811417.439 8   1411490.71423
  23093734.055    -2735053.210 6  -2131201.10221
  23281051.2584   -1477916.93146  -1151615.12661
  20861944.9694     254072.63847    197978.26062
 91  4 23 20 13 30.0000000  0  4G18G 2G11G19
  20866773.453     1841327.962 8   1434797.56123
  23086693.109    -2772055.751 6  -2160034.14221
  23277819.2194   -1494897.93346  -1164846.97461
  20862922.7034     259213.80047    201984.35762
 91  4 23 20 13 45.0000000  0  4G18G 2G11G19
  20872487.188     1871349.866 8   1458191.19723
  23079660.922    -2808997.263 6  -2188819.61921
  23274611.5164   -1511755.69246  -1177982.79261
  20863912.0704     264396.94947    206023.16962
 91  4 23 20 14  0.0000000  0  4G18G 2G11G19
  20878222.0634    1901484.93648   1481673.00763
  23072643.6644   -2845875.54046  -2217555.82661
  23271426.1724   -1528488.04046  -1191020.88761
  20864904.3364     269624.17947    210096.32962
 91  4 23 20 14 15.0000000  0  4G18G 2G11G19
  20883978.8524    1931732.61148   1505242.56763
  23065638.0314   -2882690.78146  -2246242.90561
  23268268.5474   -1545095.05246  -1203961.31561
  20865907.6484     274895.01847    214203.48062
 91  4 23 20 14 30.0000000  0  4G18G 2G11G19
  20889756.2974    1962096.01648   1528902.30463
  23058644.719    -2919439.845 6  -2274878.42521
  23265132.0004   -1561573.39346  -1216801.48361
  20866921.3754     280212.42247    218346.90762
 91  4 23 20 14 45.0000000  0  4G18G 2G11G19
  20895555.7584    1992571.14048   1552649.09963
  23051662.633    -2956126.720 6  -2303465.48721
  23262019.000    -1577926.714 6  -1229544.24821
  20867939.3594     285572.69747    222523.74562
 91  4 23 20 15  0.0000000  0  5G18G 2G11G16G19
  20901377.3834    2023161.00348   1576485.29363
  23044695.6484   -2992748.33046  -2332001.68761
  23258932.6334   -1594151.55646  -1242186.88461
  24242634.1024         -0.16655
  20868969.2584     290978.94846    226736.40362
 91  4 23 20 15 15.0000000  0  5G18G 2G11G16G19
  20907219.0944    2053868.16448   1600412.89763
  23037740.180    -3029301.487 6  -2360484.56021
  23255868.422    -1610244.875 6  -1254727.02921
  24238890.4454     -19703.57145
  20870006.4844     296434.02347    230987.11362
 91  4 23 20 15 30.0000000  0  5G18G 2G11G16G19
  20913085.5084    2084691.26048   1624430.83263
  23030796.0864   -3065787.42946  -2388915.04461
  23252831.742    -1626207.849 6  -1267165.61221
  24235159.2974     -39280.15345
  20871053.0944     301936.33947    235274.63162
 91  4 23 20 15 45.0000000  0  5G18G 2G11G16G19
  20918971.4304    2115629.30348   1648538.33663
  23023865.617    -3102207.047 6  -2417293.85521
  23249819.422    -1642041.013 6  -1279503.05421
  24231460.453      -58730.554 5
  20872109.5314     307485.07847    239598.32062
 91  4 23 20 16  0.0000000  0  5G18G 2G11G16G19
  20924881.4614    2146679.15948   1672732.96463
  23016946.3524   -3138563.16146  -2445623.18061
  23246830.3204   -1657747.03546  -1291741.41861
  24227785.344      -78057.643 5
  20873173.6094     313077.43447    243955.99462
 91  4 23 20 16 15.0000000  0  5G18G 2G11G16G19
  20930809.7424    2177841.21848   1697015.02963
  23010040.336    -3174855.247 6  -2473902.62121
  23243866.1644   -1673325.31446  -1303880.24361
  24224128.2194     -97260.65845        -0.08271
  20874245.4924     318713.83347    248347.99762
 91  4 23 20 16 30.0000000  0  5G18G 2G11G16G19
  20936763.3914    2209116.33148   1721385.18263
  23003147.688    -3211082.165 6  -2502131.27921
  23240926.4534   -1688774.53246  -1315918.50061
  24220498.133     -116338.631 5    -14866.03221
  20875329.6884     324395.12846    252774.97862
 91  4 23 20 16 45.0000000  0  5G18G 2G11G16G19
  20942735.0784    2240504.63148   1745843.54663
  22996266.2664   -3247243.45846  -2530308.78661
  23238009.9224   -1704094.06846  -1327855.70961
  24216891.977     -135290.932 5    -29634.06421
  20876417.1724     330121.61247    257237.17062
 91  4 23 20 17  0.0000000  0  5G18G 2G11G16G19
  20948730.2114    2272004.64348   1770388.94863
  22989396.727    -3283340.503 6  -2558436.24121
  23235119.2814   -1719285.17646  -1339692.85161
  24213309.383     -154119.310 5    -44305.52721
  20877511.9304     335891.77047    261733.39462
 91  4 23 20 17 15.0000000  0  5G18G 2G11G16G19
  20954745.1644    2303615.80048   1795020.95363
  22982539.680    -3319373.582 6  -2586513.85821
  23232254.344    -1734348.051 6  -1351430.07821
  24209746.859     -172823.857 5    -58880.50021
  20878619.6414     341705.19647    266263.33862
 91  4 23 20 17 30.0000000  0  5G18G 2G11G16G19
  20960782.1564    2335340.04648   1819741.08463
  22975696.9844   -3355340.55746  -2614539.94461
  23229410.9144   -1749280.23546  -1363065.44261
  24206216.0314    -191402.07445    -73357.03261
  20879733.3204     347564.22547    270828.81862
 91  4 23 20 17 45.0000000  0  5G18G 2G11G16G19
  20966841.5944    2367178.01648   1844549.83163
  22968864.414    -3391240.537 6  -2642513.84821
  23226595.0164   -1764080.82946  -1374598.28661
  24202702.4304    -209853.35745    -87734.65861
  20880861.0234     353469.33747    275430.20762
 91  4 23 20 18  0.0000000  0  5G18G 2G11G16G19
  20972920.3364    2399129.65248   1869447.15063
  22962044.8364   -3427073.27146  -2670435.33661
  23223803.906    -1778749.312 6  -1386028.18821
  24199219.5634    -228177.26445   -102013.04061
  20881990.8054     359420.88147    280067.77162
 91  4 23 20 18 15.0000000  0  5G18G 2G11G16G19
  20979023.2504    2431194.40948   1894432.61463
  22955239.859    -3462839.414 6  -2698304.94221
  23221036.852    -1793286.305 6  -1397355.63821
  24195751.531     -246374.603 5   -116192.78921
  20883134.7114     365418.09647    284740.92162
 91  4 23 20 18 30.0000000  0  5G18G 2G11G16G19
  20985145.2814    2463372.83447   1919506.65063
  22948447.0004   -3498537.79346  -2726121.74861
  23218296.375    -1807690.463 6  -1408579.56821
  24192313.4304    -264444.11945   -130272.92061
  20884281.1334     371461.92047    289450.38762
 91  4 23 20 18 45.0000000  0  5G18G 2G11G16G19
  20991291.3594    2495664.81647   1944669.17463
  22941664.094    -3534168.274 6  -2753885.65221
  23215581.367    -1821961.654 6  -1419699.90021
  24188904.0314    -282385.66245   -144253.33161
  20885443.7584     377552.36347    294196.18562
 91  4 23 20 19  0.0000000  0  5G18G 2G11G16G19
  20997457.0554    2528069.41047   1969919.44763
  22934895.336    -3569731.735 6  -2781597.32121
  23212889.633    -1836100.785 6  -1430717.32621
  24185516.516     -300200.125 5   -158134.73921
  20886608.3674     383688.29347    298977.41962
 91  4 23 20 19 15.0000000  0  5G18G 2G11G16G19
  21003645.9614    2560587.68448   1995258.30063
  22928142.070    -3605227.009 6  -2809255.86721
  23210224.469    -1850106.278 6  -1441630.61421
  24182145.117     -317886.030 5   -171915.97421
  20887788.1334     389870.99047    303795.09762
 91  4 23 20 19 30.0000000  0  5G18G 2G11G16G19
  21009855.6334    2593218.82048   2020685.09863
  22921401.828    -3640654.576 6  -2836861.64721
  23207584.633    -1863978.394 6  -1452439.97721
  24178804.047     -335443.980 5   -185597.46921
  20888969.6884     396100.07947    308648.92762
 91  4 23 20 19 45.0000000  0  5G18G 2G11G16G19
  21016086.7344    2625963.36548   2046200.26463
  22914672.875    -3676013.726 6  -2864414.11621
  23204969.578    -1877716.240 6  -1463144.73321
  24175485.2504    -352873.27445   -199178.75361
  20890168.1484     402375.92647    313539.19362
 91  4 23 20 20  0.0000000  0  5G18G 2G11G16G19
  21022338.2274    2658817.84548   2071801.09563
  22907955.359    -3711307.761 6  -2891915.85121
  23202381.430    -1891323.043 6  -1473747.35321
  24172191.109     -370177.136 5   -212662.28221
  20891368.4224     408695.08147    318463.20562
 91  4 23 20 20 15.0000000  0  5G18G 2G11G16G19
  21028612.1644    2691785.93448   2097490.45563
  22901252.945    -3746532.432 6  -2919363.53821
  23199817.6724   -1904794.51546  -1484244.53761
  24168928.4384    -387351.37045   -226044.80061
  20892582.4064     415061.59147    323424.11862
 91  4 23 20 20 30.0000000  0  5G18G 2G11G16G19
  21034906.8054    2724867.89448   2123268.54663
  22894563.4534   -3781687.66746  -2946757.10661
  23197280.1334   -1918130.30546  -1494635.99661
  24165682.6644    -404395.71445   -239326.10061
  20893800.0234     421475.68347    328422.10562
 91  4 23 20 20 45.0000000  0  5G18G 2G11G16G19
  21041223.0864    2758060.12648   2149132.56163
  22887886.805    -3816776.509 6  -2974098.94921
  23194767.086    -1931333.360 6  -1504924.01421
  24162464.711     -421313.210 5   -252508.57021
  20895031.8914     427934.16747    333454.68762
 91  4 23 20 21  0.0000000  0  5G18G 2G11G16G19
  21047562.2664    2791363.65448   2175083.30063
  22881223.039    -3851797.808 6  -3001388.16721
  23192279.719    -1944402.523 6  -1515107.70321
  24159267.8444    -438102.76745   -265591.33061
  20896266.0784     434437.95147    338522.57262
 91  4 23 20 21 15.0000000  0  5G18G 2G11G16G19
  21053919.7504    2824779.40148   2201121.48263
  22874571.070    -3886750.532 6  -3028623.94021
  23189817.5314   -1957336.53146  -1525186.07861
  24156097.9924    -454763.40845   -278573.66761
  20897514.7274     440988.15647    343626.62362
 91  4 23 20 21 30.0000000  0  5G18G 2G11G16G19
  21060300.3984    2858306.02948   2227246.06463
  22867931.609    -3921635.695 6  -3055807.07821
  23187384.078    -1970136.208 6  -1535159.77221
  24152953.1884    -471296.10345   -291456.28961
  20898769.5704     447583.69847    348765.99862
 91  4 23 20 21 45.0000000  0  5G18G 2G11G16G19
  21066700.8284    2891946.41948   2253459.29463
  22861307.016    -3956450.051 6  -3082935.03521
  23184974.8204   -1982798.26046  -1545026.23861
  24149828.797     -487697.323 5   -304236.46321
  20900034.9144     454227.64647    353943.09462
 91  4 23 20 22  0.0000000  0  5G18G 2G11G16G19
  21073124.6484    2925699.42448   2279760.27663
  22854696.0944   -3991194.51846  -3110008.53261
  23182589.289    -1995323.563 6  -1554786.14221
  24146733.7114    -503968.48145   -316915.28561
  20901303.7274     460918.88447    359157.04262
 91  4 23 20 22 15.0000000  0  5G18G 2G11G16G19
  21079570.7664    2959565.23848   2306149.15663
  22848096.328    -4025868.975 6  -3137027.47721
  23180231.4924   -2007711.82646  -1564439.26161
  24143662.750     -520109.128 5   -329492.43121
  20902590.2034     467657.51547    364407.91562
 91  4 23 20 22 30.0000000  0  5G18G 2G11G16G19
  21086036.8284    2993546.13148   2332627.71763
  22841511.438    -4060470.692 6  -3163989.74121
  23177901.6724   -2019960.15246  -1573983.34561
  24140616.813     -536116.618 5   -341965.80721
  20903880.5784     474446.09047    369697.70462
 91  4 23 20 22 45.0000000  0  5G18G 2G11G16G19
  21092523.6334    3027638.68448   2359193.27763
  22834940.2504   -4095002.62746  -3190897.63861
  23175597.914    -2032071.389 6  -1583420.60121
  24137596.4224    -551993.85745   -354337.68261
  20905184.0164     481281.56447    375024.04162
 91  4 23 20 23  0.0000000  0  5G18G 2G11G16G19
  21099032.5164    3061844.79948   2385847.33363
  22828383.695    -4129462.997 6  -3217749.77221
  23173318.0554   -2044043.60446  -1592749.52461
  24134596.8754    -567738.88845   -366606.55261
  20906491.5084     488165.84347    380388.40762
 91  4 23 20 23 15.0000000  0  5G18G 2G11G16G19
  21105563.5314    3096161.62248   2412587.65163
  22821839.305    -4163854.506 6  -3244548.24221
  23171066.2034   -2055879.18546  -1601971.99461
  24131628.766     -583354.471 5   -378774.53721
  20907812.7274     495096.17447    385788.65262
 91  4 23 20 23 30.0000000  0  5G18G 2G11G16G19
  21112114.9844    3130591.67548   2439416.19963
  22815307.5394   -4198174.13846  -3271290.71561
  23168840.398    -2067575.070 6  -1611085.61421
  24128678.5704    -598837.56445   -390839.32761
  20909137.4534     502075.42847    391227.02262
 91  4 23 20 23 45.0000000  0  5G18G 2G11G16G19
  21118688.3284    3165132.41548   2466331.00063
  22808789.070    -4232424.152 6  -3297978.93121
  23166641.0554   -2079133.56646  -1620092.17261
  24125764.391     -614190.421 5   -402802.57121
  20910476.2504     509101.15847    396701.60562
 91  4 23 20 24  0.0000000  0  5G18G 2G11G16G19
  21125280.2584    3199780.26348   2493329.26063
  22802282.703    -4266608.146 6  -3324615.70421
  23164466.6414   -2090557.92046  -1628994.20361
  24122862.9454    -629416.66345   -414667.17761
  20911817.945      516169.905 7    402209.70322
 91  4 23 20 24 15.0000000  0  5G18G 2G11G16G19
  21131896.3134    3234539.29848   2520414.15863
  22795792.2194   -4300721.75946  -3351197.63961
  23162320.1884   -2101843.68646  -1637788.24261
  24119992.2584    -644512.01045   -426429.80861
  20913176.109      523285.794 7    407754.53922
 91  4 23 20 24 30.0000000  0  5G18G 2G11G16G19
  21138531.1484    3269407.90948   2547584.44063
  22789314.930    -4334765.993 6  -3377725.50621
  23160198.6484   -2112991.94346  -1646475.13661
  24117143.086     -659477.561 5   -438091.30321
  20914537.9614     530447.49147    413335.07562
 91  4 23 20 24 45.0000000  0  5G18G 2G11G16G19
  21145187.5784    3304385.80448   2574839.87663
  22782850.203    -4368741.506 6  -3404199.82721
  23158101.711    -2124003.018 6  -1655055.12821
  24114317.2274    -674313.52845   -449651.79461
  20915909.641      537654.751 7    418951.10222
 91  4 23 20 25  0.0000000  0  5G18G 2G11G16G19
  21151865.4534    3339478.18548   2602184.52163
  22776396.578    -4402642.585 6  -3430616.14621
  23156034.9304   -2134871.17246  -1663523.75761
  24111524.7424    -689014.19745   -461106.85661
  20917289.469      544913.040 7    424606.89922
 91  4 23 20 25 15.0000000  0  5G18G 2G11G16G19
  21158563.8284    3374679.78248   2629614.27463
  22769960.172    -4436474.273 6  -3456978.39621
  23153992.7424   -2145601.33446  -1671884.85361
  24108746.6644    -703584.72145   -472460.52961
  20918681.273      552217.100 7    430298.36422
 91  4 23 20 25 30.0000000  0  5G18G 2G11G16G19
  21165283.6254    3409993.27748   2657131.21963
  22763536.836    -4470233.617 6  -3483284.27321
  23151977.1954   -2156190.40846  -1680136.01861
  24105998.3054    -718022.26745   -483710.58161
  20920081.117      559569.913 7    436027.81622
 91  4 23 20 25 45.0000000  0  5G18G 2G11G16G19
  21172024.3754    3445416.78748   2684733.88363
  22757126.391    -4503922.385 6  -3509535.15621
  23149989.3984   -2166639.99046  -1688278.48661
  24103282.7034    -732328.56445   -494858.36461
  20921488.4844     566969.68047    441793.86062
 91  4 23 20 26  0.0000000  0  5G18G 2G11G16G19
  21178786.7274    3480951.43448   2712423.15063
  22750726.7584   -4537538.83646  -3535729.70461
  23148026.3674   -2176948.34446  -1696310.90861
  24100581.6724    -746502.24645   -505902.81561
  20922903.828      574417.999 7    447597.73522
 91  4 23 20 26 15.0000000  0  5G18G 2G11G16G19
  21185569.3674    3516594.27748   2740196.73163
  22744343.6254   -4571085.95146  -3561870.20561
  23146092.0164   -2187118.31246  -1704235.49361
  24097900.4694    -760545.73245   -516845.81361
  20924331.453      581911.797 7    453437.04022
 91  4 23 20 26 30.0000000  0  5G18G 2G11G16G19
  21192373.828     3552346.496 8   2768055.53323
  22737974.203    -4604562.323 6  -3587955.58521
  23144182.1564   -2197148.35946  -1712051.05561
  24095265.0234    -774457.60845   -527686.24361
  20925765.133      589452.157 7    459312.63522
 91  4 23 20 26 45.0000000  0  6G18G 2G11G16G19G 6
  21199198.2424    3588207.59948   2795999.17963
  22731616.023    -4637968.191 6  -3613986.03021
  23142302.6174   -2207038.61046  -1719757.68061
  24092636.0084    -788238.59545   -538424.68161
  20927210.727      597038.955 7    465224.41422
  24447288.7274         -0.83554
 91  4 23 20 27  0.0000000  0  6G18G 2G11G16G19G 6
  21206042.477     3624176.638 8   2824026.92623
  22725272.5944   -4671304.39746  -3639962.19061
  23140445.9144   -2216789.71846  -1727355.88961
  24090046.688     -801889.123 5   -549061.46421
  20928663.2114     604671.24547    471171.64362
  24442151.8594     -27015.26044
 91  4 23 20 27 15.0000000  0  6G18G 2G11G16G19G 6
  21212907.250     3660254.005 7   2852139.09123
  22718941.047    -4704570.109 6  -3665883.42221
  23138616.4774   -2226400.61246  -1734844.83461
  24087466.391     -815408.262 5   -559595.86621
  20930124.4534     612349.92547    477155.02162
  24437017.383      -54015.001 4
 91  4 23 20 27 30.0000000  0  6G18G 2G11G16G19G 6
  21219794.5004    3696440.87548   2880336.58163
  22712624.8754   -4737763.78246  -3691748.52261
  23136815.1094   -2235869.73246  -1742223.30361
  24084919.5164    -828794.67345   -570026.87161
  20931595.7274     620076.37747    483175.62162
  24431876.148      -80998.813 4
 91  4 23 20 27 45.0000000  0  6G18G 2G11G16G19G 6
  21226700.0004    3732737.67247   2908619.73463
  22706324.0164   -4770884.96446  -3717557.13261
  23135040.6334   -2245196.60346  -1749490.93461
  24082400.7504    -842047.87645   -580354.05661
  20933073.4384     627850.94947    489233.71862
  24426746.711     -107966.304 4        -0.13631
 91  4 23 20 28  0.0000000  0  6G18G 2G11G16G19G 6
  21233628.6954    3769143.78847   2936988.06563
  22700034.953    -4803934.085 6  -3743309.59321
  23133293.102    -2254381.526 6  -1756647.94121
  24079901.2114    -855168.44645   -590577.88661
  20934560.9614     635673.16147    495328.93762
  24421612.9064    -134918.15244    -21001.49961
 91  4 23 20 28 15.0000000  0  6G18G 2G11G16G19G 6
  21240576.4534    3805657.41447   2965440.17163
  22693757.7344   -4836912.42246  -3769006.90361
  23131571.2734   -2263425.82946  -1763695.38961
  24077427.9844    -868157.70045   -600699.43661
  20936060.0394     643541.52347    501460.11962
  24416491.883     -161855.894 4    -41991.80021
 91  4 23 20 28 30.0000000  0  6G18G 2G11G16G19G 6
  21247546.266     3842279.301 7   2993976.63223
  22687496.711    -4869819.156 6  -3794648.40621
  23129876.7194   -2272328.42446  -1770632.40961
  24074985.047     -881014.330 5   -610717.61121
  20937565.8204     651457.03947    507628.04062
  24411364.258     -188778.737 4    -62970.54221
 91  4 23 20 28 45.0000000  0  6G18G 2G11G16G19G 6
  21254535.594     3879010.690 7   3022598.42123
  22681249.070    -4902652.733 6  -3820232.90821
  23128210.672    -2281087.759 6  -1777457.80221
  24072558.8054    -893737.37945   -620631.68461
  20939081.6954     659420.88647    513833.62462
  24406243.0394    -215685.37644    -83936.63261
 91  4 23 20 29  0.0000000  0  6G18G 2G11G16G19G 6
  21261546.6644    3915849.88147   3051304.21463
  22675011.7974   -4935414.89746  -3845761.77061
  23126569.2344   -2289705.30346  -1784172.70261
  24070171.070     -906328.083 5   -630442.63421
  20940608.3984     667431.42147    520075.58962
  24401129.930     -242577.576 4   -104891.46821
 91  4 23 20 29 15.0000000  0  6G18G 2G11G16G19G 6
  21268575.961     3952796.671 7   3080093.84323
  22668793.0944   -4968105.29346  -3871234.70561
  23124955.4534   -2298180.69346  -1790776.83761
  24067798.7734    -918786.42445   -640150.44661
  20942140.250      675489.067 7    526354.26522
  24396012.047     -269455.216 4   -125834.95321
 91  4 23 20 29 30.0000000  0  6G18G 2G11G16G19G 6
  21275628.0084    3989848.63047   3108965.42863
  22662584.742    -5000726.215 6  -3896653.50521
  23123369.852    -2306516.129 6  -1797271.91221
  24065454.2194    -931114.32945   -649756.62761
  20943678.2664     683591.44147    532667.79362
  24390901.477     -296320.789 4   -146769.04521
 91  4 23 20 29 45.0000000  0  6G18G 2G11G16G19G 6
  21282698.266     4027005.903 7   3137919.07223
  22656390.8984   -5033277.16846  -3922017.78461
  23121809.9224   -2314710.89746  -1803657.37461
  24063125.359     -943311.428 5   -659260.89321
  20945232.3984     691739.01547    539016.54062
  24385792.297     -323173.869 4   -167693.40221
 91  4 23 20 30  0.0000000  0  6G18G 2G11G16G19G 6
  21289789.297     4064266.503 7   3166953.23423
  22650208.922    -5065759.999 6  -3947328.97821
  23120279.7274   -2322766.66846  -1809934.53161
  24060836.852     -955379.552 5   -668664.62221
  20946787.2814     699929.94147    545399.07262
  24380683.5704    -350016.25444   -188609.39961
 91  4 23 20 30 15.0000000  0  6G18G 2G11G16G19G 6
  21296898.867     4101630.924 7   3196068.28623
  22644041.555    -5098173.989 6  -3972586.53421
  23118771.3054   -2330682.82146  -1816102.89261
  24058561.180     -967318.357 5   -677967.61421
  20948356.1174     708164.61847    551815.69862
  24375573.8284    -376847.77244   -209516.94861
 91  4 23 20 30 30.0000000  0  6G18G 2G11G16G19G 6
  21304029.094     4139100.375 7   3225265.18923
  22637887.141    -5130517.847 6  -3997789.44221
  23117292.2194   -2338457.86346  -1822161.30461
  24056312.297     -979126.697 5   -687168.95321
  20949929.4924     716444.48047    558267.53262
  24370474.492     -403667.060 4   -230414.98021
 91  4 23 20 30 45.0000000  0  6G18G 2G11G16G19G 6
  21311180.117     4176674.707 7   3254543.81123
  22631745.852    -5162791.269 7  -4022937.45521
  23115839.2034   -2346091.44946  -1828109.48061
  24054097.484     -990803.838 5   -696268.03621
  20951517.2194     724769.74147    564754.73962
  24365373.1484    -430473.97144   -251303.35861
 91  4 23 20 31  0.0000000  0  6G18G 2G11G16G19G 6
  21318350.617     4214354.837 7   3283904.87423
  22625617.2114   -5194993.13146  -4048029.72161
  23114413.8364   -2353582.30046  -1833946.44361
  24051895.8444   -1002348.60445   -705263.97261
  20953108.5634     733141.33547    571278.05762
  24360270.4534    -457267.73644   -272181.45861
 91  4 23 20 31 15.0000000  0  6G18G 2G11G16G19G 6
  21325540.805     4252140.772 7   3313348.37423
  22619503.031    -5227123.076 6  -4073065.94222
  23113016.2814   -2360930.00646  -1839671.85661
  24049722.391    -1013760.841 5   -714156.64221
  20954712.2814     741559.60447    577837.74362
  24355172.9144    -484048.01244   -293049.12261
 91  4 23 20 31 30.0000000  0  6G18G 2G11G16G19G 6
  21332751.609     4290030.756 7   3342872.95723
  22613402.2344   -5259182.71246  -4098047.37361
  23111644.7274   -2368135.95946  -1845286.82761
  24047576.641    -1025042.154 5   -722947.31521
  20956320.7664     750022.86647    584432.48562
  24350082.9454    -510816.54344   -313907.57661
 91  4 23 20 31 45.0000000  0  6G18G 2G11G16G19G 6
  21339980.641     4328023.458 7   3372477.58323
  22607314.695    -5291173.060 6  -4122974.81822
  23110300.211    -2375201.137 6  -1850792.10521
  24045457.5004   -1036193.55145   -731636.71761
  20957941.8134     758530.16147    591061.54362
  24344992.258     -537574.560 4   -334757.84321
 91  4 23 20 32  0.0000000  0  6G18G 2G11G16G19G 6
  21347231.188     4366124.505 7   3402166.63423
  22601242.516    -5323088.597 6  -4147843.96822
  23108981.5164   -2382119.93146  -1856183.30261
  24043362.1414   -1047209.39445   -740220.51961
  20959567.9384     767086.98147    597729.18562
  24339903.813     -564316.639 4   -355595.70521
 91  4 23 20 32 15.0000000  0  6G18G 2G11G16G19G 6
  21354501.125     4404329.852 7   3431936.95223
  22595180.8364   -5354932.65346  -4172657.42061
  23107695.0554   -2388895.68746  -1861463.04861
  24041285.070    -1058093.048 5   -748701.27721
  20961207.0554     775689.73147    604432.62162
  24334817.906     -591046.173 4   -376423.76221
 91  4 23 20 32 30.0000000  0  6G18G 2G11G16G19G 6
  21361794.039     4442642.930 7   3461791.21623
  22589136.3984   -5386701.70146  -4197412.42661
  23106431.195    -2395524.774 6  -1866628.51921
  24039245.563    -1068841.152 5   -757076.46621
  20962852.2504     784341.95947    611174.61462
  24329729.117     -617760.035 4   -397239.65721
 91  4 23 20 32 45.0000000  0  6G18G 2G11G16G19G 6
  21369103.625     4481062.697 7   3491728.61323
  22583103.164    -5418396.396 6  -4222109.49122
  23105199.7894   -2402007.67846  -1871680.07161
  24037225.094    -1079454.263 5   -765346.41321
  20964510.3674     793042.92047    617954.57262
  24324649.156     -644459.040 4   -418043.95521
 91  4 23 20 33  0.0000000  0  6G18G 2G11G16G19G 6
  21376432.195     4519584.013 7   3521745.15023
  22577086.1334   -5450021.68746  -4246752.48162
  23103993.281    -2408349.290 6  -1876621.53921
  24035232.7194   -1089937.34945   -773515.07061
  20966170.1644     801787.70647    624768.68662
  24319571.7584    -671148.09344   -438840.46561
 91  4 23 20 33 15.0000000  0  6G18G 2G11G16G19G 6
  21383784.813     4558210.042 7   3551843.26423
  22571081.859    -5481574.532 6  -4271339.01121
  23102813.445    -2414546.364 6  -1881450.36621
  24033260.7504   -1100287.38445   -781580.03161
  20967846.0004     810579.41247    631619.35762
  24314495.0004    -697824.13944   -459626.87761
 91  4 23 20 33 30.0000000  0  6G18G 2G11G16G19G 6
  21391154.297     4596936.695 7   3582019.79823
  22565089.7894   -5513058.60646  -4295871.96162
  23101659.8524   -2420602.64546  -1886169.48861
  24031315.328    -1110507.897 5   -789544.09021
  20969523.8284     819414.29947    638503.67262
  24309416.539     -724491.304 4   -480406.38921
 91  4 23 20 33 45.0000000  0  6G18G 2G11G16G19G 6
  21398544.570     4635770.241 7   3612279.62423
  22559111.4384   -5544467.18246  -4320346.08162
  23100535.734    -2426511.281 6  -1890773.57521
  24029394.117    -1120592.562 5   -797402.25921
  20971216.3054     828298.82347    645426.67462
  24304350.2344    -751143.02544   -501173.82761
 91  4 23 20 34  0.0000000  0  6G18G 2G11G16G19G 6
  21405951.336     4674703.652 7   3642617.27223
  22553148.6644   -5575807.05046  -4344766.65662
  23099439.234    -2432279.015 6  -1895267.85721
  24027498.633    -1130548.116 5   -805159.85521
  20972916.1484     837226.19247    652383.05462
  24299281.211     -777786.193 4   -521934.63021
 91  4 23 20 34 15.0000000  0  6G18G 2G11G16G19G 6
  21413380.219     4713737.394 7   3673033.09623
  22547198.9144   -5607077.60946  -4369133.23662
  23098367.1564   -2437905.10846  -1899651.76661
  24025631.227    -1140373.718 5   -812816.18921
  20974622.2504     846197.14647    659373.39762
  24294210.297     -804420.227 4   -542688.30321
 91  4 23 20 34 30.0000000  0  6G18G 2G11G16G19G 6
  21420826.938     4752872.808 7   3703528.13823
  22541260.2274   -5638277.31846  -4393444.60562
  23097322.750    -2443387.917 6  -1903924.04421
  24023789.984    -1150067.941 5   -820370.13521
  20976338.867      855212.976 7    666398.70622
  24289147.008     -831043.767 4   -563433.80421
 91  4 23 20 34 45.0000000  0  6G18G 2G11G16G19G 6
  21428293.8594    4792109.95947   3734102.46363
  22535339.2034   -5669405.76946  -4417700.44462
  23096308.1094   -2448727.03246  -1908084.33361
  24021964.7274   -1159630.54545   -827821.52161
  20978063.4534     864274.10647    673459.31562
  24284085.6884    -857656.68844   -584171.02361
 91  4 23 20 35  0.0000000  0  6G18G 2G11G16G19G 6
  21435779.727     4831446.250 7   3764754.03923
  22529427.891    -5700465.144 6  -4441902.45921
  23095319.7114   -2453924.47446  -1912134.22961
  24020173.977    -1169063.577 5   -835171.97421
  20979793.2114     873378.19447    680553.39762
  24279012.102     -884261.226 4   -604901.72521
 91  4 23 20 35 15.0000000  0  6G18G 2G11G16G19G 6
  21443285.164     4870884.478 7   3795485.04323
  22523530.0634   -5731452.42646  -4466048.30661
  23094356.8444   -2458977.21046  -1916071.37661
  24018399.523    -1178364.359 5   -842419.33321
  20981536.5704     882528.14747    687683.22062
  24273961.6884    -910854.65045   -625623.74661
 91  4 23 20 35 30.0000000  0  6G18G 2G11G16G19G 6
  21450808.398     4910423.833 7   3826294.85023
  22517646.5474   -5762368.51146  -4490138.66961
  23093422.383    -2463885.904 6  -1919896.28421
  24016661.1884   -1187533.34145   -849564.00761
  20983285.242      891723.281 7    694848.24922
  24268900.078     -937437.766 5   -646337.76021
 91  4 23 20 35 45.0000000  0  6G18G 2G11G16G19G 6
  21458352.3054    4950062.94947   3857182.38563
  22511779.2584   -5793214.36846  -4514174.30862
  23092516.125    -2468651.540 6  -1923609.70921
  24014932.8204   -1196571.73445   -856606.91361
  20985045.781      900962.527 7    702047.64622
  24263844.2894    -964011.62345   -667044.56361
 91  4 23 20 36  0.0000000  0  6G18G 2G11G16G19G 6
  21465911.797     4989798.014 7   3888144.69423
  22505920.9924   -5823993.54346  -4538157.99061
  23091635.773    -2473277.547 6  -1927214.34821
  24013243.180    -1205483.321 5   -863551.03321
  20986809.969      910242.345 7    709278.65722
  24258791.289     -990580.104 5   -687747.14621
 91  4 23 20 36 15.0000000  0  6G18G 2G11G16G19G 6
  21473492.328     5029630.196 7   3919182.67523
  22500075.117    -5854704.511 6  -4562088.52721
  23090783.164    -2477762.454 6  -1930709.01921
  24011571.3284   -1214266.29345   -870394.93761
  20988586.008      919564.217 7    716542.44222
  24253732.5314   -1017141.80045   -708444.46961
 91  4 23 20 36 30.0000000  0  6G18G 2G11G16G19G 6
  21481092.695     5069561.526 7   3950297.91223
  22494245.7344   -5885345.01546  -4585964.15761
  23089955.8284   -2482103.73246  -1934091.78461
  24009932.633    -1222918.621 5   -877137.01921
  20990366.359      928930.431 7    723840.77422
  24248676.195    -1043694.433 5   -729134.71121
 91  4 23 20 36 45.0000000  0  6G18G 2G11G16G19G 6
  21488710.461     5109588.947 7   3981488.02323
  22488428.789    -5915918.013 6  -4609787.18921
  23089155.773    -2486304.367 6  -1937364.95321
  24008305.359    -1231443.265 5   -883779.61721
  20992156.914      938337.925 7    731171.27222
  24243626.625    -1070241.365 5   -749820.53721
 91  4 23 20 37  0.0000000  0  6G18G 2G11G16G19G 6
  21496345.1174    5149716.95147   4012756.50463
  22482623.328    -5946418.714 7  -4633553.88122
  23088386.414    -2490359.537 6  -1940524.77121
  24006709.719    -1239835.277 5   -890318.85021
  20993957.102      947791.385 7    738537.58822
  24238574.2504   -1096777.72145   -770498.10161
 91  4 23 20 37 15.0000000  0  6G18G 2G11G16G19G 6
  21504001.398     5189946.091 7   4044103.80223
  22476834.375    -5976846.202 7  -4657263.52621
  23087641.5164   -2494268.14046  -1943570.38761
  24005134.594    -1248093.640 5   -896753.96921
  20995766.773      957291.775 7    745940.46922
  24233530.9924   -1123302.72145   -791166.82761
 91  4 23 20 37 30.0000000  0  6G18G 2G11G16G19G 6
  21511676.4224    5230276.93047   4075530.34063
  22471057.563    -6007199.860 7  -4680915.64621
  23086925.734    -2498029.495 6  -1946501.26521
  24003587.9224   -1256217.95545   -903084.64061
  20997578.570      966839.634 7    753380.34922
  24228478.6334   -1149816.11745   -811826.52061
 91  4 23 20 37 45.0000000  0  6G18G 2G11G16G19G 6
  21519369.344     5270707.142 7   4107034.31723
  22465294.758    -6037481.570 7  -4704511.70122
  23086237.641    -2501645.518 6  -1949318.89721
  24002066.539    -1264210.038 5   -909312.24021
  20999408.516      976433.159 7    760855.80622
  24223440.609    -1176319.644 5   -832478.50921
 91  4 23 20 38  0.0000000  0  6G18G 2G11G16G19G 6
  21527082.2974    5311237.82247   4138616.57063
  22459545.9694   -6067690.09247  -4728050.71962
  23085576.422    -2505114.973 6  -1952022.32521
  24000569.5704   -1272068.88445   -915436.05561
  21001244.000      986073.406 7    768367.67122
  24218394.0394   -1202812.30145   -853122.03761
 91  4 23 20 38 15.0000000  0  6G18G 2G11G16G19G 6
  21534813.3914    5351866.51747   4170275.20763
  22453811.484    -6097827.586 7  -4751534.40821
  23084944.625    -2508439.731 6  -1954612.99721
  23999100.961    -1279796.673 5   -921457.71221
  21003083.641      995758.309 7    775914.33222
  24213359.375    -1229296.230 5   -873758.74221
 91  4 23 20 38 30.0000000  0  6G18G 2G11G16G19G 6
  21542562.9614    5392591.60547   4202008.94663
  22448090.156    -6127895.185 7  -4774963.62122
  23084339.555    -2511620.897 6  -1957091.77521
  23997653.695    -1287394.542 5   -927378.14921
  21004934.094     1005486.489 7    783494.71322
  24208317.469    -1255772.960 5   -894389.86821
 91  4 23 20 38 45.0000000  0  6G18G 2G11G16G19G 6
  21550331.2424    5433414.82047   4233819.15463
  22442382.0784   -6157891.26647  -4798337.10762
  23083761.750    -2514656.790 6  -1959457.35321
  23996232.688    -1294861.072 5   -933196.24421
  21006796.492     1015259.526 7    791110.05222
  24203284.6724   -1282240.96145   -915014.15161
 91  4 23 20 39  0.0000000  0  6G18G 2G11G16G19G 6
  21558118.9224    5474339.03447   4265708.05863
  22436687.422    -6187812.645 7  -4821652.38422
  23083211.422    -2517544.133 6  -1961707.18221
  23994841.023    -1302192.690 5   -938909.21621
  21008662.586     1025080.760 7    798762.94922
  24198251.9224   -1308697.06645   -935629.21761
 91  4 23 20 39 15.0000000  0  6G18G 2G11G16G19G 6
  21565925.8984    5515361.23047   4297673.31263
  22431006.664    -6217661.878 7  -4844911.44922
  23082691.195    -2520285.502 6  -1963843.27421
  23993472.5474   -1309392.17045   -944519.20561
  21010543.188     1034947.475 7    806451.27922
  24193217.2894   -1335144.00545   -956237.11761
 91  4 23 20 39 30.0000000  0  6G18G 2G11G16G19G 6
  21573750.3914    5556483.78447   4329716.76663
  22425341.352    -6247436.655 7  -4868112.49121
  23082196.3364   -2522878.45246  -1965863.70161
  23992120.305    -1316457.216 5   -950024.47621
  21012429.555     1044862.074 7    814176.92722
  24188190.773    -1361579.537 5   -976836.13121
 91  4 23 20 39 45.0000000  0  6G18G 2G11G16G19G 6
  21581594.3914    5597706.05347   4361837.92163
  22419691.109    -6277137.405 7  -4891255.85822
  23081730.844    -2525323.454 6  -1967768.84821
  23990805.3134   -1323388.34045   -955425.37361
  21014325.164     1054823.955 7    821939.41422
  24183156.7424   -1388004.30845   -997426.75861
 91  4 23 20 40  0.0000000  0  6G18G 2G11G16G19G 6
  21589458.4694    5639024.17647   4394033.76563
  22414050.719    -6306767.109 6  -4914343.85721
  23081293.344    -2527623.439 6  -1969561.00021
  23989512.1414   -1330188.87545   -960724.52361
  21016228.148     1064830.110 7    829736.40322
  24178129.3284   -1414421.58245  -1018011.52961
 91  4 23 20 40 15.0000000  0  6G18G 2G11G16G19G 6
  21597339.5704    5680440.03747   4426305.77562
  22408425.422    -6336323.925 6  -4937375.05922
  23080882.5864   -2529776.42346  -1971238.61261
  23988241.727    -1336856.655 5   -965920.19521
  21018141.9694    1074882.68747    837569.56362
  24173110.375    -1440829.364 5  -1038588.90621
 91  4 23 20 40 30.0000000  0  6G18G 2G11G16G19G 6
  21605239.4614    5721955.20147   4458655.16163
  22402815.555    -6365806.166 6  -4960348.15922
  23080501.867    -2531780.595 6  -1972800.25721
  23987001.3674   -1343389.89845   -971011.05661
  21020061.586     1084983.356 7    845440.19922
  24168085.016    -1467226.292 5  -1059157.85821
 91  4 23 20 40 45.0000000  0  6G18G 2G11G16G19G 6
  21613159.2424    5763566.71447   4491079.61962
  22397219.148    -6395216.468 6  -4983265.20022
  23080148.133    -2533638.596 6  -1974248.01121
  23985776.5634   -1349791.51845   -975999.37561
  21021995.734     1095129.224 7    853346.05722
  24163064.6334   -1493614.99545  -1079720.35361
 91  4 23 20 41  0.0000000  0  6G18G 2G11G16G19G 6
  21621093.8054    5805273.89347   4523578.63362
  22391634.320    -6424555.641 6  -5006126.81722
  23079824.148    -2535351.221 6  -1975582.47721
  23984583.1564   -1356062.27145   -980885.69361
  21023934.133     1105319.291 7    861286.35822
  24158042.633    -1519996.333 5  -1100277.12021
 91  4 23 20 41 15.0000000  0  6G18G 2G11G16G19G 6
  21629051.2344    5847078.15147   4556153.27862
  22386066.367    -6453821.696 6  -5028931.45322
  23079524.688    -2536916.473 6  -1976802.10621
  23983419.594    -1362200.208 5   -985668.53021
  21025880.5474    1115555.48347    869262.60062
  24153022.297    -1546368.644 5  -1120826.85121
 91  4 23 20 41 30.0000000  0  6G18G 2G11G16G19G 6
  21637022.7194    5888977.74447   4588802.22562
  22380512.266    -6483015.877 7  -5051680.08721
  23079251.414    -2538335.462 6  -1977907.77321
  23982270.492    -1368206.692 5   -990348.90721
  21027840.555     1125836.620 7    877273.86022
  24148005.9224   -1572733.17145  -1141370.53761
 91  4 23 20 41 45.0000000  0  6G18G 2G11G16G19G 6
  21645013.9304    5930973.17047   4621525.83662
  22374970.672    -6512137.553 7  -5074372.22222
  23079010.820    -2539607.492 6  -1978898.92121
  23981153.047    -1374081.024 5   -994926.33421
  21029802.7814    1136163.64047    885320.87662
  24142994.2504   -1599089.41645  -1161907.73961
 91  4 23 20 42  0.0000000  0  6G18G 2G11G16G19G 6
  21653024.0474    5973066.49047   4654325.73262
  22369442.406    -6541184.217 6  -5097005.91222
  23078801.164    -2540730.067 6  -1979773.61221
  23980059.9144   -1379821.26645   -999399.27061
  21031773.2974    1146538.86447    893405.45562
  24137973.2194   -1625435.12345  -1182436.76461
 91  4 23 20 42 15.0000000  0  6G18G 2G11G16G19G 6
  21661054.5164    6015257.70847   4687201.91762
  22363929.898    -6570155.675 7  -5119580.99522
  23078614.7114   -2541702.82946  -1980531.57061
  23979001.242    -1385426.720 5  -1003767.16421
  21033762.2814    1156962.39547    901527.67462
  24132963.414    -1651770.077 5  -1202957.40121
 91  4 23 20 42 30.0000000  0  6G18G 2G11G16G19G 6
  21669100.4844    6057542.02647   4720150.63862
  22358428.844    -6599057.001 6  -5142101.44422
  23078454.859    -2542530.806 6  -1981176.70021
  23977955.2274   -1390902.47045  -1008033.99561
  21035749.8914    1167429.22547    909683.63762
  24127958.023    -1678099.467 5  -1223473.68421
 91  4 23 20 42 45.0000000  0  6G18G 2G11G16G19G 6
  21677163.2584    6099917.29547   4753170.23762
  22352942.4304   -6627889.79647  -5164568.47862
  23078327.3204   -2543215.60746  -1981710.27661
  23976939.852    -1396250.459 5  -1012201.28021
  21037751.5474    1177937.78247    917872.11262
  24122941.273    -1704424.934 5  -1243986.93821
 91  4 23 20 43  0.0000000  0  6G18G 2G11G16G19G 6
  21685245.7034    6142388.67247   4786264.71862
  22347469.242    -6656648.668 6  -5186977.91522
  23078222.750    -2543751.777 6  -1982128.03121
  23975945.703    -1401465.229 5  -1016264.76221
  21039760.2584    1188493.46247    926097.31062
  24117932.8834   -1730741.40145  -1264493.15361
 91  4 23 20 43 15.0000000  0  6G18G 2G11G16G19G 6
  21693346.3914    6184956.05047   4819434.01062
  22342011.383    -6685333.297 7  -5209329.49522
  23078149.3364   -2544139.10346  -1982429.80761
  23974979.836    -1406546.518 5  -1020224.22121
  21041778.5634    1199096.27347    934359.23162
  24112931.109    -1757048.677 5  -1284992.21021
 91  4 23 20 43 30.0000000  0  6G18G 2G11G16G19G 6
  21701464.2194    6227619.46047   4852678.12762
  22336566.477    -6713943.403 7  -5231623.01022
  23078105.664    -2544377.238 6  -1982615.32621
  23974043.789    -1411494.153 5  -1024079.55321
  21043802.578     1209746.461 7    942658.06622
  24107924.2894   -1783346.57445  -1305483.97261
 91  4 23 20 43 45.0000000  0  6G18G 2G11G16G19G 6
  21709601.180     6270378.194 7   4885996.52322
  22331136.4614   -6742479.62147  -5253858.94762
  23078086.4534   -2544466.50546
  23973122.1414   -1416308.71745  -1027831.18261
  21045842.617     1220443.576 7    950993.46822
  24102919.3834   -1809635.67145  -1325968.86261
 91  4 23 20 44  0.0000000  0  6G18G 2G11G16G19G 6
  21717756.2114    6313229.16247   4919386.79362
  22325719.664    -6770944.631 7  -5276039.40422
  23078100.7424   -2544409.61246
  23972231.938    -1420992.985 5  -1031481.30321
  21047882.859     1231184.857 7    959363.28522
  24097920.094    -1835918.941 5  -1346449.20721
 91  4 23 20 44 15.0000000  0  6G18G 2G11G16G19G 6
  21725928.9694    6356175.09647   4952851.05562
  22320316.961    -6799335.651 7  -5298162.20522
  23078139.9844   -2544203.61546
  23971368.586    -1425544.268 5  -1035027.77521
  21049938.695     1241973.235 7    967769.80122
  24092920.6484   -1862193.51945  -1366922.78861
 91  4 23 20 44 30.0000000  0  6G18G 2G11G16G19G 6
  21734118.352     6399213.742 7   4986387.56522
  22314927.734    -6827654.402 7  -5320228.69022
  23078206.266    -2543850.446 6
  23970525.2344   -1429964.02845  -1038471.77061
  21051998.633     1252806.980 7    976211.66322
  24087921.9614   -1888461.29045  -1387391.07761
 91  4 23 20 44 45.0000000  0  6G18G 2G11G16G19G 6
  21742325.4844    6442344.07647   5019995.51662
  22309553.539    -6855901.794 7  -5342239.57122
  23078299.6024   -2543351.06546  -1981815.53161
  23969707.531    -1434253.364 5  -1041814.13921
  21054069.422     1263685.024 7    984688.05223
  24082927.695    -1914723.526 5  -1407855.04721
 91  4 23 20 45  0.0000000  0  6G18G 2G11G16G19G 6
  21750551.6884    6485567.40647   5053675.93562
  22304189.9224   -6884076.12947  -5364193.53262
  23078423.7734   -2542703.53246  -1981310.93061
  23968912.234    -1438410.737 5  -1045053.67121
  21056147.164     1274609.171 7    993200.35822
  24077927.6484   -1940978.34245  -1428313.24061
 91  4 23 20 45 15.0000000  0  6G18G 2G11G16G19G 6
  21758796.2194    6528888.85347   5087432.80662
  22298845.602    -6912172.083 7  -5386086.41222
  23078577.4064   -2541902.56146  -1980686.75961
  23968153.352    -1442430.949 5  -1048186.36021
  21058237.063     1285584.570 7   1001752.60322
  24072933.1804   -1967220.71145  -1448761.70761
 91  4 23 20 45 30.0000000  0  6G18G 2G11G16G19G 6
  21767056.688     6572304.410 7   5121263.01122
  22293512.320    -6940193.664 7  -5407921.34122
  23078756.3054   -2540951.96646  -1979946.00061
  23967418.313    -1446317.814 5  -1051215.08221
  21060332.648     1296607.444 7   1010341.84222
  24067947.977    -1993454.555 5  -1469203.55421
 91  4 23 20 45 45.0000000  0  6G18G 2G11G16G19G 6
  21775338.1414    6615815.90347   5155167.96862
  22288194.0474   -6968138.75647  -5429696.66962
  23078966.2424   -2539849.64546  -1979087.00861
  23966698.7584   -1450069.50745  -1054138.53861
  21062441.8754    1307679.95647   1018969.76362
  24062949.398    -2019677.923 5  -1489637.24521
 91  4 23 20 46  0.0000000  0  6G18G 2G11G16G19G 6
  21783633.609     6659420.556 7   5189145.52122
  22282892.8834   -6996009.70247  -5451414.22562
  23079203.1884   -2538597.89346  -1978111.59261
  23966010.0394   -1453688.29945  -1056958.43261
  21064556.930     1318799.475 7   1027634.30422
  24057964.7194   -2045893.34445  -1510064.74161
 91  4 23 20 46 15.0000000  0  6G18G 2G11G16G19G 6
  21791951.7274    6703122.70647   5223199.03962
  22277603.4144   -7023801.91747  -5473070.42762
  23079471.5704   -2537192.25446  -1977016.25561
  23965350.8594   -1457169.73345  -1059671.25361
  21066685.320     1329970.529 7   1036339.00422
  24052978.859    -2072096.338 5  -1530482.54721
 91  4 23 20 46 30.0000000  0  6G18G 2G11G16G19G 6
  21800285.000     6746919.808 7   5257326.55022
  22272328.0784   -7051517.58447  -5494666.98362
  23079768.9454   -2535634.78146  -1975802.60561
  23964710.5634   -1460516.08245  -1062278.84461
  21068818.039     1341191.087 7   1045082.28122
  24047990.9694   -2098289.25845  -1550892.51461
 91  4 23 20 46 45.0000000  0  6G18G 2G11G16G19G 6
  21808637.0234    6790809.22347   5291525.99962
  22267068.8834   -7079159.18647  -5516205.82462
  23080093.0004   -2533927.93747  -1974472.57461
  23964101.859    -1463730.067 5  -1064783.28621
  21070963.211     1352458.538 7   1053862.09922
  24043008.0084   -2124474.56345  -1571296.54461
 91  4 23 20 47  0.0000000  0  6G18G 2G11G16G19G 6
  21817007.9774    6834792.83447   5325798.83662
  22261823.047    -7106724.583 7  -5537685.28022
  23080445.8364   -2532069.67247  -1973024.54761
  23963516.125    -1466809.311 5  -1067182.72921
  21073113.063     1363775.088 7   1062680.17922
  24038030.9304   -2150650.40945  -1591693.19261
 91  4 23 20 47 15.0000000  0  6G18G 2G11G16G19G 6
  21825394.820     6878872.849 7   5360146.80122
  22256592.7734   -7134211.49447  -5559103.59162
  23080829.9144   -2530057.55147  -1971456.62961
  23962944.4694   -1469751.49445  -1069475.37561
  21075280.563     1375143.101 7   1071538.35222
  24033045.6954   -2176814.41045  -1612080.63561
 91  4 23 20 47 30.0000000  0  6G18G 2G11G16G19G 6
  21833801.156     6923046.772 7   5394567.93322
  22251376.141    -7161621.737 7  -5580462.15022
  23081240.3134   -2527893.31646  -1969770.18661
  23962418.313    -1472558.874 5  -1071662.96621
  21077449.242     1386560.655 7   1080435.13222
  24028074.3054   -2202968.49345  -1632460.33261
 91  4 23 20 47 45.0000000  0  6G18G 2G11G16G19G 6
  21842225.406     6967313.404 7   5429061.31322
  22246174.4384   -7188956.56447  -5601761.96062
  23081682.039    -2525578.155 6  -1967966.14621
  23961911.8284   -1475232.68045  -1073746.49161
  21079632.6334    1398026.66347   1089369.67662
  24023095.672    -2229114.100 5  -1652833.42721
 91  4 23 20 48  0.0000000  0  6G18G 2G11G16G19G 6
  21850666.359     7011669.768 7   5463624.60722
  22240987.4454   -7216218.68147  -5623005.09362
  23082150.484    -2523114.757 6  -1966046.58321
  23961427.219    -1477775.573 5  -1075728.00221
  21081822.672     1409538.630 7   1098340.02322
  24018122.6414   -2255253.83245  -1673201.95361
 91  4 23 20 48 15.0000000  0  6G18G 2G11G16G19G 6
  21859125.242     7056121.395 7   5498262.14422
  22235814.4614   -7243401.96847  -5644186.81262
  23082647.0704   -2520497.18346  -1964006.88961
  23960969.219    -1480181.704 5  -1077602.94521
  21084026.0314    1421102.33747   1107350.69262
  24013151.516    -2281381.979 5  -1693561.45621
 91  4 23 20 48 30.0000000  0  6G18G 2G11G16G19G 6
  21867602.070     7100666.385 7   5532972.41922
  22230656.4304   -7270508.37347  -5665308.62162
  23083177.0704   -2517727.28946  -1961848.50461
  23960533.258    -1482452.681 5  -1079372.56921
  21086231.664     1432715.869 7   1116400.17922
  24008179.078    -2307500.503 5  -1713913.43421
 91  4 23 20 48 45.0000000  0  6G18G 2G11G16G19G 6
  21876095.227     7145303.427 7   5567754.42922
  22225511.4384   -7297538.86047  -5686371.27162
  23083730.5474   -2514806.04946  -1959572.18661
  23960130.023    -1484589.781 5  -1081037.87721
  21088456.5864    1444378.33847   1125487.80662
  24003211.391    -2333610.421 5  -1734258.73221
 91  4 23 20 49  0.0000000  0  6G18G 2G11G16G19G 6
  21884607.422     7190032.360 7   5602608.04022
  22220382.1484   -7324493.34147  -5707374.69262
  23084316.297    -2511733.313 6  -1957177.82321
  23959744.641    -1486593.032 5  -1082598.89921
  21090682.453     1456089.625 7   1134613.47122
  23998246.992    -2359711.712 5  -1754597.31221
 91  4 23 20 49 15.0000000  0  6G18G 2G11G16G19G 6
  21893137.086     7234855.183 7   5637534.80922
  22215268.891    -7351369.685 7  -5728317.22422
  23084930.7504   -2508506.88946  -1954663.69461
  23959397.3834   -1488460.67245  -1084054.22361
  21092920.8594    1467851.90947   1143778.87462
  23993278.0314   -2385802.58445  -1774927.75961
 91  4 23 20 49 30.0000000  0  6G18G 2G11G16G19G 6
  21901683.703     7279768.000 7   5672531.70822
  22210168.1334   -7378171.18747  -5749201.44962
  23085574.211    -2505130.163 6  -1952032.46321
  23959063.688    -1490195.948 5  -1085406.44221
  21095169.148     1479661.748 7   1152981.33522
  23988312.9694   -2411886.32945  -1795252.67861
 91  4 23 20 49 45.0000000  0  6G18G 2G11G16G19G 6
  21910248.664     7324771.488 7   5707599.25822
  22205080.6094   -7404897.21447  -5770026.85862
  23086244.5234   -2501602.40346  -1949283.53461
  23958759.2584   -1491798.04845  -1086654.84761
  21097426.9694    1491519.93147   1162221.46662
  23983353.1884   -2437962.26245  -1815571.48561
 91  4 23 20 50  0.0000000  0  6G18G 2G11G16G19G 6
  21918830.0394    7369868.43547   5742739.63662
  22200010.2034   -7431544.28147  -5790790.74262
  23086946.4304   -2497920.21846  -1946414.27161
  23958471.844    -1493263.542 5  -1087796.84721
  21099688.484     1503430.143 7   1171502.14122
  23978395.9304   -2464027.19645  -1835881.72361
 91  4 23 20 50 15.0000000  0  6G18G 2G11G16G19G 6
  21927427.773     7415055.059 7   5777949.88822
  22194954.3204   -7458116.15747  -5811496.03262
  23087675.6564   -2494087.29946  -1943427.55761
  23958228.766    -1494596.445 5  -1088835.49821
  21101968.8594    1515388.46247   1180820.30362
  23973433.047    -2490084.828 5  -1856186.28521
 91  4 23 20 50 30.0000000  0  6G18G 2G11G16G19G 6
  21936045.2194    7460333.75647   5813231.89162
  22189912.1724   -7484610.36847  -5832140.80462
  23088432.8444   -2490101.02246  -1940321.34361
  23957993.742    -1495794.089 5  -1089768.75721
  21104254.7734    1527397.50247   1190177.99262
  23968483.6724   -2516132.64445  -1876483.18661
 91  4 23 20 50 45.0000000  0  6G18G 2G11G16G19G 6
  21944679.734     7505705.061 7   5848586.05222
  22184884.3204   -7511026.14647  -5852724.46062
  23089222.266    -2485960.526 7  -1937094.96121
  23957800.5474   -1496855.57045  -1090595.93661
  21106547.4694    1539457.92547   1199575.71662
  23963530.2194   -2542169.98545  -1896771.94461
 91  4 23 20 51  0.0000000  0  6G18G 2G11G16G19G 6
  21953330.6414    7551167.95847   5884011.58262
  22179874.3444   -7537364.30747  -5873247.63162
  23090036.742    -2481666.596 6  -1933749.01721
  23957617.305    -1497781.938 5  -1091317.83721
  21108849.4924    1551569.12147   1209013.00162
  23958568.414    -2568197.832 5  -1917053.28121
 91  4 23 20 51 15.0000000  0  6G18G 2G11G16G19G 6
  21961997.672     7596720.200 7   5919506.73322
  22174876.3754   -7563626.64447  -5893711.72362
  23090885.7814   -2477221.22446  -1930285.06561
  23957465.2734   -1498575.45745  -1091936.21861
  21111164.3364    1563729.15647   1218488.34462
  23953619.398    -2594218.179 5  -1937328.81821
 91  4 23 20 51 30.0000000  0  6G18G 2G11G16G19G 6
  21970682.961     7642361.242 7   5955071.07722
  22169894.8754   -7589813.28047  -5914116.82362
  23091758.281    -2472624.605 6  -1926703.26321
  23957340.148    -1499236.338 5  -1092451.24421
  21113489.7894    1575937.78247   1228001.55162
  23948665.391    -2620231.239 5  -1957598.64521
 91  4 23 20 51 45.0000000  0  6G18G 2G11G16G19G 6
  21979386.7734    7688094.00747   5990706.89362
  22164925.031    -7615921.172 7
  23092661.6094   -2467873.61746  -1923001.16561
  23957245.602    -1499761.557 5  -1092860.55021
  21115823.0784    1588198.15647   1237555.08462
  23943720.1804   -2646233.95745
 91  4 23 20 52  0.0000000  0  6G18G 2G11G16G19G 6
  21988106.563     7733916.829 7   6026412.88622
  22159971.0314   -7641951.86447
  23093595.086    -2462969.734 6  -1919179.93921
  23957166.0164   -1500152.73045  -1093165.40261
  21118168.6644    1600508.88747   1247147.85462
  23938775.3984   -2672227.92745
 91  4 23 20 52 15.0000000  0  6G18G 2G11G16G19G 6
  21996842.469     7779829.722 7   6062189.06522
  22155032.3914   -7667905.28447
  23094559.1804   -2457912.85546  -1915239.49061
  23957123.6564   -1500409.53745  -1093365.56861
  21120517.3134    1612870.04247   1256779.91662
  23933828.9224   -2698213.19445
 91  4 23 20 52 30.0000000  0  6G18G 2G11G16G19G 6
  22005596.859     7825829.720 7   6098033.11122
  22150107.4844   -7693783.64147  -5995132.42462
  23095549.570    -2452705.255 6  -1911181.59521
  23957090.9454   -1500534.34245
  21122878.5864    1625279.33047   1266449.48262
  23928886.4924   -2724192.11345  -2038606.29761
 91  4 23 20 52 45.0000000  0  6G18G 2G11G16G19G 6
  22014365.875     7871915.215 7   6133943.78722
  22145196.9614   -7719588.45147  -6015240.00262
  23096567.719    -2447348.301 6  -1907007.32221
  23957100.9454   -1500528.66845
  21125250.1174    1637735.35347   1276155.46562
  23923939.180    -2750166.142 5  -2058845.72821
 91  4 23 20 53  0.0000000  0  6G18G 2G11G16G19G 6
  22023152.570     7918089.439 7   6169923.60222
  22140301.5004   -7745316.15247  -6035287.49362
  23097617.766    -2441838.591 6  -1902714.01821
  23957119.9384   -1500389.43445
  21127628.3674    1650241.54047   1285900.53862
  23918999.0944   -2776131.90345  -2079078.70861
 91  4 23 20 53 15.0000000  0  6G18G 2G11G16G19G 6
  22031956.961     7964353.465 7   6205973.38322
  22135420.6884   -7770965.39447  -6055273.84362
  23098692.1804   -2436174.77846  -1898300.63361
  23957178.508    -1500115.126 5
  21130021.5474    1662799.22647   1295685.73862
  23914064.508    -2802088.236 5  -2099304.34721
 91  4 23 20 53 30.0000000  0  6G18G 2G11G16G19G 6
  22040778.1724    8010707.38547   6242093.22362
  22130555.1564   -7796536.03347  -6075198.95262
  23099802.3054   -2430356.68846  -1893767.03361
  23957255.898    -1499705.790 5  -1092817.43521
  21132419.6094    1675408.56847   1305511.19162
  23909119.977    -2828035.051 5  -2119522.56621
 91  4 23 20 53 45.0000000  0  6G18G 2G11G16G19G 6
  22049614.977     8057147.384 7   6278280.13022
  22125702.7194   -7822031.43547  -6095065.42962
  23100937.438    -2424387.573 6  -1889115.75421
  23957356.109    -1499164.606 5  -1092395.80321
  21134826.3914    1688066.47447   1315374.48362
  23904186.1564   -2853975.58745  -2139735.89861
 91  4 23 20 54  0.0000000  0  6G18G 2G11G16G19G 6
  22058469.9064    8103674.50647   6314534.92862
  22120865.6644   -7847450.54847  -6114872.46362
  23102100.8444   -2418266.47646  -1884346.03961
  23957485.961    -1498490.862 5  -1091870.85621
  21137248.9534    1700773.80247   1325276.28662
  23899251.430    -2879908.991 5  -2159943.66121
 91  4 23 20 54 15.0000000  0  6G18G 2G11G16G19G 6
  22067341.141     8150288.196 7   6350857.17822
  22116041.719    -7872793.730 7  -6134620.32722
  23103295.867    -2411993.657 6  -1879458.10721
  23957642.594    -1497685.044 5  -1091243.01821
  21139675.1254    1713530.25747   1335216.36762
  23894321.5864   -2905835.64745  -2180146.20861
 91  4 23 20 54 30.0000000  0  6G18G 2G11G16G19G 6
  22076227.156     8196989.787 7   6387247.92422
  22111232.7344   -7898059.04447  -6154307.51662
  23104519.352    -2405567.321 6  -1874450.55721
  23957813.734    -1496745.018 5  -1090510.59321
  21142106.961     1726337.909 7   1345196.34422
  23889382.445    -2931753.774 5  -2200342.06321
 91  4 23 20 54 45.0000000  0  6G18G 2G11G16G19G 6
  22085131.727     8243780.630 7   6423708.21222
  22106441.7894   -7923244.74547  -6173932.67062
  23105772.492    -2398985.781 6  -1869322.06621
  23958021.773    -1495669.586 5  -1089672.64121
  21144557.805     1739198.392 7   1355217.48822
  23884459.3204   -2957661.81445  -2220530.08861
 91  4 23 20 55  0.0000000  0  6G18G 2G11G16G19G 6
  22094052.406     8290662.982 7   6460239.80722
  22101666.1094   -7948348.65247  -6193494.09162
  23107055.0944   -2392246.56246  -1864070.70061
  23958255.4144   -1494456.52145  -1088727.43961
  21147013.594     1752114.216 7   1365281.75122
  23879528.5084   -2983557.45045  -2240708.43861
 91  4 23 20 55 15.0000000  0  6G18G 2G11G16G19G 6
  22102990.422     8337632.556 7   6496839.37222
  22096901.6484   -7973374.88147  -6212994.98362
  23108366.258    -2385353.849 6  -1858699.73021
  23958511.6414   -1493109.69145  -1087678.03261
  21149483.6174    1765081.12047   1375385.82262
  23874606.813    -3009444.761 5  -2260880.28921
 91  4 23 20 55 30.0000000  0  6G18G 2G11G16G19G 6
  22111944.133     8384689.333 7   6533506.88122
  22092156.1804   -7998322.77247  -6232434.82462
  23109706.4304   -2378307.16047  -1853208.77861
  23958793.2974   -1491628.91945  -1086524.25661
  21151959.352     1778099.382 7   1385529.91122
  23869680.352    -3035323.472 5  -2281045.46721
 91  4 23 20 55 45.0000000  0  6G18G 2G11G16G19G 6
  22120915.492     8431829.463 7   6570239.34122
  22087421.977    -8023196.008 7  -6251816.50522
  23111075.4384   -2371110.18847  -1847600.72461
  23959095.672    -1490017.883 5  -1085268.95321
  21154446.656     1791165.574 7   1395711.34722
  23864753.8284   -3061197.25645  -2301206.77861
 91  4 23 20 56  0.0000000  0  6G18G 2G11G16G19G 6
  22129903.914     8479058.824 7   6607041.33322
  22082704.2274   -8047988.70747  -6271135.42162
  23112476.125    -2363757.119 7  -1841871.04521
  23959431.930    -1488270.691 5  -1083907.57221
  21156940.859     1804285.616 7   1405934.73622
  23859834.883    -3087060.229 5  -2321359.67121
 91  4 23 20 56 15.0000000  0  6G18G 2G11G16G19G 6
  22138906.383     8526372.649 7   6643909.13822
  22078001.2664   -8072704.97247  -6290394.78062
  23113904.961    -2356251.986 7  -1836022.87121
  23959791.547    -1486391.485 5  -1082443.31321
  21159448.070     1817455.577 7   1416197.01922
  23854913.0314   -3112916.50845  -2341507.34261
 91  4 23 20 56 30.0000000  0  6G18G 2G11G16G19G 6
  22147926.672     8573775.074 7   6680845.98122
  22073312.3754   -8097340.69747  -6309591.37962
  23115359.242    -2348590.705 7  -1830053.02721
  23960171.258    -1484376.471 5  -1080873.22821
  21161965.359     1830679.536 7   1426501.38922
  23849990.3674   -3138762.23345  -2361646.81661
 91  4 23 20 56 45.0000000  0  6G18G 2G11G16G19G 6
  22156964.141     8621262.068 7   6717848.72422
  22068638.7584   -8121899.79347  -6328728.27362
  23116847.922    -2340777.159 7  -1823964.54021
  23960577.7344   -1482229.56145  -1079200.39061
  21164491.750     1843953.666 7   1436844.84822
  23845078.5084   -3164601.24445  -2381781.03061
 91  4 23 20 57  0.0000000  0  6G18G 2G11G16G19G 6
  22166017.266     8668834.484 7   6754918.02122
  22063979.9304   -8146381.05347  -6347804.50962
  23118364.0474   -2332810.15947  -1817756.47261
  23961010.5784   -1479949.51345  -1077423.79061
  21167027.672     1857279.196 7   1447228.35722
  23840160.5314   -3190432.51745  -2401909.22561
 91  4 23 20 57 15.0000000  0  6G18G 2G11G16G19G 6
  22175086.422     8716490.576 7   6792052.52522
  22059336.1804   -8170785.91147  -6366821.21462
  23119909.836    -2324691.097 7  -1811429.91021
  23961474.156    -1477537.923 5  -1075544.69321
  21169570.508     1870654.623 7   1457650.74622
  23835247.4614   -3216257.52645  -2422032.54261
 91  4 23 20 57 30.0000000  0  6G18G 2G11G16G19G 6
  22184170.203     8764232.370 7   6829253.81722
  22054704.0234   -8195112.21747  -6385776.71762
  23121482.008    -2316417.882 7  -1804983.23521
  23961954.328    -1474992.826 5  -1073561.56321
  21172125.195     1884082.388 7   1468113.92122
  23830331.0394   -3242073.99345  -2442149.19961
 91  4 23 20 57 45.0000000  0  6G18G 2G11G16G19G 6
  22193272.859     8812058.229 7   6866520.60522
  22050093.0864   -8219361.03147  -6404671.82862
  23123087.258    -2307991.556 7  -1798417.25221
  23962466.8524   -1472315.19245  -1071475.18161
  21174693.844     1897561.229 7   1478616.88722
  23825423.313    -3267883.131 5  -2462260.13221
 91  4 23 20 58  0.0000000  0  6G18G 2G11G16G19G 6
  22202388.086     8859965.170 7   6903850.57822
  22045492.0474   -8243535.10647  -6423508.70262
  23124718.430    -2299415.009 7  -1791734.21421
  23962999.188    -1469507.949 5  -1069287.77521
  21177264.266     1911088.289 7   1489157.43222
  23820514.0784   -3293687.95545  -2482367.72061
 91  4 23 20 58 15.0000000  0  6G18G 2G11G16G19G 6
  22211519.7814    8907956.55047   6941246.34462
  22040906.2894   -8267630.87447  -6442284.55862
  23126381.016    -2290684.645 7  -1784931.31621
  23963560.3054   -1466567.69845  -1066996.73961
  21179850.703     1924667.288 7   1499738.44722
  23815598.4384   -3319484.93045  -2502469.17461
 91  4 23 20 58 30.0000000  0  6G18G 2G11G16G19G 6
  22220667.977     8956029.404 7   6978705.59522
  22036336.7814   -8291651.12147  -6461001.57062
  23128072.313    -2281803.293 7  -1778010.77021
  23964144.6174   -1463497.33345  -1064604.30461
  21182441.844     1938295.538 7   1510357.84322
  23810694.453    -3345276.792 5  -2522566.65121
 91  4 23 20 58 45.0000000  0  6G18G 2G11G16G19G 6
  22229830.977     9004183.242 7   7016227.95822
  22031781.4224   -8315595.94447  -6479659.80362
  23129788.6414   -2272771.14646  -1770972.72661
  23964752.281    -1460297.322 5  -1062110.87321
  21185045.875     1951973.031 7   1521015.61022
  23805790.1724   -3371063.60445  -2542660.17461
 91  4 23 20 59  0.0000000  0  6G18G 2G11G16G19G 6
  22239011.180     9052419.656 7   7053814.65522
  22027238.2194   -8339463.64247  -6498257.94862
  23131537.891    -2263586.508 6  -1763815.85021
  23965385.1644   -1456965.79145  -1059514.93661
  21187657.344     1965701.413 7   1531713.03122
  23800887.6254   -3396843.86245  -2562748.62361
 91  4 23 20 59 15.0000000  0  6G18G 2G11G16G19G 6
  22248205.047     9100735.338 7   7091463.13022
  22022708.6954   -8363257.24947  -6516798.35762
  23133312.930    -2254252.297 6  -1756542.42421
  23966049.1254   -1453505.86545  -1056818.95761
  21190281.672     1979477.762 7   1542447.82522
  23795975.6484   -3422620.60845  -2582834.32661
 91  4 23 20 59 30.0000000  0  6G18G 2G11G16G19G 6
  22257414.7034    9149129.91047   7129173.07062
  22018196.2274   -8386977.01047  -6535281.22062
  23135117.2504   -2244768.89646  -1749152.75261
  23966729.0864   -1449917.84345  -1054023.17161
  21192911.227     1993301.666 7   1553219.68322
  23791068.758    -3448394.245 5  -2602917.59321
 91  4 23 20 59 45.0000000  0  6G18G 2G11G16G19G 6
  22266640.617     9197606.481 7   7166946.90822
  22013697.8674   -8410619.27547  -6553703.70162
  23136950.227    -2235132.705 6  -1741644.01521
  23967435.164    -1446198.717 5  -1051125.19721
  21195552.852     2007176.946 7   1564031.57122
  23786171.2424   -3474161.13745  -2622995.59261
 91  4 23 21  0  0.0000000  0  6G18G 2G11G16G19G 6
  22275879.7584    9246164.43247   7204784.15362
  22009214.7424   -8434184.51047  -6572066.15762
  23138815.414    -2225344.157 6  -1734016.56221
  23968169.0784   -1442348.77645  -1048125.31061
  21198200.391     2021103.177 7   1574883.16222
  23781268.609    -3499921.829 5  -2643068.76921
 91  4 23 21  0 15.0000000  0  6G18G 2G11G16G19G 6
  22285134.875     9294803.330 7   7242684.47922
  22004744.0634   -8457672.98847  -6590368.80862
  23140706.219    -2215403.396 6  -1726270.50021
  23968931.6174   -1438367.72045  -1045023.23261
  21200862.000     2035080.409 7   1585774.49822
  23776366.1564   -3525676.33845  -2663137.13661
 91  4 23 21  0 30.0000000  0  6G18G 2G11G16G19G 6
  22294407.1954    9343522.34047   7280647.22261
  22000286.5554   -8481085.22847  -6608612.05062
  23142624.734    -2205311.140 6  -1718406.39521
  23969712.0784   -1434256.68145  -1041819.90461
  21203530.883     2049107.854 7   1596704.95922
  23771463.6644   -3551425.55045  -2683201.37261
 91  4 23 21  0 45.0000000  0  6G18G 2G11G16G19G 6
  22303694.203     9392321.879 7   7318672.72522
  21995846.6954   -8504420.56247  -6626795.36762
  23144577.453    -2195066.694 6  -1710423.69421
  23970518.813    -1430014.952 5  -1038514.72721
  21206212.211     2063186.300 7   1607675.15822
  23766566.625    -3577168.767 5  -2703260.94621
 91  4 23 21  1  0.0000000  0  6G18G 2G11G16G19G 6
  22312994.1334    9441198.93747   7356758.62461
  21991421.3524   -8527681.47247  -6644920.68762
  23146554.2974   -2184672.75246  -1702324.51161
  23971352.3674   -1425645.16645  -1035109.75161
  21208897.266     2077313.275 7   1618683.17222
  23761666.3984   -3602908.57845  -2723317.83861
 91  4 23 21  1 15.0000000  0  6G18G 2G11G16G19G 6
  22322310.813     9490159.776 7   7394909.81322
  21987010.4454   -8550861.80647  -6662983.22562
  23148560.0314   -2174123.09146  -1694103.99361
  23972209.453    -1421141.646 5  -1031600.58921
  21211598.695     2091494.977 7   1629733.83222
  23756775.8674   -3628638.80545  -2743367.28061
 91  4 23 21  1 30.0000000  0  6G18G 2G11G16G19G 6
  22331645.0004    9539204.04247   7433126.00962
  21982612.2974   -8573961.43347  -6680982.87662
  23150600.0784   -2163417.69046  -1685762.11761
  23973087.9454   -1416504.34445  -1027987.16461
  21214303.617     2105731.378 7   1640827.11622
  23751878.4144   -3654359.45645  -2763409.26261
 91  4 23 21  1 45.0000000  0  6G18G 2G11G16G19G 6
  22340992.0554    9588329.57147   7471405.51962
  21978232.0784   -8596982.18147  -6698921.05962
  23152664.8914   -2152558.37546  -1677300.30461
  23973994.7424   -1411734.82645  -1024270.71761
  21217024.734     2120020.905 7   1651961.79922
  23746982.336    -3680072.371 5  -2783445.20221
 91  4 23 21  2  0.0000000  0  6G18G 2G11G16G19G 6
  22350356.8284    9637534.03847   7509746.54262
  21973867.7974   -8619926.08947  -6716799.37062
  23154758.8524   -2141547.26646  -1668720.21561
  23974924.9384   -1406835.39745  -1020453.04861
  21219755.820     2134361.501 7   1663136.27222
  23742087.5474   -3705779.74445  -2803476.84461
 91  4 23 21  2 15.0000000  0  6G18G 2G11G16G19G 6
  22359735.5314    9686820.73347   7548151.64362
  21969517.8594   -8642789.97147  -6734615.32162
  23156884.8914   -2130381.11146  -1660019.31061
  23975884.898    -1401802.999 5  -1016531.76921
  21222494.672     2148756.485 7   1674353.12722
  23737202.688    -3731478.263 5  -2823501.56821
 91  4 23 21  2 30.0000000  0  6G18G 2G11G16G19G 6
  22369130.5554    9736192.57747   7586623.08862
  21965180.3364   -8665570.46147  -6752366.29062
  23159039.211    -2119056.549 6  -1651194.96621
  23976868.8364   -1396634.33345  -1012504.30361
  21225244.531     2163209.297 7   1685615.04722
  23732315.7424   -3757164.68045  -2843516.87461
 91  4 23 21  2 45.0000000  0  6G18G 2G11G16G19G 6
  22378541.9384    9785645.40947   7625157.63762
  21960861.2114   -8688271.22647  -6770055.13962
  23161223.2504   -2107577.43846  -1642250.19461
  23977878.7974   -1391333.01645  -1008373.45861
  21228006.141     2177716.214 7   1696919.12422
  23727430.2664   -3782842.64145  -2863525.57161
 91  4 23 21  3  0.0000000  0  6G18G 2G11G16G19G 6
  22387965.8914    9835178.06447   7663754.39762
  21956556.5234   -8710893.41847  -6787682.76262
  23163437.4614   -2095944.86246  -1633185.84661
  23978913.5634   -1385900.75345  -1004140.60961
  21230777.133     2192276.221 7   1708264.56722
  23722542.344    -3808513.357 5  -2883528.64921
 91  4 23 21  3 15.0000000  0  6G18G 2G11G16G19G 6
  22397407.9694    9884789.11947   7702412.23362
  21952266.0704   -8733438.33847  -6805250.17462
  23165682.3914   -2084160.14146  -1624002.93661
  23979971.2424   -1380338.84545   -999806.71561
  21233555.828     2206887.988 7   1719650.34522
  23717657.0394   -3834178.19545  -2903527.11861
 91  4 23 21  3 30.0000000  0  6G18G 2G11G16G19G 6
  22406863.5084    9934477.99447   7741130.72062
  21947988.469    -8755906.074 7  -6822757.44922
  23167951.5944   -2072223.44646  -1614701.60661
  23981057.250    -1374647.303 5   -995371.81121
  21236344.594     2221551.443 7   1731076.39622
  23712776.2274   -3859837.34345  -2923521.16861
 91  4 23 21  3 45.0000000  0  6G18G 2G11G16G19G 6
  22416333.4454    9984246.25847   7779911.05962
  21943730.063    -8778294.849 7  -6840203.19322
  23170253.7894   -2060132.92847  -1605280.41061
  23982164.5784   -1368824.74345   -990834.80361
  21239148.867     2236268.528 7   1742544.24322
  23707894.656    -3885488.905 5  -2943509.32521
 91  4 23 21  4  0.0000000  0  6G18G 2G11G16G19G 6
  22425820.2584   10034094.38847   7818753.64262
  21939484.867    -8800603.821 7  -6857586.75322
  23172582.438    -2047888.152 6  -1595739.01421
  23983297.367    -1362870.451 5   -986195.16321
  21241956.859     2251039.941 7   1754054.41922
  23703011.4384   -3911132.45745  -2963491.22761
 91  4 23 21  4 15.0000000  0  6G18G 2G11G16G19G 6
  22435321.234    10084022.528 7   7857658.55922
  21935254.383    -8822832.609 7  -6874907.83022
  23174943.8364   -2035488.59046  -1586077.01261
  23984451.969    -1356783.930 5   -981452.47421
  21244781.227     2265866.093 7   1765607.24922
  23698137.0084   -3936767.51445  -2983466.50461
 91  4 23 21  4 30.0000000  0  6G18G 2G11G16G19G 6
  22444837.2664   10134028.57747   7896624.19362
  21931040.0474   -8844983.03347  -6892167.84362
  23177330.852    -2022936.030 6  -1576295.78221
  23985640.688    -1350567.395 5   -976608.50421
  21247611.906     2280745.491 7   1777201.57222
  23693261.6484   -3962395.78845  -3003436.49761
 91  4 23 21  4 45.0000000  0  6G18G 2G11G16G19G 6
  22454368.4534   10184113.60346   7935651.36962
  21926839.5314   -8867053.76147  -6909365.75762
  23179749.227    -2010229.159 6  -1566394.31421
  23986846.992    -1344219.408 5   -971662.09021
  21250452.594     2295679.422 7   1788838.38322
  23688386.4534   -3988015.94845  -3023400.17761
 91  4 23 21  5  0.0000000  0  6G18G 2G11G16G19G 6
  22463914.1024   10234277.97646   7974740.36462
  21922655.023    -8889044.229 7  -6926501.13022
  23182198.219    -1997367.592 7  -1556372.30021
  23988082.1724   -1337739.43545   -966612.84261
  21253306.656     2310668.457 7   1800518.13422
  23683509.328    -4013627.605 5  -3043357.20921
 91  4 23 21  5 15.0000000  0  6G18G 2G11G16G19G 6
  22473473.6564   10284517.65546   8013888.04362
  21918484.289    -8910958.190 7  -6943576.88922
  23184671.727    -1984355.084 6  -1546232.67021
  23989334.406    -1331131.550 5   -961463.88421
  21256169.039     2325708.952 7   1812237.98622
  23678639.813    -4039234.393 5  -3063310.46921
 91  4 23 21  5 30.0000000  0  6G18G 2G11G16G19G 6
  22483049.9924   10334835.01346   8053096.25061
  21914329.5004   -8932793.26447  -6960591.17662
  23187179.547    -1971189.315 7  -1535973.61321
  23990614.7034   -1324393.36645   -956213.41961
  21259039.781     2340803.270 7   1823999.77922
  23673769.172    -4064834.087 5  -3083258.19221
 91  4 23 21  5 45.0000000  0  6G18G 2G11G16G19G 6
  22492639.7274   10385227.93546   8092363.34161
  21910189.781    -8954550.987 7  -6977545.18922
  23189713.508    -1957872.039 7  -1525596.49821
  23991924.859    -1317526.616 5   -950862.76021
  21261921.617     2355949.724 7   1835802.19422
  23668896.0234   -4090428.33145  -3103201.65761
 91  4 23 21  6  0.0000000  0  6G18G 2G11G16G19G 6
  22502243.9614   10435698.93846   8131691.27261
  21906064.3524   -8976228.62747  -6994436.79962
  23192277.766    -1944400.405 7  -1515099.10521
  23993253.4304   -1310528.72145   -945409.93261
  21264813.180     2371151.443 7   1847647.67122
  23664024.430    -4116014.201 5  -3123138.61621
 91  4 23 21  6 15.0000000  0  6G18G 2G11G16G19G 6
  22511862.3284   10486246.80946   8171079.09461
  21901955.7894   -8997827.24647  -7011266.83062
  23194870.711    -1930775.642 7  -1504482.38921
  23994612.969    -1303400.710 5   -939855.66821
  21267717.188     2386407.219 7   1859535.26922
  23659155.5784   -4141592.98045  -3143070.03661
 91  4 23 21  6 30.0000000  0  6G18G 2G11G16G19G 6
  22521496.055    10536871.878 6   8210527.08721
  21897859.9534   -9019346.09647  -7028034.70762
  23197489.9924   -1916997.16146  -1493745.90161
  23995997.016    -1296142.297 5   -934199.83921
  21270632.461     2401717.749 7   1871465.53522
  23654293.3204   -4167164.04545  -3162995.45361
 91  4 23 21  6 45.0000000  0  6G18G 2G11G16G19G 6
  22531144.8914   10587574.34946   8250035.37261
  21893779.0554   -9040784.68947  -7044740.04762
  23200143.055    -1903064.355 6  -1482889.15621
  23997404.211    -1288752.970 5   -928441.95721
  21273553.859     2417083.780 7   1883439.04622
  23649428.734    -4192726.801 5  -3182914.39521
 91  4 23 21  7  0.0000000  0  6G18G 2G11G16G19G 6
  22540806.3524   10638351.26046   8289601.67061
  21889714.5634   -9062146.13347  -7061385.26462
  23202824.305    -1888980.184 7  -1471914.45921
  23998830.2114   -1281235.83345   -922584.52361
  21276485.547     2432502.337 7   1895453.49122
  23644567.742    -4218284.124 5  -3202829.09821
 91  4 23 21  7 15.0000000  0  6G18G 2G11G16G19G 6
  22550485.0084   10689209.27146   8329231.16861
  21885664.3914   -9083423.40947  -7077964.90062
  23205532.7974   -1874737.76546  -1460816.46561
  24000288.969    -1273583.979 5   -916622.07721
  21279435.563     2447980.585 7   1907514.44222
  23639707.8444   -4243829.14445  -3222734.22061
 91  4 23 21  7 30.0000000  0  5G18G 2G11G19G 6
  22560177.680    10740144.723 6   8368921.00021
  21881631.6254   -9104619.65847  -7094481.39862
  23208270.805    -1860340.481 6  -1449597.78921
  21282390.195     2463515.358 7   1919619.43822
  23634842.9844   -4269365.14545  -3242632.31061
 91  4 23 21  7 45.0000000  0  6G18G 2G11G16G19G 6
  22569885.234    10791157.152 6   8408670.81121
  21877614.5554   -9125735.10147  -7110934.93462
  23211041.9224   -1845788.60846  -1438258.65761
  24003272.4534         -0.48655
  21285357.844     2479106.417 7   1931768.29622
  23629986.7344   -4294892.43945  -3262523.61361
 91  4 23 21  8  0.0000000  0  6G18G 2G11G16G19G 6
  22579607.7034   10842247.68546   8448481.49661
  21873611.7974   -9146768.22247  -7127324.32062
  23213839.2504   -1831080.75046  -1426797.98561
  24004806.1954       8046.09545
  21288333.875     2494755.404 7   1943962.28722
  23625126.2424   -4320409.45245  -3282406.90261
 91  4 23 21  8 15.0000000  0  6G18G 2G11G16G19G 6
  22589344.789    10893414.275 6   8488351.43721
  21869623.7664   -9167721.11747  -7143651.19362
  23216667.8914   -1816218.98946  -1415217.38161
  24006356.805       16222.716 5
  21291323.563     2510460.331 7   1956199.87322
  23620274.211    -4345918.280 5  -3302283.81021
 91  4 23 21  8 30.0000000  0  6G18G 2G11G16G19G 6
  22599095.3054   10944658.39146   8528281.78761
  21865652.3364   -9188591.83147  -7159914.02962
  23219525.0004   -1801201.58746  -1403515.49861
  24007943.375       24531.464 5        -0.19831
  21294322.836     2526223.058 7   1968482.49822
  23615422.4844   -4371417.15245  -3322152.96761
 91  4 23 21  8 45.0000000  0  6G18G 2G11G16G19G 6
  22608860.969    10995974.700 6   8568268.39221
  21861695.6644   -9209385.60747  -7176116.91262
  23222412.352    -1786033.703 6  -1391696.35621
  24009548.8754      32966.61645      6572.60761
  21297334.695     2542038.440 7   1980806.15222
  23610569.422    -4396911.170 5  -3342018.33121
 91  4 23 21  9  0.0000000  0  6G18G 2G11G16G19G 6
  22618639.664    11047364.118 6   8608311.95621
  21857753.3204   -9230100.99347  -7192258.71362
  23225325.234    -1770714.068 6  -1379758.96621
  24011176.055       41529.428 5     13244.87321
  21300351.719     2557907.872 7   1993171.92222
  23605721.133    -4422399.000 5  -3361878.87421
 91  4 23 21  9 15.0000000  0  6G18G 2G11G16G19G 6
  22628434.1414   11098825.85446   8648411.88861
  21853825.531    -9250738.920 7  -7208340.15822
  23228271.6724   -1755243.53646  -1367704.00061
  24012833.7114      50219.24945     20016.10761
  21303384.055     2573830.614 7   2005579.23222
  23600874.508    -4447881.416 5  -3381735.20421
 91  4 23 21  9 30.0000000  0  6G18G 2G11G16G19G 6
  22638241.539    11150363.333 6   8688570.83021
  21849913.0084   -9271295.42447  -7224358.14962
  23231244.5164   -1739618.11546  -1355528.34261
  24014512.8444      59039.56645     26889.00461
  21306422.313     2589810.589 7   2018031.14422
  23596031.984    -4473354.597 5  -3401584.32721
 91  4 23 21  9 45.0000000  0  6G18G 2G11G16G19G 6
  22648061.289    11201974.362 6   8728787.08321
  21846016.6804   -9291772.48547  -7240314.24562
  23234247.9924   -1723839.99346  -1343233.70061
  24016215.664       67988.368 5     33862.06521
  21309475.391     2605846.096 7   2030526.32222
  23591183.266    -4498820.456 5  -3421427.75921
 91  4 23 21 10  0.0000000  0  6G18G 2G11G16G19G 6
  22657897.5234   11253659.09746   8769060.77461
  21842136.2974   -9312169.72847  -7256208.14262
  23237278.9694   -1707908.91547  -1330819.86961
  24017934.719       77065.933 5     40935.43021
  21312537.227     2621937.519 7   2043065.07522
  23586334.539    -4524278.891 5  -3441265.39921
 91  4 23 21 10 15.0000000  0  6G18G 2G11G16G19G 6
  22667746.750    11305415.617 6   8809390.39621
  21838269.3984   -9332488.52547  -7272040.91162
  23240337.664    -1691826.346 6
  24019693.172       86270.729 5     48107.94521
  21315613.195     2638083.453 7
  23581492.969    -4549731.055 5  -3461098.15121
 91  4 23 21 10 30.0000000  0  6G18G 2G11G16G19G 6
  22677609.3134   11357244.47646   8849776.37061
  21834417.9924   -9352728.32747  -7287812.12262
  23243426.7034   -1675591.80146
  24021470.523       95602.934 5     55379.73521
  21318692.633     2654284.396 7
  23576648.1484   -4575176.57945  -3480925.71461
 91  4 23 21 10 45.0000000  0  6G18G 2G11G16G19G 6
  22687486.1094   11409147.47646   8890220.13861
  21830582.5314   -9372887.07147  -7303520.17662
  23246547.4144   -1659203.27646  -1292867.40761
  24023266.422      105064.939 5     62752.64821
  21321786.688     2670542.765 7   2080939.23722
  23571808.3364   -4600613.31545  -3500746.45861
 91  4 23 21 11  0.0000000  0  6G18G 2G11G16G19G 6
  22697374.656    11461118.472 6   8930716.88321
  21826758.9694   -9392970.67347  -7319169.67762
  23249694.3754   -1642666.74246  -1279981.79061
  24025092.297      114650.497 5     70221.86221
  21324887.578     2686852.824 7   2093648.35322
  23566969.7114   -4626047.15145  -3520564.93461
 91  4 23 21 11 15.0000000  0  6G18G 2G11G16G19G 6
  22707278.8984   11513160.35946   8971268.85661
  21822952.4534   -9412975.89947  -7334758.10462
  23252871.188    -1625979.196 6  -1266978.48921
  24026944.156      124362.364 5     77789.47021
  21328004.297     2703217.654 7   2106400.15522
  23562127.492    -4651474.965 5  -3540378.71121
 91  4 23 21 11 30.0000000  0  6G18G 2G11G16G19G 6
  22717196.461    11565274.210 6   9011876.91721
  21819160.6174   -9432901.63447  -7350284.59562
  23256072.7114   -1609139.49346  -1253856.64761
  24028814.0784     134201.50545     85456.26061
  21331130.992     2719638.476 7   2119195.57622
  23557294.0634   -4676895.62945  -3560186.92561
 91  4 23 21 11 45.0000000  0  6G18G 2G11G16G19G 6
  22727125.883    11617457.962 6   9052539.45021
  21815383.5084   -9452749.56847  -7365750.45762
  23259306.0314   -1592149.29346  -1240617.52761
  24030711.711      144166.585 5     93221.20621
  21334265.297     2736113.571 7   2132033.29322
  23552455.2504   -4702310.77445  -3579990.84361
 91  4 23 21 12  0.0000000  0  6G18G 2G11G16G19G 6
  22737069.5864   11669711.55446   9093256.38361
  21811621.6254   -9472519.56047  -7381155.58862
  23262568.8054   -1575008.58846  -1227261.13361
  24032623.6484     154257.60745    101084.26661
  21337406.477     2752643.229 7   2144913.53022
  23547620.7344   -4727720.20045  -3599790.29961
 91  4 23 21 12 15.0000000  0  6G18G 2G11G16G19G 6
  22747026.969    11722032.553 6   9134025.85021
  21807874.9064   -9492213.43847  -7396501.40863
  23265857.3364   -1557719.38146  -1213789.02161
  24034576.8364     164472.04945    109043.50461
  21340567.336     2769225.492 7   2157834.76122
  23542790.4224   -4753125.89245  -3619586.84461
 91  4 23 21 12 30.0000000  0  6G18G 2G11G16G19G 6
  22756995.367    11774418.538 6   9174845.96421
  21804141.0944   -9511833.62847  -7411789.81262
  23269177.2814   -1540284.05246  -1200203.05561
  24036537.398      174807.648 5    117097.13721
  21343729.625     2785858.287 7   2170795.35922
  23537955.508    -4778530.238 5  -3639382.35021
 91  4 23 21 12 45.0000000  0  6G18G 2G11G16G19G 6
  22766978.7974   11826876.32246   9215722.00661
  21800422.6644   -9531373.19647  -7427015.38562
  23272521.7504   -1522695.79646  -1186497.92961
  24038525.500      185271.307 5    125250.57121
  21346907.938     2802548.614 7   2183800.79022
  23533119.266    -4803926.209 5  -3659171.32621
 91  4 23 21 13  0.0000000  0  6G18G 2G11G16G19G 6
  22776973.508    11879403.486 6   9256652.13621
  21796719.6254   -9550834.14347  -7442179.70162
  23275898.6334   -1504956.79646  -1172675.33461
  24040548.3204     195860.68845    133501.96161
  21350093.180     2819294.468 7   2196849.49122
  23528286.7814   -4829315.88945  -3678955.39361
 91  4 23 21 13 15.0000000  0  6G18G 2G11G16G19G 6
  22786981.328    11932000.971 6   9297637.04021
  21793031.5554   -9570215.20447  -7457281.76662
  23279303.5634   -1487065.78346  -1158734.28861
  24042585.258      206577.193 5    141852.41921
  21353291.602     2836097.381 7   2209942.65422
  23523456.7894   -4854697.98645  -3698733.56361
 91  4 23 21 13 30.0000000  0  6G18G 2G11G16G19G 6
  22797004.758    11984663.303 6   9338672.48021
  21789358.5314   -9589521.60147  -7472325.65463
  23282735.8594   -1469028.21146  -1144679.03661
  24044642.7734     217415.12645    150297.48961
  21356496.688     2852952.081 7   2223076.16822
  23518627.813    -4880077.770 5  -3718509.93721
 91  4 23 21 13 45.0000000  0  6G18G 2G11G16G19G 6
  22807038.063    12037393.172 6   9379760.55921
  21785698.2424   -9608750.61147  -7487309.24162
  23286195.1724   -1450841.45046  -1130507.53861
  24046734.227      228376.997 5    158839.13221
  21359718.453     2869861.289 7   2236252.15822
  23513798.641    -4905452.529 5  -3738282.39921
 91  4 23 21 14  0.0000000  0  6G18G 2G11G16G19G 6
  22817086.289    12090192.643 6   9420902.86521
  21782052.859    -9627899.694 7  -7502230.55123
  23289686.3204   -1432502.91246  -1116217.77561
  24048841.3754     239465.18245    167479.20461
  21362942.828     2886827.601 7   2249472.64422
  23508968.5394   -4930819.70845  -3758048.94861
 91  4 23 21 14 15.0000000  0  5G18G 2G11G19G 6
  22827148.039    12143061.229 6   9462099.02121
  21778426.203    -9646968.937 7  -7517089.64423
  23293203.8834   -1414012.93546  -1101810.01361
  21366185.633     2903850.926 7   2262737.54522
  23504144.4614   -4956179.59545  -3777809.79761
 91  4 23 21 14 30.0000000  0  6G18G 2G11G16G19G 6
  22837219.773    12195998.682 6   9503348.84721
  21774812.8674   -9665958.44447  -7531886.60663
  23296750.430    -1395371.678 6  -1087284.36821
  24053131.953          -0.33415
  21369436.836     2920931.188 7   2276046.82122
  23499320.852    -4981532.127 5  -3797564.94321
 91  4 23 21 14 45.0000000  0  6G18G 2G11G16G19G 6
  22847306.930    12249005.040 6   9544652.35521
  21771212.391    -9684867.906 7  -7546621.19622
  23300329.1724   -1376578.91346  -1072640.66461
  24055317.133       11465.875 5
  21372695.234     2938068.959 7   2289400.90922
  23494496.719    -5006877.002 5  -3817314.10121
 91  4 23 21 15  0.0000000  0  6G18G 2G11G16G19G 6
  22857407.688    12302080.598 6   9586009.79421
  21767629.773    -9703696.876 7  -7561293.06222
  23303932.5164   -1357634.25646  -1057878.60661
  24057521.2734      23058.59845        -0.13071
  21375967.281     2955264.811 7   2302800.25222
  23489679.242    -5032213.649 5  -3837056.86621
 91  4 23 21 15 15.0000000  0  6G18G 2G11G16G19G 6
  22867520.039    12355222.202 6   9627418.68821
  21764061.7664   -9722448.27247  -7575904.48662
  23307567.4844   -1338540.83146  -1043000.62461
  24059753.852       34774.474 5      9129.03721
  21379250.281     2972515.798 7   2316242.55522
  23484856.0704   -5057545.13845  -3856795.60461
 91  4 23 21 15 30.0000000  0  6G18G 2G11G16G19G 6
  22877645.3444   12408429.90246   9668879.08861
  21760508.570    -9741121.641 7  -7590455.11222
  23311231.3204   -1319298.22447  -1028006.38961
  24062008.3674      46614.02345     18354.59161
  21382544.797     2989822.409 7   2329728.20422
  23480035.852    -5082870.965 5  -3876529.93921
 91  4 23 21 15 45.0000000  0  6G18G 2G11G16G19G 6
  22887783.039    12461705.536 6   9710392.43621
  21756970.125    -9759715.092 7  -7604943.46222
  23314917.211    -1299904.524 6  -1012894.43121
  24064281.6724      58579.02145     27677.90861
  21385850.5864    3007186.76547   2343258.84662
  23475220.938    -5108189.083 5  -3896258.26521
 91  4 23 21 16  0.0000000  0  6G18G 2G11G16G19G 6
  22897933.4534   12515044.31646   9751954.97361
  21753446.117    -9778233.051 7  -7619372.99422
  23318636.7344   -1280364.37146   -997668.34361
  24066581.891       70664.759 5     37095.26121
  21389159.805     3024604.449 7   2356831.04722
  23470402.055    -5133504.059 5  -3915984.15721
 91  4 23 21 16 15.0010000  0  6G18G 2G11G16G19G 6
  22908094.833    12568448.236 6   9793568.27321
  21749936.497    -9796677.999 7  -7633745.63422
  23322383.8174   -1260677.82046   -982328.18161
  24068903.833       82870.417 5     46606.10321
  21392489.396     3042075.261 7   2370444.64622
  23465589.8024   -5158818.93246  -3935709.95661
 91  4 23 21 16 30.0010000  0  6G18G 2G11G16G19G 6
  22918269.8334   12621909.49946   9835226.25661
  21746439.817    -9815048.028 7  -7648059.89722
  23326158.6224   -1240848.21546   -966876.55061
  24071250.450       95193.771 5     56208.62221
  21395820.7314    3059596.56847   2384097.58262
  23460767.106    -5184130.713 5  -3955433.34521
 91  4 23 21 16 45.0010000  0  6G18G 2G11G16G19G 6
  22928454.3334   12675434.34046   9876933.77661
  21742959.341    -9833341.394 7  -7662314.41922
  23329957.9114   -1220871.35646   -951310.17261
  24073616.4274     107638.56345     65905.76961
  21399167.411     3077172.621 7   2397793.18122
  23455953.4504   -5209438.15145  -3975153.35861
 91  4 23 21 17  0.0010000  0  6G18G 2G11G16G19G 6
  22938651.1774   12729021.38846   9918689.77361
  21739492.981    -9851558.979 7  -7676509.89122
  23333789.7864   -1200748.15446   -935629.76661
  24076010.614      120203.556 5     75696.59521
  21402521.9744    3094802.50147   2411530.72162
  23451134.497    -5234742.125 5  -3994870.65321
 91  4 23 21 17 15.0010000  0  6G18G 2G11G16G19G 6
  22948861.5284   12782670.39346   9960494.04861
  21736039.677    -9869701.005 7  -7690646.48523
  23337646.1924   -1180478.83946   -919835.50261
  24078425.6854     132888.56645     85580.92461
  21405888.4664    3112486.34447   2425310.31062
  23446323.2244   -5260042.73145  -4014585.34961
 91  4 23 21 17 30.0010000  0  6G18G 2G11G16G19G 6
  22959082.9034   12836382.49146  10002347.47261
  21732603.380    -9887766.121 7  -7704723.14823
  23341529.599    -1160062.263 6   -903926.50121
  24080858.224      145694.980 5     95559.87121
  21409263.419     3130225.580 7   2439133.06322
  23441507.692    -5285338.653 5  -4034296.39321
 91  4 23 21 17 45.0010000  0  6G18G 2G11G16G19G 6
  22969316.364    12890156.753 6  10044249.35621
  21729179.739    -9905754.986 7  -7718740.39823
  23345445.5054   -1139499.20746   -887903.34661
  24083322.2164     158621.92345    105632.71861
  21412648.6064    3148019.55547   2452998.47462
  23436695.7714   -5310630.53545  -4054004.28761
 91  4 23 21 18  0.0010000  0  6G18G 2G11G16G19G 6
  22979560.1224   12943992.83546  10086199.40661
  21725770.364    -9923667.594 7  -7732698.22223
  23349385.739    -1118789.831 6   -871766.18521
  24085802.778      171668.657 5    115798.90621
  21416041.4584    3165868.13347   2466906.42562
  23431884.9744   -5335918.45145  -4073709.08661
 91  4 23 21 18 15.0010000  0  6G18G 2G11G16G19G 6
  22989817.5604   12997891.59646  10128198.28561
  21722375.786    -9941502.758 7  -7746595.70922
  23353354.442    -1097933.022 6   -855514.14121
  24088308.5134     184836.57745    126059.55361
  21419451.4424    3183772.67847   2480857.99162
  23427072.2474   -5361201.17545  -4093409.84861
 91  4 23 21 18 30.0010000  0  6G18G 2G11G16G19G 6
  23000086.7944   13051852.16046  10170245.33161
  21718997.052    -9959261.261 7  -7760433.45223
  23357351.810    -1076929.623 6   -839147.87021
  24090842.364      198124.606 5    136413.76921
  21422869.4664    3201732.62347   2494852.72662
  23422258.9664   -5386479.46145  -4113107.15361
 91  4 23 21 18 45.0010000  0  6G18G 2G11G16G19G 6
  23010367.481    13105875.930 6  10212341.62021
  21715632.317    -9976941.503 7  -7774210.21623
  23361375.8494   -1055778.16546   -822666.22861
  24093391.4584     211534.36545    146862.84161
  21426296.2944    3219749.56147   2508891.86462
  23417454.927    -5411751.566 5  -4132799.63421
 91  4 23 21 19  0.0010000  0  6G18G 2G11G16G19G 6
  23020658.5914   13159956.68246  10254482.31861
  21712282.450    -9994549.177 7  -7787930.43323
  23365426.935    -1034484.540 6   -806073.81021
  24095966.708      225059.884 5    157402.12921
  21429738.0674    3237817.82847   2522971.00262
  23412645.5134   -5437023.38845  -4152491.90561
 91  4 23 21 19 15.0010000  0  6G18G 2G11G16G19G 6
  23030959.2714   13214092.73646  10296666.09961
  21708944.513   -10012085.675 7  -7801595.18923
  23369505.606    -1013050.143 6   -789371.69621
  24098560.044      238699.803 5    168030.53621
  21433185.5284    3255936.31847   2537089.28062
  23407830.9194   -5462296.10245  -4172184.86261
 91  4 23 21 19 30.0010000  0  6G18G 2G11G16G19G 6
  23041272.4744   13268286.55546  10338894.89861
  21705621.067   -10029548.468 7  -7815202.51323
  23373609.677     -991472.533 6   -772557.99721
  24101178.4274     252456.19745    178749.71761
  21436640.3494    3274107.40547   2551248.53662
  23403026.2714   -5487567.26345  -4191876.60561
 91  4 23 21 19 45.0010000  0  6G18G 2G11G16G19G 6
  23051595.7864   13322541.41946  10381171.26161
  21702312.810   -10046934.035 7  -7828749.65423
  23377744.091     -969748.390 6   -755630.10421
  24103818.989      266332.450 5    189562.29721
  21440112.5834    3292334.67647   2565451.57162
  23398217.2394   -5512833.35545  -4211564.40661
 91  4 23 21 20  0.0010000  0  6G18G 2G11G16G19G 6
  23061934.6464   13376860.63346  10423497.76661
  21699019.536   -10064238.785 7  -7842233.82823
  23381908.450     -947874.119 6   -738585.24421
  24106480.341      280332.069 5    200471.01021
  21443588.5754    3310622.08547   2579701.47262
  23393415.1614   -5538090.61846  -4231245.32161
 91  4 23 21 20 15.0010000  0  6G18G 2G11G16G19G 6
  23072281.3174   13431239.98646  10465871.13861
  21695742.067   -10081466.989 7  -7855658.35723
  23386098.896     -925854.206 6   -721426.89521
  24109169.7164     294450.49245    211472.30061
  21447082.3024    3328965.37947   2593994.91962
  23388607.614    -5563343.319 6  -4250922.69521
 91  4 23 21 20 30.0010000  0  6G18G 2G11G16G19G 6
  23082640.521    13485679.172 6  10508291.11821
  21692477.114   -10098618.213 7  -7869022.89423
  23390317.567     -903688.332 6   -704154.80421
  24111877.247      308688.010 5    222566.37221
  21450580.7084    3347365.01847   2608332.27162
  23383804.0524   -5588591.16246  -4270596.27761
 91  4 23 21 20 45.0010000  0  6G18G 2G11G16G19G 6
  23093010.528    13540175.038 6  10550755.28021
  21689228.567   -10115695.407 7  -7882329.74923
  23394562.325     -881379.631 6   -686771.42421
  24114603.7714     323041.61145    233750.92261
  21454095.7554    3365818.08247   2622711.24962
  23378997.739    -5613836.910 6  -4290268.20721
 91  4 23 21 21  0.0010000  0  6G18G 2G11G16G19G 6
  23103392.2864   13594730.47646  10593265.85561
  21685994.872   -10132695.583 7  -7895576.58823
  23398834.950     -858925.323 6   -669274.57321
  24117359.747      337514.173 5    245028.14821
  21457614.6614    3384327.66147   2637134.26962
  23374195.2784   -5639077.62346  -4309936.22961
 91  4 23 21 21 15.0010000  0  6G18G 2G11G16G19G 6
  23113785.021    13649341.023 6  10635819.35321
  21682773.146   -10149622.887 7  -7908766.64823
  23403134.349     -836329.714 6   -651667.63021
  24120137.794      352101.232 5    256394.63321
  21461150.013     3402889.718 7   2651598.18522
  23369390.7084   -5664317.46745  -4329603.57361
 91  4 23 21 21 30.0010000  0  6G18G 2G11G16G19G 6
  23124188.0754   13704009.71746  10678418.19861
  21679567.161   -10166473.907 7  -7921897.26223
  23407463.036     -813589.451 6   -633947.96421
  24122935.864      366805.758 5    267852.59421
  21464690.1224    3421507.76247   2666105.72462
  23364585.8104   -5689553.09245  -4349267.63261
 91  4 23 21 21 45.0010000  0  6G18G 2G11G16G19G 6
  23134603.138    13758736.093 6  10721061.95721
  21676373.271   -10183249.039 7  -7934968.74423
  23411818.271     -790704.930 6   -616115.89821
  24125758.8964     381627.65445    279402.05561
  21468246.247     3440181.592 7   2680656.73722
  23359787.927    -5714784.572 5  -4368928.45521
 91  4 23 21 22  0.0010000  0  6G18G 2G11G16G19G 6
  23145026.6304   13813519.06846  10763749.83361
  21673195.997   -10199949.067 7  -7947981.70023
  23416197.966     -767677.086 6   -598172.14321
  24128602.3104     396566.12245    291042.32161
  21471807.802     3458910.572 7   2695250.72122
  23354983.3334   -5740012.74445  -4388586.71061
 91  4 23 21 22 15.0010000  0  6G18G 2G11G16G19G 6
  23155463.247    13868357.960 6  10806481.27821
  21670030.810   -10216574.361 7  -7960936.42223
  23420607.208     -744506.339 6   -580117.03721
  24131469.2004     411620.25745    302772.72961
  21475385.896     3477694.395 7   2709887.44422
  23350186.349    -5765238.029 6  -4408242.69821
 91  4 23 21 22 30.0010000  0  6G18G 2G11G16G19G 6
  23165911.060    13923254.531 6  10849257.66921
  21666882.356   -10233123.230 7  -7973831.59523
  23425045.278     -721191.106 6   -561949.34921
  24134353.606      426791.463 5    314594.34821
  21478968.981     3496534.869 7   2724568.31322
  23345385.106    -5790458.593 6  -4427895.00121
 91  4 23 21 22 45.0010000  0  6G18G 2G11G16G19G 6
  23176368.396    13978212.914 6  10892082.22621
  21663747.521   -10249591.108 7  -7986663.65723
  23429507.763     -697727.025 6   -543665.66921
  24137263.536      442083.954 5    326510.48721
  21482567.130     3515436.655 7   2739296.95822
  23340587.5444   -5815669.89046  -4447540.10161
 91  4 23 21 23  0.0010000  0  6G18G 2G11G16G19G 6
  23186839.966    14033233.332 6  10934955.10521
  21660630.872   -10265977.284 7  -7999432.05123
  23434002.091     -674113.588 6   -525265.60721
  24140194.075      457498.390 5    338521.65421
  21486173.763     3534400.399 7   2754073.88522
  23335793.278    -5840871.235 6  -4467177.42821
 91  4 23 21 23 15.0010000  0  6G18G 2G11G16G19G 6
  23197319.7944   14088314.42146  10977875.28861
  21657527.356   -10282282.895 7  -8012137.67123
  23438524.685     -650352.293 6   -506750.33521
  24143153.903      473033.739 5    350627.02021
  21489796.841     3553424.830 7   2768898.10322
  23331000.7864   -5866063.87946  -4486807.98761
 91  4 23 21 23 30.0010000  0  6G18G 2G11G16G19G 6
  23207811.599    14143450.303 6  11020838.13921
  21654438.731   -10298513.578 7  -8024784.90623
  23443072.271     -626448.763 6   -488124.22621
  24146129.3564     488683.99245    362821.93861
  21493422.942     3572504.750 7   2783765.55422
  23326204.106    -5891253.263 6  -4506436.00921
 91  4 23 21 23 45.0010000  0  6G18G 2G11G16G19G 6
  23218315.419    14198645.227 6  11063847.00921
  21651363.372   -10314665.067 7  -8037370.43223
  23447650.677     -602398.825 6   -469384.04021
  24149130.5284     504453.05145    375109.41861
  21497068.052     3591644.287 7   2798679.46722
  23321409.5444   -5916435.04346  -4526058.09061
 91  4 23 21 24  0.0010000  0  6G18G 2G11G16G19G 6
  23228830.2554   14253896.61946  11106899.88761
  21648306.005   -10330739.556 7  -8049895.96223
  23452255.271     -578204.610 6   -450531.42321
  24152160.7394     520338.83545    387487.84761
  21500719.489     3610841.512 7   2813638.32622
  23316621.036    -5941611.275 6  -4545675.84821
 91  4 23 21 24 15.0010000  0  6G18G 2G11G16G19G 6
  23239354.646    14309204.530 6  11149996.79021
  21645261.341   -10346736.566 7  -8062361.11423
  23456884.435     -553865.987 6   -431566.28121
  24155198.6924     536341.62945    399957.49061
  21504387.560     3630096.991 7   2828642.57722
  23311834.583    -5966781.547 6  -4565288.97121
 91  4 23 21 24 30.0010000  0  6G18G 2G11G16G19G 6
  23249890.591    14364570.569 6  11193138.99121
  21642233.380   -10362654.469 7  -8074764.62323
  23461546.349     -529381.465 6   -412487.44921
  24158267.8644     552462.49445    412519.08961
  21508059.427     3649412.432 7   2843693.55322
  23307046.216    -5991944.318 6  -4584896.24121
 91  4 23 21 24 45.0010000  0  6G18G 2G11G16G19G 6
  23260437.8644   14419994.06746  11236325.98161
  21639218.825   -10378493.632 7  -8087106.78223
  23466230.536     -504751.638 6   -393295.39721
  24161360.6224     568701.03145    425172.41361
  21511747.4504    3668787.42047   2858790.93362
  23302251.849    -6017099.893 6  -4604497.91021
 91  4 23 21 25  0.0010000  0  6G18G 2G11G16G19G 6
  23270994.528    14475473.134 6  11279556.25621
  21636219.411   -10394255.743 7  -8099388.89123
  23470945.411     -479978.132 6   -373991.38421
  24164475.450      585055.753 5    437916.25621
  21515443.896     3688220.549 7   2873933.61522
  23297469.942    -6042249.682 6  -4624095.06421
 91  4 23 21 25 15.0010000  0  6G18G 2G11G16G19G 6
  23281562.802    14531008.331 6  11322830.26021
  21633232.966   -10409939.811 7  -8111610.19023
  23475687.7554    -455060.15146   -354574.79261
  24167609.2554     601527.25645    450751.12961
  21519153.763     3707712.733 7   2889122.31522
  23292687.067    -6067392.830 6  -4643687.03621
 91  4 23 21 25 30.0010000  0  6G18G 2G11G16G19G 6
  23292142.8024   14586596.36546  11366145.45661
  21630261.864   -10425549.100 7  -8123773.22423
  23480458.880     -430001.106 6   -335048.27821
  24170762.6614     618112.10245    463674.27861
  21522873.942     3727261.123 7   2904354.81622
  23287904.8024   -6092532.40646  -4663276.23261
 91  4 23 21 25 45.0010000  0  6G18G 2G11G16G19G 6
  23302729.7314   14642236.96446  11409501.59361
  21627307.044   -10441083.428 7  -8135877.84423
  23485252.810     -404801.031 6   -315411.87721
  24173936.6694     634809.97845    476685.52661
  21526606.372     3746865.748 7   2919631.13422
  23283122.021    -6117668.220 6  -4682862.50021
 91  4 23 21 26  0.0010000  0  6G18G 2G11G16G19G 6
  23313328.739    14697930.453 6  11452898.97721
  21624367.997   -10456542.538 7  -8147923.85623
  23490074.872     -379459.826 6   -295665.49121
  24177135.5604     651621.09945    489785.01761
  21530345.208     3766527.067 7   2934951.62222
  23278332.6924   -6142800.04246  -4702445.64261
 91  4 23 21 26 15.0010000  0  6G18G 2G11G16G19G 6
  23323935.8104   14753673.44046  11496334.89161
  21621438.427   -10471929.622 7  -8159913.74223
  23494921.5754    -353980.70146   -275811.64461
  24180361.161      668542.561 5    502970.48121
  21534097.9194    3786242.00847   2950313.90062
  23273551.794    -6167930.948 6  -4722028.08521
 91  4 23 21 26 30.0010000  0  6G18G 2G11G16G19G 6
  23334552.474    14809468.020 6  11539811.01821
  21618524.263   -10487241.899 7  -8171845.34223
  23499796.9424    -328361.14546   -255848.36661
  24183606.9034     685576.32645    516243.43561
  21537858.896     3806013.316 7   2965720.09822
  23268773.450    -6193058.217 6  -4741607.68121
 91  4 23 21 26 45.0010000  0  6G18G 2G11G16G19G 6
  23345180.044    14865313.279 6  11583326.63221
  21615624.669   -10502480.201 7  -8183719.29123
  23504699.653     -302602.168 6   -235776.44421
  24186863.974      702721.475 5    529603.21021
  21541636.302     3825840.397 7   2981169.75222
  23263990.099    -6218182.591 6  -4761185.03121
 91  4 23 21 27  0.0010000  0  6G18G 2G11G16G19G 6
  23355818.114    14921210.725 6  11626882.92521
  21612738.341   -10517642.817 7  -8195534.27123
  23509628.4584    -276702.06546   -215594.54761
  24190147.0524     719979.91645    543051.26361
  21545419.146     3845725.277 7   2996664.44622
  23259213.567    -6243302.142 6  -4780758.62321
 91  4 23 21 27 15.0010000  0  6G18G 2G11G16G19G 6
  23366464.2314   14977161.22246  11670480.54461
  21609869.372   -10532728.660 7  -8207289.42723
  23514584.0604    -250659.88846   -195301.95161
  24193452.903      737352.370 5    556588.12621
  21549213.903     3865668.895 7   3012204.90922
  23254430.724    -6268415.921 6  -4800327.71821
 91  4 23 21 27 30.0010000  0  6G18G 2G11G16G19G 6
  23377122.560    15033164.774 6  11714119.50621
  21607012.903   -10547737.321 7  -8218984.43923
  23519567.2474    -224475.45346   -174898.50061
  24196781.075      754838.680 5    570213.73421
  21553019.122     3885671.663 7   3027791.46022
  23249659.903    -6293523.406 6  -4819891.90321
 91  4 23 21 27 45.0010000  0  6G18G 2G11G16G19G 6
  23387787.872    15089216.094 6  11757795.69521
  21604170.567   -10562673.886 7  -8230623.27323
  23524577.606     -198154.199 6   -154388.44621
  24200125.4814     772433.57345    583923.95361
  21556837.614     3905728.504 7   3043420.14822
  23244876.8104   -6318629.80346  -4839455.25461
 91  4 23 21 28  0.0010000  0  6G18G 2G11G16G19G 6
  23398463.685    15145314.142 6  11801508.28821
  21601340.856   -10577538.971 7  -8242206.40723
  23529610.067     -171696.668 6   -133772.19821
  24203499.6464     790136.41345    597718.26661
  21560664.153     3925839.050 7   3059090.67922
  23240097.5214   -6343735.63246  -4859018.14361
 91  4 23 21 28 15.0010000  0  6G18G 2G11G16G19G 6
  23409148.224    15201461.035 6  11845258.94921
  21598525.372   -10592330.651 7  -8253732.34823
  23534671.419     -145100.899 6   -113048.24121
  24206887.6614     807949.03745    611598.14761
  21564502.013     3946005.547 7   3074804.81422
  23235322.521    -6368838.622 6  -4878578.84121
 91  4 23 21 28 30.0010000  0  6G18G 2G11G16G19G 6
  23419840.966    15257657.289 6  11889048.06821
  21595726.403   -10607047.993 7  -8265200.35523
  23539759.778     -118366.330 6    -92216.12021
  24210298.2394     825872.30045    625564.22361
  21568347.505     3966228.801 7   3090563.16822
  23230547.1464   -6393937.92746  -4898136.65761
 91  4 23 21 28 45.0010000  0  6G18G 2G11G16G19G 6
  23430545.583    15313902.211 6  11932875.11721
  21592939.817   -10621691.504 7  -8276610.83123
  23544870.458      -91493.477 6    -71276.25621
  24213726.2474     843905.28445    639615.82961
  21572208.192     3986508.487 7   3106365.49622
  23225770.528    -6419033.977 6  -4917691.94621
 91  4 23 21 29  0.0010000  0  6G18G 2G11G16G19G 6
  23441258.177    15370197.991 6  11976741.78321
  21590165.505   -10636258.634 7  -8287961.79523
  23550015.021      -64480.101 6    -50226.88221
  24217183.5364     862050.68945    653755.00661
  21576079.0754    4006847.14947   3122213.77562
  23220995.591    -6444124.317 6  -4937242.77621
 91  4 23 21 29 15.0010000  0  6G18G 2G11G16G19G 6
  23451978.958    15426539.659 6  12020644.21621
  21587408.411   -10650754.120 7  -8299256.92623
  23555181.685      -37330.894 6    -29071.67821
  24220652.810      880303.335 5    667977.75221
  21579957.356     4027240.403 7   3138104.59822
  23216224.1224   -6469213.31246  -4956792.55961
 91  4 23 21 29 30.0010000  0  6G18G 2G11G16G19G 6
  23462710.7714   15482931.13446  12064585.44861
  21584664.653   -10665173.664 7  -8310492.88623
  23560373.5914     -10041.79446     -7807.44961
  24224146.1304     898667.29645    682287.23161
  21583853.7394    4047692.60347   3154041.34162
  23211449.997    -6494296.732 6  -4976338.00121
 91  4 23 21 29 45.0010000  0  6G18G 2G11G16G19G 6
  23473451.7864   15539372.12346  12108565.27761
  21581934.544   -10679517.365 7  -8321669.75223
  23565594.333       17386.751 6     13565.42121
  24227667.950      917142.234 5    696683.20321
  21587754.6854    4068203.45147   3170023.79062
  23206675.7084   -6519374.70846  -4995879.19961
 91  4 23 21 30  0.0010000  0  6G18G 2G11G16G19G 6
  23484201.5994   15595859.40946  12152581.17261
  21579220.028   -10693788.200 7  -8332789.83623
  23570835.325       44951.584 6     35044.50021
  24231204.4424     935724.81845    711163.02261
  21591670.216     4088770.146 7   3186049.75622
  23201905.5214   -6544450.23246  -5015418.48061
 91  4 23 21 30 15.0010000  0  6G18G 2G11G16G19G 6
  23494957.4584   15652392.70646  12196632.90761
  21576517.864   -10707986.280 7  -8343853.22923
  23576107.349       72652.498 6     56629.61421
  24234760.9354     954414.92045    725726.66261
  21595590.8564    4109392.87447   3202119.38362
  23197135.271    -6569523.212 6  -5034955.78421
 91  4 23 21 30 30.0010000  0  6G18G 2G11G16G19G 6
  23505723.974    15708970.379 6  12240719.24221
  21573830.1614  -10722112.79447  -8354860.86463
  23581404.505      100488.276 6     78319.81421
  24238335.044      973211.397 5    740373.17121
  21599528.5674    4130070.54547   3218231.80962
  23192361.0134   -6594594.76246  -5054491.97561
 91  4 23 21 30 45.0010000  0  6G18G 2G11G16G19G 6
  23516499.7004   15765595.47746  12284842.51361
  21571154.755   -10736164.672 7  -8365810.33623
  23586729.5444     128461.49546    100117.11361
  24241935.1924     992116.47245    755104.30661
  21603474.6144    4150806.11547   3234389.36962
  23187592.2394   -6619661.89746  -5074024.73861
 91  4 23 21 31  0.0010000  0  6G18G 2G11G16G19G 6
  23527282.9274   15822266.65346  12329001.69561
  21568495.200   -10750143.194 7  -8376702.64723
  23592079.825      156570.983 6    122020.59221
  24245546.9894    1011128.96645    769919.13861
  21607430.8644    4171598.75247   3250591.38562
  23182818.396    -6644725.668 6  -5093554.86221
 91  4 23 21 31 15.0010000  0  6G18G 2G11G16G19G 6
  23538076.146    15878980.985 6  12373194.50921
  21565847.880   -10764050.805 7  -8387539.70223
  23597454.2714     184814.23046    144028.30861
  24249193.8104    1030246.28345    784815.64561
  21611396.1924    4192445.98147   3266835.94762
  23178053.841    -6669788.440 6  -5113084.21721
 91  4 23 21 31 30.0010000  0  6G18G 2G11G16G19G 6
  23548878.4894   15935738.09546  12417420.64961
  21563214.513   -10777887.545 7  -8398321.53423
  23602854.231      213190.872 6    166139.95721
  24252850.310     1049468.235 5    799793.69521
  21615376.7864    4213347.69847   3283122.96762
  23173287.997    -6694850.245 6  -5132612.81721
 91  4 23 21 31 45.0010000  0  6G18G 2G11G16G19G 6
  23559687.036    15992540.484 6  12461682.07021
  21560596.1224  -10791650.83147  -8409046.13163
  23608277.450      241703.245 6    188357.37421
  24256529.575     1068797.146 5    814855.10321
  21619364.1924    4234306.81047   3299454.70662
  23168515.052    -6719908.517 6  -5152138.66921
 91  4 23 21 32  0.0010000  0  6G18G 2G11G16G19G 6
  23570503.310    16049384.130 6  12505975.63421
  21557991.6304  -10805344.16147  -8419716.21663
  23613728.153      270347.756 6    210677.75021
  24260220.513     1088229.299 5    829996.93621
  21623360.2164    4255319.84047   3315828.45862
  23163744.7554   -6744966.48846  -5171664.28961
 91  4 23 21 32 15.0010000  0  6G18G 2G11G16G19G 6
  23581329.4114   16106272.10446  12550303.74661
  21555398.5604  -10818964.49547  -8430329.42763
  23619206.075      299127.415 6    233103.44321
  24263936.114     1107767.659 5    845221.55521
  21627373.2164    4276390.05347   3332246.77262
  23158979.560    -6770021.107 6  -5191187.29421
 91  4 23 21 32 30.0010000  0  6G18G 2G11G16G19G 6
  23592163.2714   16163202.39646  12594664.83261
  21552821.8724  -10832513.76547  -8440887.25663
  23624709.036      328040.029 6    255632.73321
  24267675.396     1127410.012 5    860527.17421
  21631390.8494    4297515.42747   3348708.07462
  23154211.450    -6795074.244 6  -5210709.14621
 91  4 23 21 32 45.0010000  0  6G18G 2G11G16G19G 6
  23603004.1774   16220175.91946  12639059.61261
  21550255.294   -10845990.439 7  -8451388.51723
  23630234.614      357086.895 6    278266.63321
  24271438.5524    1147157.87045    875915.02061
  21635423.0364    4318697.77147   3365213.76062
  23149443.9814   -6820124.31146  -5230228.59361
 91  4 23 21 33  0.0010000  0  6G18G 2G11G16G19G 6
  23613854.6144   16277194.58546  12683489.54961
  21547705.989   -10859392.600 7  -8461831.71523
  23635788.419      386269.822 6    301006.54921
  24275224.872     1167012.604 5    891386.13221
  21639461.7864    4339939.04247   3381765.37662
  23144678.6224   -6845169.26046  -5249744.06561
 91  4 23 21 33 15.0010000  0  6G18G 2G11G16G19G 6
  23624714.731    16334259.278 6  12727955.38221
  21545169.802   -10872718.808 7  -8472215.73323
  23641366.130      415589.836 6    323853.29421
  24279018.7314    1186975.33845    906941.40861
  21643517.3254    4361240.62247   3398363.98362
  23139914.810    -6870207.776 6  -5269254.52021
 91  4 23 21 33 30.0010000  0  6G18G 2G11G16G19G 6
  23635581.6614   16391364.88146  12772453.07861
  21542647.450   -10885973.998 7  -8482544.40623
  23646972.903      445042.032 6    346803.04621
  24282833.3104    1207040.99845    922576.88061
  21647580.9034    4382597.71147   3415005.83862
  23135150.067    -6895244.623 6  -5288763.67621
 91  4 23 21 33 45.0010000  0  6G18G 2G11G16G19G 6
  23646456.521    16448511.495 6  12816982.71121
  21540138.5834  -10899157.97547  -8492817.59563
  23652601.372      474626.614 6    369855.94321
  24286671.044     1227209.635 5    938292.62221
  21651657.169     4404010.859 7   3431691.38422
  23130384.927    -6920279.326 6  -5308271.17021
 91  4 23 21 34  0.0010000  0  6G18G 2G11G16G19G 6
  23657338.388    16505697.246 6  12861542.86121
  21537642.8174  -10912272.41447  -8503036.60163
  23658259.474      504341.519 6    393010.40121
  24290531.224     1247479.368 5    954087.08721
  21655738.927     4425478.447 7   3448419.34522
  23125621.3494   -6945313.64146  -5327778.35761
 91  4 23 21 34 15.0010000  0  6G18G 2G11G16G19G 6
  23668228.3884   16562923.28246  12906134.39561
  21535160.3414  -10925316.23447  -8513200.57663
  23663937.169      534187.773 6    416267.20921
  24294407.8254    1267851.24545    969961.17661
  21659838.974     4447001.616 7   3465190.61722
  23120863.153    -6970346.304 6  -5347284.25221
 91  4 23 21 34 30.0010000  0  6G18G 2G11G16G19G 6
  23679126.2714   16620189.96246  12950757.59861
  21532692.833   -10938288.725 7  -8523308.96523
  23669641.9664     564165.86746    439626.75061
  24298302.278     1288325.943 5    985915.37321
  21663941.3804    4468581.26347   3482005.89962
  23116095.6304   -6995376.57946  -5366788.29661
 91  4 23 21 34 45.0010000  0  6G18G 2G11G16G19G 6
  23690033.263    16677501.966 6  12995416.10521
  21530238.138   -10951184.595 7  -8533357.65123
  23675369.8804     594280.75646    463092.88861
  24302216.396     1308907.716 5   1001953.01421
  21668063.224     4490222.646 7   3498869.28922
  23111334.450    -7020399.236 6  -5386286.38621
 91  4 23 21 35  0.0010000  0  6G18G 2G11G16G19G 6
  23700945.927    16734852.068 6  13040104.30921
  21527798.099   -10964010.817 7  -8543352.06823
  23681125.0994     624525.28346    486660.03461
  24306153.489     1329589.938 5   1018068.93121
  21672189.2394    4511918.83047   3515775.38462
  23106570.849    -7045421.203 6  -5405783.97021
 91  4 23 21 35 15.0010000  0  6G18G 2G11G16G19G 6
  23711868.0054   16792242.88246  13084824.23661
  21525369.669   -10976764.389 7  -8553289.87423
  23686908.2474     654902.36446    510330.47561
  24310111.114     1350375.001 5   1034264.98321
  21676330.372     4533673.099 6   3532726.73822
  23101809.2244   -7070439.29646  -5425278.52461
 91  4 23 21 35 30.0010000  0  6G18G 2G11G16G19G 6
  23722795.1694   16849672.00046  13129574.02261
  21522957.8174  -10989447.73747  -8563172.95863
  23692712.325      685409.513 6    534102.26921
  24314082.247     1371260.781 5   1050539.50421
  21680479.5364    4555483.25647   3549721.63462
  23097051.927    -7095455.636 6  -5444771.70221
 91  4 23 21 35 45.0010000  0  6G18G 2G11G16G19G 6
  23733733.247    16907143.449 6  13174356.76521
  21520557.2004  -11002056.70647  -8572998.08963
  23698544.5604     716050.66246    557978.46061
  24318078.7164    1392251.41445   1066895.73761
  21684641.450     4577353.450 6   3566763.32723
  23092290.966    -7120466.106 6  -5464260.30321
 91  4 23 21 36  0.0010000  0  6G18G 2G11G16G19G 6
  23744675.888    16964653.988 6  13219169.97621
  21518172.4664  -11014594.28647  -8582767.58863
  23704399.3104     746822.56846    581956.56261
  24322094.6144    1413343.18045   1083330.76861
  21688815.0914    4599280.77947   3583849.52763
  23087530.8964   -7145473.71246  -5483746.67361
 91  4 23 21 36 15.0010000  0  6G18G 2G11G16G19G 6
  23755630.1144   17022208.82246  13264017.70861
  21515799.997   -11027054.805 7  -8592477.04523
  23710279.396      777730.730 6    606040.82621
  24326127.583     1434541.623 5   1099848.92121
  21693000.755     4621270.983 7   3600984.72423
  23082774.6924   -7170472.59046  -5503226.25361
 91  4 23 21 36 30.0010000  0  6G18G 2G11G16G19G 6
  23766588.364    17079803.471 6  13308896.48321
  21513441.6614  -11039442.65947  -8602129.88063
  23716188.169      808770.517 6    630227.65321
  24330179.224     1455842.146 5   1116446.62921
  21697197.583     4643319.859 7   3618165.64223
  23078019.6144   -7195467.10446  -5522702.42961
 91  4 23 21 36 45.0010000  0  6G18G 2G11G16G19G 6
  23777555.1144   17137438.25746  13353806.48561
  21511099.153   -11051757.193 7  -8611725.57723
  23722119.2474     839942.29746    654517.34061
  24334250.989     1477244.811 5   1133123.93021
  21701401.708     4665427.949 6   3635392.70323
  23073262.880    -7220456.621 6  -5542174.70521
 91  4 23 21 37  0.0010000  0  6G18G 2G11G16G19G 6
  23788533.0364   17195114.32846  13398748.68561
  21508770.0604  -11063997.01847  -8621263.06963
  23728076.989      871247.468 6    678910.97021
  24338344.958     1498751.388 5   1149882.19021
  21705619.888     4687597.016 7   3652667.27523
  23068509.919    -7245439.461 6  -5561641.77821
 91  4 23 21 37 15.0010000  0  6G18G 2G11G16G19G 6
  23799515.130    17252830.474 6  13443722.11321
  21506455.3254  -11076163.18547  -8630743.15763
  23734058.2944     902684.83246    703407.60361
  24342456.653     1520360.385 5   1166720.27921
  21709850.638     4709825.996 6   3669988.54123
  23063756.771    -7270416.584 6  -5581104.40721
 91  4 23 21 37 30.0010000  0  6G18G 2G11G16G19G 6
  23810504.325    17310582.443 5  13488723.45221
  21504152.661   -11088260.005 7  -8640169.20723
  23740066.778      934250.025 6    728003.84421
  24346591.692     1542067.027 5   1183634.43621
  21714091.7554    4732110.79947   3687353.29363
  23059003.9194   -7295392.17646  -5600565.84261
 91  4 23 21 37 45.0010000  0  6G18G 2G11G16G19G 6
  23821502.5834   17368372.52446  13533754.47561
  21501865.4424  -11100284.65547  -8649539.02363
  23746096.786      965945.368 6    752701.48721
  24350743.3174    1563874.39945   1200627.07761
  21718343.997     4754454.204 7   3704763.71323
  23054252.763    -7320363.477 6  -5620023.93021
 91  4 23 21 38  0.0010000  0  6G18G 2G11G16G19G 6
  23832506.927    17426202.204 6  13578816.35821
  21499590.599   -11112235.323 7  -8658851.18923
  23752156.0674     997772.41046    777501.76961
  24354910.7634    1585783.87545   1217699.32161
  21722605.044     4776858.125 7   3722221.28923
  23049501.927    -7345328.628 6  -5639477.22021
 91  4 23 21 38 15.0010000  0  6G18G 2G11G16G19G 6
  23843520.521    17484070.512 6  13623908.35221
  21497331.216   -11124112.618 7  -8668106.18323
  23758235.169     1029730.546 6    802404.20121
  24359093.864     1607794.673 5   1234850.46221
  21726883.6384    4799322.22047   3739725.75163
  23044752.6144   -7370287.92546  -5658925.95961
 91  4 23 21 38 30.0010000  0  6G18G 2G11G16G19G 6
  23854538.114    17541977.730 5  13669030.67121
  21495086.294   -11135916.275 7  -8677303.79223
  23764343.8644    1061819.77646    827408.77661
  24363305.497     1629906.653 5   1252080.49821
  21731166.638     4821846.751 7   3757277.30723
  23040000.903    -7395241.134 6  -5678369.95021
 91  4 23 21 38 45.0010000  0  6G18G 2G11G16G19G 6
  23865566.6854   17599924.09345  13714183.46161
  21492851.192   -11147645.894 7  -8686443.71523
  23770470.8564    1094040.55846    852515.86861
  24367530.591     1652120.185 5   1269389.62221
  21735466.763     4844432.590 7   3774876.63623
  23035257.052    -7420187.630 6  -5697808.70621
 91  4 23 21 39  0.0010000  0  6G18G 2G11G16G19G 6
  23876600.4974   17657905.13145  13759363.29661
  21490634.1924  -11159305.58047  -8695529.14163
  23776628.333     1126388.494 6    877722.02221
  24371775.591     1674431.079 5   1286774.64921
  21739773.716     4867075.468 7   3792520.41623
  23030510.7244   -7445131.53146  -5717245.44961
 91  4 23 21 39 15.0010000  0  6G18G 2G11G16G19G 6
  23887640.3414   17715923.66745  13804572.34161
  21488426.622   -11170891.971 7  -8704557.46023
  23782809.4354    1158866.53846    903029.56161
  24376044.591     1696842.188 5   1304237.73821
  21744096.575     4889778.669 7   3810211.19823
  23025762.0284   -7470069.43146  -5736677.50761
 91  4 23 21 39 30.0010000  0  6G18G 2G11G16G19G 6
  23898688.052    17773982.539 5  13849812.80721
  21486239.5994  -11182402.30947  -8713526.51463
  23789015.2784    1191477.35946    928440.57561
  24380326.513     1719356.066 5   1321780.91921
  21748427.216     4912545.282 7   3827951.39323
  23021020.794    -7494998.394 6  -5756102.61021
 91  4 23 21 39 45.0010000  0  6G18G 2G11G16G19G 6
  23909743.9354   17832076.68045  13895080.75461
  21484060.3724  -11193841.44647  -8722440.08963
  23795244.216     1224215.994 6    953951.16421
  24384629.552     1741967.641 5   1339400.24221
  21752772.544     4935370.464 7   3845737.22323
  23016276.9584   -7519923.12546  -5775524.41461
 91  4 23 21 40  0.0010000  0  6G18G 2G11G16G19G 6
  23920804.7084   17890205.52245  13940375.75061
  21481898.052   -11205209.836 7  -8731298.53023
  23801497.294     1257081.705 6    979560.78621
  24388951.692     1764676.121 5   1357095.05121
  21757124.091     4958253.911 7   3863568.45923
  23011534.747    -7544844.137 6  -5794943.31221
 91  4 23 21 40 15.0010000  0  6G18G 2G11G16G19G 6
  23931872.638    17948372.296 5  13985700.31421
  21479748.989   -11216503.660 7  -8740098.87123
  23807777.966     1290078.177 6   1005272.30121
  24393292.9894    1787485.07645   1374868.15261
  21761494.099     4981199.693 7   3881448.25923
  23006791.2314   -7569757.31046  -5814356.11161
 91  4 23 21 40 30.0010000  0  6G18G 2G11G16G19G 6
  23942949.3494   18006574.00045  14031052.07761
  21477612.3024  -11227725.84647  -8748843.39363
  23814082.8414    1323202.38146   1031083.36061
  24397647.6144    1810391.83145
  21765871.825     5004205.081 7
  23002053.4424   -7594665.51746  -5833765.03661
 91  4 23 21 40 45.0010000  0  6G18G 2G11G16G19G 6
  23954029.8644   18064811.16545  14076431.48961
  21475492.036   -11238875.790 7  -8757531.61423
  23820407.7394    1356454.53546   1056994.10061
  24402024.4194    1833396.31845
  21770259.442     5027270.526 7
  22997314.5134   -7619568.15646  -5853169.62561
 91  4 23 21 41  0.0010000  0  6G18G 2G11G16G19G 6
  23965120.2864   18123083.41345  14121838.21961
  21473382.2944  -11249953.48047  -8766163.54863
  23826761.7164    1389834.57346   1083004.50761
  24406419.0134    1856498.22645
  21774658.442     5050396.100 7
  22992576.1464   -7644464.94246  -5872569.65261
 91  4 23 21 41 15.0010000  0  6G18G 2G11G16G19G 6
  23976215.3174   18181390.97445  14167272.46561
  21471289.216   -11260958.432 7  -8774738.79123
  23833136.435     1423342.831 6   1109114.81221
  24410835.497     1879698.417 5
  21779073.263     5073582.778 7
  22987839.5604   -7669355.19246  -5891964.59161
 91  4 23 21 41 30.0010000  0  6G18G 2G11G16G19G 6
  23987320.1534   18239731.94745  14212732.75761
  21469207.5914  -11271892.46947  -8783258.78263
  23839536.731     1456977.109 6   1135323.31421
  24415268.4274    1902994.29145
  21783494.310     5096828.566 7
  22983103.9974   -7694240.79346  -5911355.90561
 91  4 23 21 41 45.0010000  0  6G18G 2G11G16G19G 6
  23998425.6924   18298104.82245  14258217.90061
  21467141.708   -11282756.737 7  -8791724.40423
  23845960.3024    1490735.98446   1161628.90661
  24419721.7784    1926384.51945   1483101.30261
  21787932.903     5120132.592 7   3989707.52123
  22978370.0054   -7719122.86246  -5930744.46261
 91  4 23 21 42  0.0010000  0  6G18G 2G11G16G19G 6
  24009541.7554   18356511.78545  14303729.59761
  21465088.1854  -11293548.74347  -8800133.72063
  23852408.6614    1524622.00946   1188033.57661
  24424192.8254    1949871.54045   1501402.78861
  21792377.521     5143497.422 7   4007913.86023
  22973633.4274   -7743998.65346  -5950128.12861
 91  4 23 21 42 15.0010000  0  6G18G 2G11G16G19G 6
  24020663.1304   18414951.17745  14349266.56361
  21463047.310   -11304269.849 7  -8808487.78723
  23858883.3964    1558633.54746   1214536.04861
  24428682.8964    1973453.94445   1519778.52561
  21796833.411     5166921.762 7   4026166.57523
  22968903.0914   -7768869.37546  -5969507.85061
 91  4 23 21 42 30.0010000  0  6G18G 2G11G16G19G 6
  24031789.700    18473425.378 5  14394830.66021
  21461021.4114  -11314917.80147  -8816784.85263
  23865378.403     1592772.571 6   1241137.85821
  24433184.106     1997133.506 5   1538230.02921
  21801305.396     5190407.950 7   4044467.48023
  22964171.6614   -7793732.84946  -5988881.92461
 91  4 23 21 42 45.0010000  0  6G18G 2G11G16G19G 6
  24042926.4034   18531935.72445  14440422.92761
  21459008.919   -11325490.618 7  -8825023.37023
  23871900.864     1627040.780 6   1267840.34321
  24437709.2314    2020911.77145   1556758.44561
  21805787.489     5213958.059 7   4062818.19223
  22959442.0284   -7818586.90346  -6008248.64961
 91  4 23 21 43  0.0010000  0  6G18G 2G11G16G19G 6
  24054065.646    18590477.429 5  14486039.61621
  21457009.8564  -11335992.79247  -8833206.84163
  23878444.442     1661433.538 6   1294639.86921
  24442256.005     2044783.908 5   1575359.98521
  21810276.677     5237567.717 7   4081215.30823
  22954712.6924   -7843436.02246  -6027611.52861
 91  4 23 21 43 15.0010000  0  6G18G 2G11G16G19G 6
  24065213.653    18649057.900 5  14531686.51221
  21455028.966   -11346416.854 7  -8841329.44623
  23885013.9034    1695958.13346   1321542.12861
  24446815.5754    2068757.48745   1594040.56861
  21814784.700     5261244.597 7   4099664.80723
  22949989.606    -7868272.483 6  -6046964.55021
 91  4 23 21 43 30.0010000  0  6G18G 2G11G16G19G 6
  24076366.614    18707673.834 5  14577361.03521
  21453057.146   -11356766.000 7  -8849393.67523
  23891609.208     1730611.112 6   1348544.42221
  24451400.4424    2092829.06045   1612797.50761
  21819301.271     5284985.563 7   4118164.23923
  22945263.3414   -7893099.35746  -6066310.10361
 91  4 23 21 43 45.0010000  0  6G18G 2G11G16G19G 6
  24087527.927    18766322.970 5  14623061.45421
  21451102.8024  -11367042.06547  -8857400.95663
  23898227.685     1765390.510 6   1375645.23121
  24455992.458     2116996.456 5   1631629.13421
  21823830.325     5308788.879 7   4136712.25223
  22940541.5994   -7917918.47146  -6085649.61461
 91  4 23 21 44  0.0010000  0  6G18G 2G11G16G19G 6
  24098694.052    18825003.839 5  14668786.59221
  21449159.6464  -11377246.45047  -8865352.38763
  23904869.622     1800294.776 6   1402843.33521
  24460614.6224    2141258.04045   1650534.13861
  21828375.403     5332653.369 6   4155307.93923
  22935818.3564   -7942730.94646  -6104983.93361
 91  4 23 21 44 15.0010000  0  6G18G 2G11G16G19G 6
  24109866.1064   18883713.14345  14714533.86661
  21447230.981   -11387382.301 7  -8873250.40623
  23911534.435     1835320.595 6   1430136.16021
  24465243.5754    2165610.52545   1669509.98161
  21832924.950     5356576.008 7   4173948.93723
  22931096.817    -7967539.819 6  -6124315.45621
 91  4 23 21 44 30.0010000  0  6G18G 2G11G16G19G 6
  24121044.505    18942452.993 5  14760304.94621
  21445315.1854  -11397447.19247  -8881093.14363
  23918222.083     1870470.083 6   1457525.34621
  24469895.192     2190056.007 5   1688558.29021
  21837485.825     5380559.483 7   4192637.34023
  22926379.3564   -7992342.52946  -6143642.18561
 91  4 23 21 44 45.0010000  0  6G18G 2G11G16G19G 6
  24132229.3804   19001226.94345  14806102.60361
  21443414.130   -11407437.479 7  -8888877.74323
  23924937.638     1905746.844 6   1485013.70621
  24474572.200     2214598.180 5   1707681.92321
  21842065.474     5404607.481 7   4211376.02223
  22921660.6224   -8017135.24446  -6162961.11761
 91  4 23 21 45  0.0010000  0  6G18G 2G11G16G19G 6
  24143421.1384   19060030.31145  14851923.20961
  21441527.0444  -11417357.21347  -8896607.36863
  23931670.286     1941146.358 6   1512597.72621
  24479257.8334    2239232.68345   1726877.49561
  21846651.442     5428715.777 7   4230161.68723
  22916943.3024   -8041922.14246  -6182275.51561
 91  4 23 21 45 15.0010000  0  6G18G 2G11G16G19G 6
  24154616.1144   19118866.79445  14897769.58661
  21439654.786   -11427202.675 7  -8904279.11423
  23938433.122     1976672.155 6   1540280.13621
  24483961.739     2263962.645 5   1746147.48921
  21851253.692     5452888.289 7   4248997.38423
  22912228.7714   -8066699.30746  -6201582.33161
 91  4 23 21 45 30.0010000  0  6G18G 2G11G16G19G 6
  24165818.513    19177735.470 5  14943641.05621
  21437794.5284  -11436974.48447  -8911893.47863
  23945216.333     2012323.418 6   1568060.31821
  24488688.3254    2288787.34845   1765491.26561
  21855861.567     5477124.500 7   4267882.72723
  22907514.0994   -8091467.28746  -6220881.99361
 91  4 23 21 45 45.0010000  0  6G18G 2G11G16G19G 6
  24177025.067    19236631.945 5  14989534.19021
  21435947.0754  -11446676.63147  -8919453.55063
  23952024.0914    2048095.94846   1595935.00061
  24493429.856     2313702.302 5   1784905.41621
  21860486.856     5501420.672 6   4286814.78623
  22902802.7634   -8116229.85846  -6240177.43161
 91  4 23 21 46  0.0010000  0  6G18G 2G11G16G19G 6
  24188240.325    19295560.481 5  15035452.31121
  21434114.1774  -11456304.98047  -8926956.12363
  23958853.880     2083993.781 6   1623907.31121
  24498186.388     2338711.975 5   1804393.33421
  21865122.099     5525781.119 7   4305796.93023
  22898090.0994   -8140982.63346  -6259465.24761
 91  4 23 21 46 15.0010000  0  6G18G 2G11G16G19G 6
  24199458.669    19354522.590 5  15081396.58121
  21432298.4664  -11465857.80347  -8934399.84863
  23965709.716     2120018.341 6   1651978.37821
  24502967.2164    2363817.57645   1823956.01661
  21869771.263     5550207.540 7   4324830.48523
  22893382.1144   -8165723.92646  -6278744.11161
 91  4 23 21 46 30.0010000  0  6G18G 2G11G16G19G 6
  24210684.935    19413512.350 5  15127362.40021
  21430491.7634  -11475340.86047  -8941789.20763
  23972587.192     2156163.804 6   1680143.65421
  24507756.6304    2389013.08945   1843588.75961
  21874429.489     5574694.388 7   4343911.12823
  22888674.5134   -8190459.20646  -6298018.29761
 91  4 23 21 46 45.0010000  0  6G18G 2G11G16G19G 6
  24221918.0134   19472539.94545  15173357.69661
  21428703.7394  -11484743.63347  -8949116.00363
  23979492.028     2192440.473 6   1708411.16521
  24512575.2004    2414308.97545   1863299.69961
  21879104.9114    5599252.43446   4363047.24063
  22883971.4354   -8215177.82746  -6317279.49261
 91  4 23 21 47  0.0010000  0  6G18G 2G11G16G19G 6
  24233156.2314   19531596.17545  15219375.30961
  21426928.9194  -11494074.82547  -8956387.02363
  23986419.161     2228839.186 6   1736773.77921
  24517407.552     2439696.191 5   1883081.80221
  21883788.794     5623872.854 7   4382231.96223
  22879269.4114   -8239888.48946  -6336534.49661
 91  4 23 21 47 15.0010000  0  6G18G 2G11G16G19G 6
  24244400.6384   19590681.82545  15265415.88061
  21425164.3804  -11503333.45947  -8963601.50963
  23993368.708     2265360.618 6   1765232.01021
  24522259.5214    2465175.31445   1902935.54261
  21888487.731     5648556.725 7   4401466.11823
  22874571.0364   -8264590.31446  -6355782.60461
 91  4 23 21 47 30.0010000  0  6G18G 2G11G16G19G 6
  24255649.0994   19649797.62145  15311479.91761
  21423417.7084  -11512518.69647  -8970758.80363
  24000340.825     2302005.536 6   1793786.47421
  24527115.2784    2490746.90745   1922861.33361
  21893196.044     5673305.224 7   4420750.64123
  22869872.9034   -8289281.97446  -6375022.79461
 91  4 23 21 47 45.0010000  0  6G18G 2G11G16G19G 6
  24266904.1854   19708942.48545  15357566.56361
  21421681.8104  -11521631.44647  -8977859.61063
  24007337.091     2338772.881 6   1822436.33421
  24532001.3414    2516409.84945   1942858.31461
  21897918.208     5698117.478 7   4440084.84423
  22865176.2714   -8313964.31446  -6394255.72461
 91  4 23 21 48  0.0010000  0  6G18G 2G11G16G19G 6
  24278165.3334   19768117.07545  15403676.38361
  21419963.7474  -11530670.66947  -8984903.12763
  24014358.0524    2375663.50446   1851182.23961
  24536904.802     2542165.136 5   1962927.24421
  21902652.6304    5722994.62447   4459469.60363
  22860479.7314   -8338636.27846  -6413480.56261
 91  4 23 21 48 15.0010000  0  6G18G 2G11G16G19G 6
  24289431.6774   19827324.30745  15449811.64361
  21418258.2474  -11539633.26347  -8991886.93463
  24021403.388     2412680.154 6   1880026.36421
  24541822.3564    2568015.61145   1983070.35761
  21907399.060     5747939.759 6   4478907.35423
  22855786.6224   -8363294.50046  -6432694.70061
 91  4 23 21 48 30.0010000  0  6G18G 2G11G16G19G 6
  24300705.169    19886562.736 5  15495971.22521
  21416566.3884  -11548520.64747  -8998812.13363
  24028471.544     2449821.457 6   1908967.61521
  24546760.185     2593959.775 5   2003286.45621
  21912158.6144    5772951.76647   4498397.19663
  22851094.4664   -8387940.17746  -6451899.06761
 91  4 23 21 48 45.0010000  0  5G18G 2G11G19G 6
  24311984.0754   19945829.64345  15542153.00561
  21414888.3724  -11557335.21047  -9005680.59063
  24035560.7314    2487084.71546   1938003.89361
  21916931.552     5798028.234 6   4517937.27923
  22846407.966    -8412575.667 6  -6471095.47121
 91  4 23 21 49  0.0010000  0  5G18G 2G11G19G 6
  24323267.0364   20005124.36645  15588356.45261
  21413225.4974  -11566077.23347  -9012492.52163
  24042674.9194    2524469.18146   1967134.62561
  21921716.0524    5823168.93747   4537527.41263
  22841721.5134   -8437201.22846  -6490284.15661
 91  4 23 21 49 15.0010000  0  5G18G 2G11G19G 6
  24334558.091    20064448.130 5  15634582.51621
  21411577.8884  -11574745.40247  -9019246.90963
  24049814.4744    2561976.12746   1996360.78261
  21926512.356     5848375.464 6   4557168.83723
  22837036.1614   -8461815.28546  -6509463.87961
 91  4 23 21 49 30.0010000  0  5G18G 2G11G19G 6
  24345849.122    20123798.462 5  15680829.27121
  21409940.3024  -11583341.98647  -9025945.51263
  24056973.0604    2599602.99546   2025680.39161
  21931319.2474    5873645.73747   4576859.92662
  22832352.4974   -8486420.02546  -6528636.33261
 91  4 23 21 49 45.0010000  0  5G18G 2G11G19G 6
  24357149.2394   20183177.32145  15727098.25661
  21408318.677   -11591864.832 7  -9032586.66323
  24064153.903     2637351.779 6   2055095.00121
  21936140.747     5898982.100 6   4596602.52722
  22827673.3644   -8511012.94946  -6547799.58661
 91  4 23 21 50  0.0010000  0  5G18G 2G11G19G 6
  24368455.3254   20242579.47345  15773385.39761
  21406708.6694  -11600318.93947  -9039174.25063
  24071362.474     2675217.264 6   2084600.55121
  21940972.536     5924379.567 7   4616392.73422
  22822997.5444   -8535599.10546  -6566957.56461
 91  4 23 21 50 15.0010000  0  5G18G 2G11G19G 6
  24379763.896    20302007.922 5  15819693.04021
  21405114.2394  -11608700.89947  -9045705.61363
  24078589.9814    2713202.51046   2114199.41261
  21945819.3804    5949841.45247   4636233.13662
  22818318.4424   -8560174.98046  -6586107.52561
 91  4 23 21 50 30.0010000  0  5G18G 2G11G19G 6
  24391076.583    20361460.811 5  15866019.71421
  21403531.8104  -11617012.32647  -9052182.01963
  24085841.263     2751305.662 6   2143890.14621
  21950676.286     5975366.308 6   4656122.60422
  22813646.700    -8584742.035 6  -6605250.61721
 91  4 23 21 50 45.0010000  0  5G18G 2G11G19G 6
  24402396.153    20420938.370 5  15912365.60321
  21401965.7394  -11625252.79548  -9058603.13163
  24093116.0364    2789526.88946   2173672.89161
  21955546.0214    6000954.82446   4676061.68062
  22808972.6464   -8609299.69246  -6624386.39161
 91  4 23 21 51  0.0010000  0  5G18G 2G11G19G 6
  24413716.763    20480439.555 5  15958729.92321
  21400410.0754  -11633423.13747  -9064969.59663
  24100408.3104    2827865.21046   2203546.87561
  21960425.8964    6026606.18847   4696049.72862
  22804300.7314   -8633848.62946  -6643515.36861
 91  4 23 21 51 15.0010000  0  5G18G 2G11G19G 6
  24425045.349    20539965.927 5  16005113.84821
  21398869.3804  -11641521.47848  -9071279.95163
  24107726.903     2866322.198 6   2233513.33721
  21965323.044     6052322.241 6   4716088.18422
  22799628.8884   -8658386.88146  -6662636.01661
 91  4 23 21 51 30.0010000  0  5G18G 2G11G19G 6
  24436377.8024   20599516.30145  16051516.47861
  21397341.3724  -11649549.12148  -9077535.22363
  24115069.2784    2904896.51746   2263571.22161
  21970224.7784    6078102.07946   4736176.34262
  22794963.3254   -8682915.38846  -6681749.07661
 91  4 23 21 51 45.0010000  0  5G18G 2G11G19G 6
  24447714.989    20659091.287 5  16097938.30321
  21395828.3964  -11657505.26048  -9083734.77563
  24122432.2314    2943588.73146   2293720.97561
  21975147.0524    6103946.95846   4756315.17662
  22790300.2164   -8707433.22646  -6700853.82261
 91  4 23 21 52  0.0010000  0  5G18G 2G11G19G 6
  24459056.552    20718687.947 5  16144377.02121
  21394326.0834  -11665392.19047  -9089880.39663
  24129817.1064    2982396.18146   2323960.52261
  21980073.763     6129854.254 6   4776502.65622
  22785635.8494   -8731942.73346  -6719952.07461
 91  4 23 21 52 15.0010000  0  5G18G 2G11G19G 6
  24470403.5754   20778309.35845  16190835.00261
  21392840.3334  -11673206.75147  -9095969.62163
  24137224.739     3021321.975 6   2354292.28121
  21985018.0914    6155827.21846   4796741.29562
  22780975.9814   -8756440.43246  -6739041.12761
 91  4 23 21 52 30.0010000  0  5G18G 2G11G19G 6
  24481750.021    20837951.051 5  16237308.78721
  21391364.5754  -11680953.57447  -9102006.07363
  24144652.036     3060361.208 6   2384712.44421
  21989969.255     6181861.570 6   4817027.78022
  22776314.271    -8780930.778 6  -6758124.44221
 91  4 23 21 52 45.0010000  0  5G18G 2G11G19G 6
  24493104.989    20897618.952 5  16283802.98821
  21389904.0364  -11688626.20547  -9107984.71763
  24152101.567     3099520.191 6   2415225.89921
  21994939.1614    6207963.79646   4837367.14462
  22771654.8724   -8805407.18146  -6777196.89861
 91  4 23 21 53  0.0010000  0  5G18G 2G11G19G 6
  24504465.1464   20957310.58745  16330315.72161
  21388459.1464  -11696226.80847  -9113907.22363
  24159578.2714    3138796.40946   2445830.71561
  21999920.1694    6234131.84346   4857757.80362
  22766999.8174   -8829871.66846  -6796260.07261
 91  4 23 21 53 15.0010000  0  5G18G 2G11G19G 6
  24515827.192    21017024.624 5  16376845.91621
  21387026.8964  -11703756.38848  -9119774.38363
  24167075.630     3178188.576 6   2476525.88621
  22004910.5054    6260364.76246   4878199.01162
  22762346.3024   -8854325.10146  -6815314.63161
 91  4 23 21 53 30.0010000  0  5G18G 2G11G19G 6
  24527194.6694   21076758.13445  16423391.25161
  21385605.8804  -11711217.89248  -9125588.50863
  24174591.1614    3217693.46646   2507308.88961
  22009913.622     6286659.726 6   4898688.56622
  22757692.7554   -8878770.37546  -6834362.83361
 91  4 23 21 53 45.0010000  0  5G18G 2G11G19G 6
  24538564.8644   21136511.64745  16469952.17961
  21384199.9664  -11718610.68548  -9131349.08763
  24182132.177     3257311.651 6   2538180.17221
  22014931.2784    6313017.62146   4919227.15862
  22753043.8174   -8903206.54546  -6853403.94161
 91  4 23 21 54  0.0010000  0  5G18G 2G11G19G 6
  24549940.950    21196285.070 5  16516528.62021
  21382804.7394  -11725934.28248  -9137055.74763
  24189692.552     3297043.278 6   2569139.85521
  22019956.5604    6339439.04946   4939815.24762
  22748395.5134   -8927632.96046  -6872437.44261
 91  4 23 21 54 15.0010000  0  5G18G 2G11G19G 6
  24561319.6694   21256079.33745  16563121.28961
  21381423.2394  -11733187.63748  -9142707.67263
  24197276.6144    3336889.05346   2600188.48261
  22024997.5994    6365924.95946   4960453.58862
  22743746.9354   -8952048.59046  -6891462.54861
 91  4 23 21 54 30.0010000  0  5G18G 2G11G19G 6
  24572703.255    21315891.098 5  16609727.60821
  21380059.0604  -11740374.00948  -9148307.40263
  24204876.9814    3376845.67146   2631323.47961
  22030051.5054    6392472.41846   4981139.89162
  22739102.6064   -8976456.35446  -6910481.52661
 91  4 23 21 54 45.0010000  0  5G18G 2G11G19G 6
  24584088.9194   21375722.39645  16656349.16161
  21378703.0604  -11747491.25648  -9153853.27263
  24212502.450     3416915.064 6   2662546.36621
  22035114.8884    6419083.70946   5001875.92862
  22734463.4274   -9000853.96946  -6929492.59361
 91  4 23 21 55  0.0010000  0  5G18G 2G11G19G 6
  24595476.1614   21435570.07145  16702983.46361
  21377362.099   -11754542.237 8  -9159347.50223
  24220148.6534    3457094.19946   2693854.75061
  22040190.8724    6445756.07046   5022659.55662
  22729821.567    -9025244.013 6  -6948497.76821
 91  4 23 21 55 15.0010000  0  5G18G 2G11G19G 6
  24606870.1854   21495433.90845  16749630.37661
  21376030.9974  -11761526.76348  -9164789.95763
  24227815.778     3497382.789 6   2725248.43921
  22045275.8804    6472489.61146   5043490.85262
  22725180.9894   -9049626.41046  -6967496.97861
 91  4 23 21 55 30.0010000  0  5G18G 2G11G19G 6
  24618264.7004   21555316.16444  16796291.61161
  21374717.2084  -11768442.41448  -9170178.73863
  24235505.536     3537783.002 6   2756729.10421
  22050374.5834    6499286.92946   5064371.84262
  22720541.5834   -9073998.61746  -6986488.25061
 91  4 23 21 55 45.0010000  0  5G18G 2G11G19G 6
  24629661.044    21615213.804 5  16842964.82021
  21373413.5994  -11775291.81248  -9175515.89563
  24243210.763     3578291.976 6   2788294.52421
  22055488.5914    6526145.42246   5085300.50562
  22715904.4504   -9098363.12746  -7005473.52161
 91  4 23 21 56  0.0010000  0  5G18G 2G11G19G 6
  24641062.552    21675126.973 4  16889650.13221
  21372120.2244  -11782074.73348  -9180801.25263
  24250940.6464    3618909.73946   2819944.72261
  22060611.5134    6553065.63746   5106277.26962
  22711271.2714   -9122719.39646  -7024452.37461
 91  4 23 21 56 15.0010000  0  5G18G 2G11G19G 6
  24652469.341    21735058.631 5  16936349.86521
  21370845.0364  -11788788.13848  -9186032.43963
  24258690.911     3659639.097 6   2851681.86121
  22065745.4274    6580050.70346   5127304.56062
  22706635.5054   -9147064.21846  -7043422.30561
 91  4 23 21 56 30.0010000  0  5G18G 2G11G19G 6
  24663877.302    21795004.307 5  16983060.56821
  21369578.2314  -11795436.10948  -9191212.64363
  24266459.763     3700475.815 6   2883502.66421
  22070894.8804    6607096.58846   5148379.23662
  22702006.2474   -9171401.47346  -7062386.34461
 91  4 23 21 56 45.0010000  0  5G18G 2G11G19G 6
  24675286.911    21854965.179 5  17029783.05321
  21368327.606   -11802017.268 8  -9196340.77623
  24274254.700     3741420.933 6   2915407.92321
  22076051.9894    6634204.67546   5169502.39162
  22697375.997    -9195729.718 6  -7081343.36121
 91  4 23 21 57  0.0010000  0  5G18G 2G11G19G 6
  24686699.1854   21914942.48245  17076518.36561
  21367087.1694  -11808530.34848  -9201415.86963
  24282067.1224    3782475.50046   2947398.47361
  22081217.5994    6661376.50547   5190675.21762
  22692748.302    -9220047.414 6  -7100292.16121
 91  4 23 21 57 15.0010000  0  5G18G 2G11G19G 6
  24698113.739    21974934.768 5  17123265.34221
  21365860.2474  -11814976.48948  -9206438.80163
  24289899.981     3823638.304 6   2979473.36221
  22086404.0754    6688611.30546   5211897.10862
  22688123.4894   -9244355.39546  -7119233.38761
 91  4 23 21 57 30.0010000  0  5G18G 2G11G19G 6
  24709536.231    22034940.660 5  17170022.91321
  21364648.0674  -11821356.78248  -9211410.41963
  24297751.122     3864907.893 6   3011631.46221
  22091597.2554    6715907.87446   5233167.12762
  22683500.2634   -9268654.72746  -7138167.87561
 91  4 23 21 57 45.0010000  0  5G18G 2G11G19G 6
  24720958.2244   22094964.17445  17216794.24361
  21363446.0444  -11827667.07548  -9216327.49863
  24305627.458     3906288.058 6   3043875.72821
  22096807.4194    6743270.34246   5254488.49962
  22678879.372    -9292941.190 6  -7157092.33721
 91  4 23 21 58  0.0010000  0  5G18G 2G11G19G 6
  24732378.4424   22154997.46945  17263573.17861
  21362257.0914  -11833914.94548  -9221195.93163
  24313520.552     3947771.170 6   3076200.20021
  22102021.6064    6770691.31246   5275855.45762
  22674256.935    -9317222.069 6  -7176012.45221
 91  4 23 21 58 15.0010000  0  5G18G 2G11G19G 6
  24743808.419    22215045.798 5  17310363.85421
  21361081.0604  -11840095.03448  -9226011.55163
  24321435.9504    3989362.29946   3108608.84761
  22107255.0444    6798176.43546   5297272.40262
  22669638.255    -9341491.876 6  -7194923.94121
 91  4 23 21 58 30.0010000  0  5G18G 2G11G19G 6
  24755238.021    22275106.896 5  17357164.48921
  21359916.7394  -11846209.18948  -9230775.79163
  24329372.739     4031059.203 6   3141099.90421
  22112492.8644    6825723.84346   5318737.88362
  22665022.747    -9365752.312 6  -7213828.12421
 91  4 23 21 58 45.0010000  0  5G18G 2G11G19G 6
  24766670.5914   22335181.29445  17403975.42661
  21358766.1614  -11852256.76848  -9235488.16063
  24337325.778     4072862.341 6   3173673.75221
  22117749.5214    6853334.33846   5340252.52062
  22660410.255    -9390002.480 6  -7232724.30721
 91  4 23 21 59  0.0010000  0  4G 2G11G19G 6
  21357629.9584  -11858235.12048  -9240146.57963
  24345303.3494    4114774.03546   3206332.18961
  22123013.0444    6881010.72446   5361818.49862
  22655795.778    -9414239.739 6  -7251610.43821
 91  4 23 21 59 15.0010000  0  4G 2G11G19G 6
  21356505.0364  -11864145.53048  -9244752.05763
  24353295.8564    4156792.84546   3239074.07761
  22128295.4034    6908751.74346   5383434.84662
  22651187.7004   -9438465.04046  -7270487.23461
 91  4 23 21 59 30.0010000  0  4G 2G11G19G 6
  21355392.9424  -11869987.55948  -9249304.25263
  24361314.239     4198918.935 6   3271899.56321
  22133585.8644    6936557.96346   5405101.99562
  22646578.591    -9462677.701 6  -7289354.19821
 91  4 23 21 59 45.0010000  0  4G 2G11G19G 6
  21354292.7634  -11875762.92348  -9253804.50363
  24369350.6384    4241150.35246   3304807.13061
  22138890.1854    6964427.70746   5426818.64862
  22641973.513    -9486879.501 6  -7308212.68921
 91  4 23 22  0  0.0010000  0  4G 2G11G19G 6
  21353208.2784  -11881470.53548  -9258251.95863
  24377404.6774    4283488.05246   3337797.51161
  22144205.1614    6992362.43146   5448585.93262
  22637369.583    -9511069.079 6  -7327061.66621
 91  4 23 22  0 15.0010000  0  4G 2G11G19G 6
  21352132.6614  -11887111.37048  -9262647.38163
  24385484.177     4325930.717 6   3370869.66921
  22149530.8104    7020361.00346   5470402.96862
  22632770.849    -9535247.100 6  -7345901.63221
 91  4 23 22  0 30.0010000  0  4G 2G11G19G 6
  21351073.4894  -11892681.77848  -9266987.92363
  24393581.2164    4368481.85046   3404026.36361
  22154873.3414    7048427.41146   5492272.85762
  22628171.200    -9559409.697 6  -7364729.57821
 91  4 23 22  0 45.0010000  0  4G 2G11G19G 6
  21350027.4034  -11898182.09848  -9271273.85563
  24401699.2634    4411140.81346   3437267.07561
  22160225.9814    7076561.41746   5514195.42262
  22623577.685    -9583557.222 6  -7383545.78521
 91  4 23 22  1  0.0010000  0  4G 2G11G19G 6
  21348993.4974  -11903612.73848  -9275505.48963
  24409835.5994    4453906.90946   3470591.26261
  22165593.5214    7104762.74846   5536170.44862
  22618985.060    -9607689.857 6  -7402350.38221
 91  4 23 22  1 15.0010000  0  4G 2G11G19G 6
  21347974.3564  -11908972.18548  -9279681.65163
  24417997.606     4496781.352 6   3503999.88721
  22170972.9894    7133033.02246   5558199.19862
  22614394.716    -9631805.813 6  -7421141.98821
 91  4 23 22  1 30.0010000  0  4G 2G11G19G 6
  21346967.3254  -11914260.43048  -9283802.32863
  24426173.677     4539763.955 6   3537492.77721
  22176367.7634    7161372.23946   5580281.67062
  22609808.700    -9655905.047 6  -7439920.56321
 91  4 23 22  1 45.0010000  0  4G 2G11G19G 6
  21345974.9814  -11919479.57248  -9287869.15763
  24434374.505     4582852.500 6   3571068.23021
  22181771.3174    7189778.50846   5602416.38962
  22605226.036    -9679989.280 6  -7458687.45421
 91  4 23 22  2  0.0010000  0  4G 2G11G19G 6
  21344993.9034  -11924628.90448  -9291881.59463
  24442595.3024    4626047.34346   3604726.50261
  22187190.3804    7218252.51146   5624603.89662
  22600646.622    -9704057.677 6  -7477441.99721
 91  4 23 22  2 15.0010000  0  4G 2G11G19G 6
  21344028.7944  -11929707.08648  -9295838.58863
  24450834.4894    4669349.58946   3638468.47061
  22192621.1534    7246795.81546   5646845.39762
  22596070.474    -9728108.584 6  -7496182.90621
 91  4 23 22  2 30.0010000  0  4G 2G11G19G 6
  21343074.3254  -11934718.47448  -9299743.53663
  24459094.185     4712754.630 6   3672290.54021
  22198064.2164    7275404.31246   5669137.70262
  22591491.552    -9752146.292 6  -7514913.53121
 91  4 23 22  2 45.0010000  0  4G 2G11G19G 6
  21342133.591   -11939663.655 8  -9303596.89823
  24467370.4974    4756261.57846   3706192.01461
  22203521.9504    7304077.38946   5691480.32862
  22586921.669    -9776171.415 6  -7533634.35121
 91  4 23 22  3  0.0010000  0  4G 2G11G19G 6
  21341204.1534  -11944543.71048  -9307399.50963
  24475670.536     4799869.152 6   3740171.89521
  22208990.8414    7332813.94346   5713872.41562
  22582353.9114   -9800184.56046  -7552345.83161
 91  4 23 22  3 15.0010000  0  4G 2G11G19G 6
  21340287.5834  -11949359.16748  -9311151.78163
  24483987.7864    4843576.47146   3774229.49861
  22214469.8024    7361613.52946   5736313.61562
  22577785.044    -9824186.279 6  -7571048.41421
 91  4 23 22  3 30.0010000  0  4G 2G11G19G 6
  21339385.6464  -11954108.08048  -9314852.20763
  24492323.9814    4887385.35646   3808366.25261
  22219961.3414    7390478.32246   5758805.62962
  22573218.7084   -9848174.31146  -7589740.33361
 91  4 23 22  3 45.0010000  0  4G 2G11G19G 6
  21338492.4034  -11958788.45348  -9318499.22363
  24500680.442     4931297.368 6   3842583.35621
  22225468.2314    7419410.48346   5781350.13462
  22568660.8804   -9872146.48546  -7608419.89061
 91  4 23 22  4  0.0010000  0  4G 2G11G19G 6
  21337615.942   -11963405.852 8  -9322097.16623
  24509056.231     4975306.780 6   3876876.35521
  22230985.5834    7448404.64646   5803942.95762
  22564099.2474   -9896108.14046  -7627091.24461
 91  4 23 22  4 15.0010000  0  4G 2G11G19G 6
  21336748.427   -11967961.542 8  -9325647.03123
  24517448.4894    5019412.10846   3911244.10261
  22236515.5754    7477459.65846   5826583.19162
  22559541.4974   -9920060.37046  -7645755.25861
 91  4 23 22  4 30.0010000  0  4G 2G11G19G 6
  21335894.747   -11972449.457 8  -9329144.08223
  24525860.2784    5063619.26346   3945691.20561
  22242059.5754    7506581.71846   5849275.66762
  22554986.9974   -9943996.75846  -7664406.92561
 91  4 23 22  4 45.0010000  0  4G 2G11G19G 6
  21335052.427   -11976872.431 8  -9332590.53223
  24534290.778     5107925.015 6   3980215.11721
  22247610.8724    7535767.95846   5872018.15962
  22550432.5284   -9967920.14246  -7683048.45261
 91  4 23 22  5  0.0010000  0  4G 2G11G19G 6
  21334223.052   -11981229.280 8  -9335985.45123
  24542741.7944    5152330.10346   4014816.44761
  22253176.8334    7565019.52046   5894811.54362
  22545882.9814   -9991829.29646  -7701678.90161
 91  4 23 22  5 15.0010000  0  4G 2G11G19G 6
  21333407.0834  -11985522.61348  -9339330.87863
  24551211.2714    5196831.79346   4049493.04261
  22258756.1614    7594334.07046   5917654.01262
  22541334.8174  -10015726.46846  -7720300.01261
 91  4 23 22  5 30.0010000  0  4G 2G11G19G 6
  21332602.7474  -11989749.69948  -9342624.68463
  24559698.646     5241432.761 6   4084247.00121
  22264350.0604    7623714.56546   5940547.87062
  22536791.9974  -10039608.62246  -7738909.41761
 91  4 23 22  5 45.0010000  0  4G 2G11G19G 6
  21331810.5444  -11993911.52048  -9345867.63563
  24568204.8804    5286131.52746   4119077.17861
  22269949.2084    7653160.00346   5963492.33062
  22532249.8174  -10063476.73346  -7757507.87661
 91  4 23 22  6  0.0010000  0  4G 2G11G19G 6
  21331031.2164  -11998007.78048  -9349059.49563
  24576731.560     5330928.078 6   4153983.54421
  22275565.6224    7682670.88646   5986487.78762
  22527710.6614  -10087330.12946  -7776094.87561
 91  4 23 22  6 15.0010000  0  4G 2G11G19G 6
  21330264.2084  -12002038.55448  -9352200.32763
  24585273.169     5375822.372 6   4188966.06621
  22281193.6144    7712247.44646   6009534.41662
  22523171.5214  -10111168.68946  -7794670.31162
 91  4 23 22  6 30.0010000  0  4G 2G11G19G 6
  21329507.6384  -12006003.57548  -9355289.92663
  24593831.630     5420814.369 6   4224024.71721
  22286836.2474    7741889.75546   6032632.28862
  22518642.4114  -10134992.06647  -7813233.91261
 91  4 23 22  6 45.0010000  0  4G 2G11G19G 6
  21328766.450   -12009905.582 8  -9358330.42523
  24602413.8334    5465900.98646   4259157.11561
  22292487.271     7771595.116 6   6055779.27622
  22514110.0914  -10158802.71046  -7831787.59161
 91  4 23 22  7  0.0010000  0  4G 2G11G19G 6
  21328034.856   -12013743.828 8  -9361321.24223
  24611010.7314    5511082.99046   4294363.82861
  22298156.0284    7801364.78046   6078976.37962
  22509577.3174  -10182599.47346  -7850330.45461
 91  4 23 22  7 15.0010000  0  4G 2G11G19G 6
  21327316.9664  -12017516.13048  -9364260.66563
  24619626.247     5556361.950 6   4329646.08821
  22303831.8414    7831200.79046   6102225.17762
  22505054.7394  -10206380.28047  -7868860.89261
 91  4 23 22  7 30.0010000  0  4G 2G11G19G 6
  21326613.208   -12021219.867 8  -9367146.66823
  24628263.771     5601740.142 6   4365005.68021
  22309524.5994    7861105.74446   6125527.70362
  22500534.7244  -10230142.33847  -7887376.71561
 91  4 23 22  7 45.0010000  0  4G 2G11G19G 6
  21325918.7554  -12024859.27548  -9369982.54463
  24636910.5134    5647213.26346   4400439.23661
  22315223.8724    7891075.59246   6148880.79462
  22496015.2244  -10253889.51447  -7905880.94261
 91  4 23 22  8  0.0010000  0  4G 2G11G19G 6
  21325241.0834  -12028434.67348  -9372768.53563
  24645586.286     5692780.758 6   4435946.32521
  22320938.481     7921110.201 6   6172284.34022
  22491501.8964  -10277621.89347  -7924373.64461
 91  4 23 22  8 15.0010000  0  4G 2G11G19G 6
  21324571.6924  -12031943.31848  -9375502.51663
  24654274.981     5738444.982 6   4471528.79421
  22326667.528     7951212.398 6   6195740.55422
  22486987.4974  -10301336.59147  -7942852.56361
 91  4 23 22  8 30.0010000  0  4G 2G11G19G 6
  21323917.2634  -12035387.22948  -9378186.05363
  24662983.935     5784203.614 6   4507184.82521
  22332410.5914    7981380.35346   6219248.01062
  22482474.4584  -10325035.56847  -7961319.23361
 91  4 23 22  8 45.0010000  0  4G 2G11G19G 6
  21323275.7394  -12038766.25248  -9380819.02863
  24671708.8024    5830056.68446   4542914.44961
  22338162.2314    8011614.22946   6242806.83762
  22477968.153   -10348718.272 6  -7979773.23021
 91  4 23 22  9  0.0010000  0  4G 2G11G19G 6
  21322642.5214  -12042083.17348  -9383403.60663
  24680454.106     5876001.276 6   4578715.38221
  22343932.2554    8041911.51146   6266415.06562
  22473465.1224  -10372387.30446  -7998216.57761
 91  4 23 22  9 15.0010000  0  4G 2G11G19G 6
  21322023.9194  -12045335.93148  -9385938.19363
  24689211.8724    5922039.05445   4614588.93861
  22349705.606     8072274.188 6   6290074.25022
  22468965.3254  -10396040.40946  -8016647.50261
 91  4 23 22  9 30.0010000  0  4G 2G11G19G 6
  21321418.8564  -12048516.78848  -9388416.74963
  24697993.849     5968177.440 5   4650540.88021
  22355496.880     8102709.911 6   6313790.35622
  22464468.2084  -10419669.78646  -8035059.94961
 91  4 23 22  9 45.0010000  0  4G 2G11G19G 6
  21320825.3804  -12051635.84148  -9390847.14863
  24706789.724     6014406.088 5   4686563.15021
  22361299.8254    8133208.82846   6337555.70962
  22459971.6384  -10443285.13146  -8053461.45561
 91  4 23 22 10  0.0010000  0  4G 2G11G19G 6
  21320243.3644  -12054689.12748  -9393226.30163
  24715604.1924    6060728.82345   4722658.75361
  22367119.2784    8163775.20746   6361373.62562
  22455485.3494  -10466882.25846  -8071848.77362
 91  4 23 22 10 15.0010000  0  4G 2G11G19G 6
  21319674.8174  -12057680.06448  -9395556.86963
  24724436.583     6107141.792 5   4758824.64621
  22372946.3024    8194405.67646   6385241.48162
  22450993.450   -10490464.494 6  -8090224.48421
 91  4 23 22 10 30.0010000  0  4G 2G11G19G 6
  21319117.9034  -12060606.70648  -9397837.34263
  24733284.177     6153646.497 5   4795062.02921
  22378787.817     8225102.071 6   6409160.70822
  22446510.036   -10514029.766 6  -8108586.98421
 91  4 23 22 10 45.0010000  0  4G 2G11G19G 6
  21318572.4114  -12063470.14848  -9400068.56463
  24742151.966     6200241.857 5   4831370.06321
  22384641.3724    8255863.77846   6433130.83462
  22442029.856   -10537578.766 6  -8126936.80421
 91  4 23 22 11  0.0010000  0  4G 2G11G19G 6
  21318041.7314  -12066269.00548  -9402249.45963
  24751038.224     6246929.041 6   4867749.63321
  22390507.1064    8286692.16246   6457152.90462
  22437550.614   -10561109.903 6  -8145272.70022
 91  4 23 22 11 15.0010000  0  4G 2G11G19G 6
  21317519.9114  -12069004.02648  -9404380.61263
  24759941.427     6293706.889 6   4904199.85821
  22396386.2164    8317586.66446   6481226.50262
  22433078.419   -10584623.805 6  -8163595.17321
 91  4 23 22 11 30.0010000  0  4G 2G11G19G 6
  21317011.9274  -12071676.77548  -9406463.23963
  24768858.083     6340573.535 5   4940719.27121
  22402279.935     8348545.732 6   6505350.40822
  22428605.013   -10608121.736 6  -8181905.19922
 91  4 23 22 11 45.0010000  0  4G 2G11G19G 6
  21316514.8884  -12074287.92648  -9408497.86963
  24777792.5444    6387528.25945   4977307.31661
  22408181.888     8379568.780 6   6529524.17622
  22424137.731   -10631604.052 6  -8200203.05521
 91  4 23 22 12  0.0010000  0  4G 2G11G19G 6
  21316029.7714  -12076835.16748  -9410482.70163
  24786746.2004    6434572.99645   5013965.51861
  22414097.4974    8410658.17946   6553749.64162
  22419672.005   -10655068.378 7  -8218486.89122
 91  4 23 22 12 15.0010000  0  4G 2G11G19G 6
  21315557.4584  -12079319.35548  -9412418.39663
  24795716.036     6481706.606 6   5050692.95421
  22420026.4194    8441813.14146   6578026.19662
  22415210.505   -10678515.339 7  -8236757.20122
 91  4 23 22 12 30.0010000  0  4G 2G11G19G 6
  21315095.8024  -12081737.93648  -9414302.97463
  24804699.013     6528931.340 5   5087491.39921
  22425968.2004    8473036.28046   6602355.87762
  22410752.606   -10701942.115 7  -8255011.77922
 91  4 23 22 12 45.0010000  0  4G 2G11G19G 6
  21314649.0444  -12084096.42248  -9416140.72163
  24813703.997     6576241.560 5   5124356.46121
  22431920.5994    8504322.42546   6626734.64962
  22406297.435   -10725353.866 7  -8273254.65622
 91  4 23 22 13  0.0010000  0  4G 2G11G19G 6
  21314212.7084  -12086386.66848  -9417925.29863
  24822726.114     6623645.147 5   5161294.27321
  22437890.325     8535679.814 6   6651168.93922
  22401845.763   -10748742.442 7  -8291479.47022
 91  4 23 22 13 15.0010000  0  4G 2G11G19G 6
  21313788.6614  -12088612.36848  -9419659.57463
  24831760.888     6671137.964 5   5198301.60721
  22443869.1224    8567104.78246   6675655.88962
  22397399.646   -10772111.282 7  -8309688.90522
 91  4 23 22 13 30.0010000  0  4G 2G11G19G 6
  21313376.8724  -12090776.26948  -9421345.70363
  24840817.317     6718716.958 5   5235376.10421
  22449861.0134    8598594.54546   6700193.32862
  22392955.763   -10795462.779 7  -8327884.83222
 91  4 23 22 13 45.0010000  0  4G 2G11G19G 6
  21312975.7714  -12092876.81148  -9422982.45963
  24849886.1614    6766383.43445   5272518.75761
  22455866.9504    8630150.75846   6724782.54162
  22388517.083   -10818795.331 7  -8346065.98922
 91  4 23 22 14  0.0010000  0  4G 2G11G19G 6
  21312590.0604  -12094915.99248  -9424571.40263
  24858974.630     6814135.250 5   5309727.91321
  22461885.2164    8661771.65446   6749422.15962
  22384076.841   -10842110.638 7  -8364233.70422
 91  4 23 22 14 15.0010000  0  4G 2G11G19G 6
  21312212.177   -12096894.389 8  -9426112.98323
  24868075.778     6861971.639 5   5347002.97921
  22467912.9584    8693456.80746   6774111.85862
  22379644.966   -10865409.041 7  -8382388.25422
 91  4 23 22 14 30.0010000  0  4G 2G11G19G 6
  21311848.2944  -12098809.01648  -9427604.86763
  24877198.2634    6909895.30745   5384346.04361
  22473955.6064    8725209.24446   6798853.97362
  22375216.192   -10888687.335 7  -8400527.12922
 91  4 23 22 14 45.0010000  0  4G 2G11G19G 6
  21311496.099   -12100658.950 8  -9429046.34523
  24886333.2164    6957906.79845   5421757.53961
  22480010.5604    8757029.96646   6823649.30562
  22370790.310   -10911944.371 7  -8418649.43822
 91  4 23 22 15  0.0010000  0  4G 2G11G19G 6
  21311156.1614  -12102443.53148  -9430436.89963
  24895487.4274    7006006.52845   5459237.80561
  22486078.9274    8788919.84146   6848498.52062
  22366366.919   -10935179.110 7  -8436754.38122
 91  4 23 22 15 15.0010000  0  4G 2G11G19G 6
  21310827.3414  -12104168.34348  -9431780.88163
  24904656.4974    7054188.56145   5496782.18661
  22492160.1224    8820873.31146   6873397.29062
  22361949.505   -10958397.074 7  -8454846.24522
 91  4 23 22 15 30.0010000  0  4G 2G11G19G 6
  21310511.028   -12105830.458 8  -9433076.01023
  24913838.872     7102455.479 5   5534392.73021
  22498253.2864    8852893.25146   6898347.84962
  22357535.817   -10981595.224 7  -8472922.67722
 91  4 23 22 15 45.0010000  0  4G 2G11G19G 6
  21310206.411   -12107429.437 8  -9434321.94123
  24923041.4034    7150807.61645   5572069.66161
  22504358.6304    8884980.32646   6923350.72962
  22353124.606   -11004772.723 7  -8490983.01022
 91  4 23 22 16  0.0010000  0  4G 2G11G19G 6
  21309914.052   -12108967.367 8  -9435520.30323
  24932258.8414    7199242.56445   5609811.12761
  22510478.4894    8917132.57846   6948404.38862
  22348718.5284  -11027931.47847  -8509028.73662
 91  4 23 22 16 15.0010000  0  4G 2G11G19G 6
  21309634.099   -12110437.692 8  -9436665.98723
  24941493.591     7247766.698 5   5647622.08921
  22516609.114     8949356.682 6   6973514.04122
  22344314.911   -11051064.679 7  -8527054.55422
 91  4 23 22 16 30.0010000  0  4G 2G11G19G 6
  21309366.247   -12111844.184 8  -9437761.93123
  24950740.5284    7296376.16245   5685499.55461
  22522755.1144    8981649.01646   6998676.85762
  22339918.442   -11074175.775 7  -8545063.14322
 91  4 23 22 16 45.0010000  0  4G 2G11G19G 6
  21309109.927   -12113186.445 8  -9438807.82423
  24960008.1534    7345070.88945   5723443.44861
  22528912.2864    9014009.90646   7023893.09762
  22335523.130   -11097264.190 7  -8563054.06822
 91  4 23 22 17  0.0010000  0  3G 2G19G 6
  21308866.849   -12114465.728 8  -9439804.64323
  22535085.6694    9046438.26346   7049161.91162
  22331135.1534  -11120331.19847  -8581028.30262
 91  4 23 22 17 15.0010000  0  3G 2G19G 6
  21308635.5214  -12115681.36148  -9440751.86563
  22541268.958     9078934.917 6   7074483.93122
  22326749.1774  -11143375.56247  -8598984.89362
 91  4 23 22 17 30.0010000  0  3G 2G19G 6
  21308417.419   -12116837.148 8  -9441652.45423
  22547464.3254    9111496.12446   7099856.26462
  22322366.966   -11166400.945 7  -8616926.69922
 91  4 23 22 17 45.0010000  0  3G 2G19G 6
  21308208.896   -12117928.494 8  -9442502.83223
  22553672.8564    9144126.66146   7125282.61862
  22317990.864   -11189402.492 7  -8634849.93022
 91  4 23 22 18  0.0010000  0  3G 2G19G 6
  21308012.364   -12118955.587 8  -9443303.13823
  22559899.286     9176826.238 6   7150762.76722
  22313616.153   -11212380.296 7  -8652754.65922
 91  4 23 22 18 15.0010000  0  3G 2G19G 6
  21307829.856   -12119921.225 8  -9444055.55923
  22566128.3334    9209592.14946   7176294.60762
  22309247.606   -11235336.762 7  -8670642.76422
 91  4 23 22 18 30.0010000  0  3G 2G19G 6
  21307659.200   -12120823.767 8  -9444758.81823
  22572379.2784    9242426.19646   7201879.53862
  22304884.817   -11258270.059 7  -8688512.81322
 91  4 23 22 18 45.0010000  0  3G 2G19G 6
  21307497.208   -12121659.142 8  -9445409.73623
  22578640.521     9275332.523 6   7227520.79122
  22300527.2784  -11281175.94547  -8706361.49962
 91  4 23 22 19  0.0010000  0  3G 2G19G 6
  21307350.169   -12122435.872 8  -9446014.95723
  22584916.0754    9308302.84646   7253211.90462
  22296169.5754  -11304062.80847  -8724195.35562
 91  4 23 22 19 15.0010000  0  3G 2G19G 6
  21307214.614   -12123149.528 8  -9446571.03223
  22591200.5364    9341341.55446   7278956.32262
  22291822.0674  -11326925.87347  -8742010.67662
 91  4 23 22 19 30.0010000  0  3G 2G19G 6
  21307092.060   -12123796.913 8  -9447075.46223
  22597506.7394    9374451.96946   7304756.60562
  22287474.2474  -11349761.56447  -8759804.66562
 91  4 23 22 19 45.0010000  0  3G 2G19G 6
  21306981.528   -12124380.488 8  -9447530.17423
  22603816.3414    9407631.69446   7330610.89762
  22283133.7314  -11372572.21247  -8777579.13962
 91  4 23 22 20  0.0010000  0  3G 2G19G 6
  21306881.669   -12124904.683 8  -9447938.61523
  22610147.6774    9440876.56846   7356515.95062
  22278797.9034  -11395361.81547  -8795337.20962
 91  4 23 22 20 15.0010000  0  3G 2G19G 6
  21306793.6614  -12125369.47248  -9448300.76163
  22616481.1854    9474186.56946   7382471.75762
  22274465.0214  -11418130.28247  -8813078.81862
 91  4 23 22 20 30.0010000  0  3G 2G19G 6
  21306717.013   -12125776.342 8  -9448617.77723
  22622833.192     9507560.320 6   7408477.23022
  22270133.5524  -11440879.00447  -8830805.03362
 91  4 23 22 20 45.0010000  0  3G 2G19G 6
  21306648.739   -12126121.624 8  -9448886.80523
  22629196.911     9541001.675 6   7434535.38822
  22265810.614   -11463603.810 7  -8848512.61722
 91  4 23 22 21  0.0010000  0  3G 2G19G 6
  21306597.138   -12126407.926 8  -9449109.87123
  22635575.1854    9574508.12646   7460644.27062
  22261487.372   -11486307.122 7  -8866203.45222
 91  4 23 22 21 15.0010000  0  3G 2G19G 6
  21306550.7944  -12126633.26748  -9449285.43463
  22641960.833     9608081.635 6   7486805.40222
  22257177.7164  -11508986.76247  -8883875.84262
 91  4 23 22 21 30.0010000  0  3G 2G19G 6
  21306521.646   -12126796.194 8
  22648367.396     9641723.753 6   7513019.99222
  22252862.599   -11531640.962 7  -8901528.41622
 91  4 23 22 21 45.0010000  0  3G 2G19G 6
  21306501.677   -12126895.109 8
  22654777.6304    9675436.29946   7539289.46662
  22248557.5674  -11554267.83047  -8919159.68362
 91  4 23 22 22  0.0010000  0  3G 2G19G 6
  21306497.763   -12126932.596 8
  22661205.185     9709216.550 6   7565611.69522
  22244258.138   -11576869.892 7  -8936771.62122
 91  4 23 22 22 15.0010000  0  3G 2G19G 6
  21306501.646   -12126905.179 8
  22667649.6694    9743067.91246   7591989.33362
  22239960.0754  -11599443.66947  -8954361.52262
 91  4 23 22 22 30.0010000  0  3G 2G19G 6
  21306518.591   -12126820.417 8
  22674101.794     9776983.023 6   7618416.65022
  22235670.333   -11621996.189 7  -8971934.85722
 91  4 23 22 22 45.0010000  0  3G 2G19G 6
  21306542.8414  -12126675.08448
  22680567.216     9810965.335 6   7644896.32422
  22231384.075   -11644523.882 7  -8989488.85222
 91  4 23 22 23  0.0010000  0  3G 2G19G 6
  21306583.8964  -12126468.08648
  22687048.825     9845015.852 6   7671429.14422
  22227099.880   -11667025.514 7  -9007022.54222
 91  4 23 22 23 15.0010000  0  3G 2G19G 6
  21306637.544   -12126198.847 8  -9448946.73223
  22693540.021     9879135.378 6   7698015.73922
  22222825.106   -11689500.251 7  -9024535.27022
 91  4 23 22 23 30.0010000  0  3G 2G19G 6
  21306696.1304  -12125868.49848  -9448689.28963
  22700047.981     9913323.109 6   7724655.47222
  22218550.771   -11711948.784 7  -9042027.57522
 91  4 23 22 23 45.0010000  0  3G 2G19G 6
  21306770.5834  -12125477.95048  -9448384.93963
  22706564.786     9947578.040 6   7751347.57422
  22214285.567   -11734371.861 7  -9059500.05322
 91  4 23 22 24  0.0010000  0  3G 2G19G 6
  21306858.8804  -12125028.50248  -9448034.69563
  22713096.497     9981898.873 6   7778091.02422
  22210022.388   -11756770.558 7  -9076953.52922
 91  4 23 22 24 15.0010000  0  3G 2G19G 6
  21306951.950   -12124521.990 8  -9447639.98323
  22719638.919    10016283.869 6   7804884.47922
  22205766.255   -11779146.528 7  -9094389.30422
 91  4 23 22 24 30.0010000  0  3G 2G19G 6
  21307060.7864  -12123959.54748  -9447201.68763
  22726194.802    10050732.072 6   7831727.18022
  22201509.567   -11801500.608 7  -9111808.02422
 91  4 23 22 24 45.0010000  0  3G 2G19G 6
  21307179.7554  -12123338.74048  -9446717.91364
  22732764.302    10085246.159 6   7858621.21822
  22197260.755   -11823829.943 7  -9129207.45722
 91  4 23 22 25  0.0010000  0  3G 2G19G 6
  21307308.8414  -12122659.83348  -9446188.86663
  22739344.833    10119825.746 6   7885566.30322
  22193015.927   -11846134.701 7  -9146587.74322
 91  4 23 22 25 15.0010000  0  3G 2G19G 6
  21307449.9894  -12121922.23148  -9445614.08663
  22745935.981    10154471.550 6   7912562.97721
  22188778.575   -11868414.054 7  -9163948.23222
 91  4 23 22 25 30.0010000  0  3G 2G19G 6
  21307598.3644  -12121131.51948  -9444997.91863
  22752541.2944   10189177.77746   7939606.73562
  22184539.021   -11890673.406 7  -9181293.13522
 91  4 23 22 25 45.0010000  0  3G 2G19G 6
  21307760.5524  -12120281.55648  -9444335.58263
  22759157.2394   10223950.72846   7966702.48061
  22180311.114   -11912906.279 7  -9198617.40722
 91  4 23 22 26  0.0010000  0  3G 2G19G 6
  21307932.4584  -12119375.51048  -9443629.54663
  22765788.5994   10258787.67646   7993848.09362
  22176085.724   -11935115.428 7  -9215923.19222
 91  4 23 22 26 15.0010000  0  3G 2G19G 6
  21308116.8254  -12118413.89748  -9442880.20963
  22772427.1924   10293687.97946   8021043.07962
  22171863.911   -11957301.214 7  -9233210.77422
 91  4 23 22 26 30.0010000  0  3G 2G19G 6
  21308308.5674  -12117400.85248  -9442090.79863
  22779083.8644   10328647.70946   8048284.37162
  22167645.716   -11979467.510 7  -9250483.16822
 91  4 23 22 26 45.0010000  0  3G 2G19G 6
  21308513.786   -12116330.284 8  -9441256.56423
  22785747.8334   10363672.89046   8075576.66062
  22163432.0284  -12001608.10047  -9267735.53362
 91  4 23 22 27  0.0010000  0  2G19G 6
  22792423.966    10398764.395 6   8102920.63222
  22159224.0214  -12023721.92647  -9284967.04462
 91  4 23 22 27 15.0010000  0  3G 2G19G 6
  21308954.0134         -0.41358
  22799113.9504   10433918.90046   8130313.69362
  22155020.3724  -12045811.75647  -9302179.85962
 91  4 23 22 27 30.0010000  0  3G 2G19G 6
  21309187.419        1241.718 8
  22805815.9664   10469139.65346   8157758.37762
  22150820.981   -12067874.312 7  -9319371.41922
 91  4 23 22 27 45.0010000  0  3G 2G19G 6
  21309435.653        2537.849 8        -0.36433
  22812531.4354   10504422.64946   8185251.55962
  22146626.489   -12089913.636 7  -9336544.87422
 91  4 23 22 28  0.0010000  0  3G 2G19G 6
  21309692.7474       3888.73748      1052.30363
  22819256.646    10539768.846 6   8212793.99722
  22142440.661   -12111928.764 7  -9353699.48022
 91  4 23 22 28 15.0010000  0  3G 2G19G 6
  21309961.771        5301.121 8      2152.88423
  22825997.0134   10575185.04746   8240390.97861
  22138255.247   -12133912.540 7  -9370829.64722
 91  4 23 22 28 30.0010000  0  3G 2G19G 6
  21310240.630        6769.449 8      3297.06223
  22832748.8804   10610665.66046   8268038.14762
  22134074.4424  -12155870.18847  -9387939.46462
 91  4 23 22 28 45.0010000  0  3G 2G19G 6
  21310530.942        8292.813 8      4484.11923
  22839512.7314   10646209.90846   8295734.89762
  22129904.677   -12177802.468 7  -9405029.51122
 91  4 23 22 29  0.0010000  0  3G 2G19G 6
  21310831.161        9869.839 8      5712.99223
  22846288.763    10681816.518 6   8323480.25322
  22125734.817   -12199710.551 7  -9422100.70122
 91  4 23 22 29 15.0010000  0  3G 2G19G 6
  21311142.583       11506.481 8      6988.32023
  22853075.8414   10717491.33746   8351278.74762
  22121569.138   -12221588.108 7  -9439148.09822
 91  4 23 22 29 30.0010000  0  3G 2G19G 6
  21311464.552       13199.362 8      8307.46924
  22859880.4664   10753231.25346   8379127.97762
  22117411.497   -12243438.153 7  -9456174.06422
 91  4 23 22 29 45.0010000  0  3G 2G19G 6
  21311796.614       14946.863 8      9669.17723
  22866689.583    10789034.732 6   8407026.73722
  22113259.622   -12265262.262 7  -9473179.81822
 91  4 23 22 30  0.0010000  0  4G13G 2G19G 6
  24548877.1774         -0.85754
  21312140.700       16749.285 8     11073.68323
  22873515.8964   10824901.97146   8434975.17162
  22109112.286   -12287059.755 7  -9490164.83122
 91  4 23 22 30 15.0010000  0  4G13G 2G19G 6
  24538330.685      -55417.961 4
  21312493.646       18609.853 8     12523.49523
  22880353.825    10860836.414 6   8462975.97822
  22104969.856   -12308827.096 7  -9507126.34922
 91  4 23 22 30 30.0010000  0  4G13G 2G19G 6
  24527792.3644    -110811.00144
  21312857.841       20526.516 8     14017.01923
  22887207.7164   10896836.06646   8491027.59362
  22100833.739   -12330566.138 7  -9524065.81222
 91  4 23 22 30 45.0010000  0  4G13G 2G19G 6
  24517257.5834    -166178.99544        -0.09471
  21313234.747       22499.806 8     15554.66723
  22894068.177    10932901.472 6   8519130.45522
  22096702.731   -12352276.069 7  -9540982.59422
 91  4 23 22 31  0.0010000  0  4G13G 2G19G 6
  24506726.388     -221518.252 4    -43121.28721
  21313621.442       24532.862 8     17138.89023
  22900946.1144   10969035.83046   8547287.03762
  22092577.310   -12373953.390 7  -9557873.96322
 91  4 23 22 31 15.0010000  0  4G13G 2G19G 6
  24496197.4274    -276834.01744    -86224.14961
  21314018.122       26620.012 8     18765.26323
  22907830.310    11005233.556 6   8575493.01022
  22088455.497   -12395603.694 7  -9574744.27922
 91  4 23 22 31 30.0010000  0  4G13G 2G19G 6
  24485677.911     -332120.643 3   -129304.37921
  21314426.724       28766.598 8     20437.95423
  22914734.685    11041500.266 6   8603752.73121
  22084342.146   -12417221.191 7  -9591589.03522
 91  4 23 22 31 45.0010000  0  4G13G 2G19G 6
  24475161.208     -387381.323 4   -172364.30321
  21314845.388       30968.922 8     22154.06923
  22921647.4664   11077832.31546   8632063.36161
  22080235.169   -12438809.197 7  -9608410.80722
 91  4 23 22 32  0.0010000  0  4G13G 2G19G 6
  24464649.622     -442615.056 4   -215403.28721
  21315275.146       33227.453 8     23913.98223
  22928576.935    11114230.172 6   8660425.28321
  22076131.708   -12460367.023 7  -9625209.06322
 91  4 23 22 32 15.0010000  0  5G13G 2G15G19G 6
  24454143.0994    -497822.45644   -258421.72761
  21315716.161       35541.062 8     25716.81423
  24719737.6224     -19465.02545
  22935512.716    11150692.644 6   8688837.54021
  22072034.810   -12481895.787 7  -9641984.67622
 91  4 23 22 32 30.0010000  0  5G13G 2G15G19G 6
  24443644.3024    -552998.68345   -301415.88261
  21316167.599       37914.079 8     27565.93623
  24716055.2394     -38840.22445
  22942467.474    11187224.061 6   8717303.52821
  22067942.552   -12503390.794 7  -9658733.98022
 91  4 23 22 32 45.0010000  0  5G13G 2G15G19G 6
  24433150.021     -608147.467 5   -344388.66621
  21316630.075       40342.432 8     29458.18123
  24712378.927      -58129.259 5        -0.19631
  22949428.349    11223820.493 6   8745820.17721
  22063860.075   -12524855.699 7  -9675459.82622
 91  4 23 22 33  0.0010000  0  5G13G 2G15G19G 6
  24422661.2864    -663266.90845   -387338.59761
  21317104.224       42827.650 8     31394.73523
  24708726.739      -77330.565 5    -14962.07221
  22956404.731    11260483.494 6   8774388.69421
  22059781.786   -12546288.725 7  -9692160.83722
 91  4 23 22 33 15.0010000  0  5G13G 2G15G19G 6
  24412178.2714    -718358.46645   -430266.76361
  21317585.419       45367.730 8     33374.04223
  24705090.169      -96445.677 5    -29856.81521
  22963394.185    11297211.109 6   8803007.56821
  22055711.403   -12567691.695 7  -9708838.42222
 91  4 23 22 33 30.0010000  0  5G13G 2G15G19G 6
  24401697.153     -773417.778 5   -473169.84621
  21318081.114       47966.465 8     35399.04923
  24701471.255     -115470.227 5    -44680.99621
  22970399.7394   11334007.15946   8831679.75861
  22051640.302   -12589060.623 7  -9725489.47922
 91  4 23 22 33 45.0010000  0  5G13G 2G15G19G 6
  24391229.2944    -828444.74545   -516047.67361
  21318584.856       50623.373 8     37469.39023
  24697865.3174    -134404.22245    -59434.61961
  22977411.599    11370871.400 6   8860405.08521
  22047583.880   -12610395.622 7  -9742114.10222
 91  4 23 22 34  0.0010000  0  5G13G 2G15G19G 6
  24380764.1144    -883438.83245   -558899.90661
  21319103.489       53338.745 8     39585.28523
  24694281.560     -153246.966 5    -74117.12121
  22984444.356    11407803.998 6   8889183.68921
  22043530.919   -12631696.168 7  -9758711.87722
 91  4 23 22 34 15.0010000  0  5G13G 2G15G19G 6
  24370305.396     -938400.165 5   -601726.63621
  21319628.638       56111.951 8     41746.24224
  24690711.114     -171998.689 5    -88728.73221
  22991479.997    11444804.497 6   8918015.19721
  22039481.817   -12652962.558 7  -9775283.03422
 91  4 23 22 34 30.0010000  0  5G13G 2G15G19G 6
  24359850.9274    -993331.86845   -644530.24061
  21320168.130       58939.509 8     43949.55624
  24687160.9744    -190662.68745   -103271.94261
  22998532.231    11481869.401 6   8946896.88821
  22035441.458   -12674198.121 7  -9791830.17522
 91  4 23 22 34 45.0010000  0  5G13G 2G15G19G 6
  24349404.255    -1048230.994 5   -687308.49521
  21320718.739       61823.760 8     46197.04624
  24683629.1854    -209235.98145   -117744.49261
  23005599.122    11519001.258 6   8975830.74521
  22031406.638   -12695400.069 7  -9808351.12022
 91  4 23 22 35  0.0010000  0  5G13G 2G15G19G 6
  24338963.927    -1103094.385 5   -730058.89421
  21321276.630       64767.368 8     48490.78424
  24680113.669     -227715.500 5   -132143.95221
  23012679.200    11556202.673 6   9004818.81221
  22027378.646   -12716565.490 7  -9824843.60422
 91  4 23 22 35 15.0010000  0  5G13G 2G15G19G 6
  24328527.6304   -1157928.93545   -772786.82461
  21321845.950       67762.975 8     50825.04424
  24676608.575     -246108.027 5   -146475.64121
  23019770.458    11593466.392 6   9033855.42621
  22023358.177   -12737701.576 7  -9841313.22922
 91  4 23 22 35 30.0010000  0  5G13G 2G15G19G 6
  24318099.4664   -1212729.58245   -815488.35461
  21322428.599       70815.291 8     53203.49524
  24673127.2084    -264408.60845   -160735.70461
  23026873.278    11630797.115 6   9062944.25121
  22019340.372   -12758803.456 7  -9857756.19822
 91  4 23 22 35 45.0010000  0  5G13G 2G15G19G 6
  24307676.5604   -1267495.50245   -858162.78961
  21323019.646       73924.607 8     55626.36024
  24669662.599     -282616.596 5   -174923.57321
  23033990.4974   11668195.42046   9092085.72261
  22015332.106   -12779870.245 7  -9874171.83022
 91  4 23 22 36  0.0010000  0  5G13G 2G15G19G 6
  24297263.466    -1322227.106 4   -900810.48521
  21323622.567       77090.093 8     58092.99423
  24666212.1384    -300732.29545   -189039.54961
  23041119.560    11705660.500 6   9121279.24021
  22011331.474   -12800902.430 7  -9890560.49722
 91  4 23 22 36 15.0010000  0  5G13G 2G15G19G 6
  24286852.9744   -1376921.38945   -943429.05061
  21324234.771       80314.306 8     60605.38723
  24662786.7944    -318752.80145   -203081.35061
  23048262.4744   11743194.76946   9150526.66061
  22007331.888   -12821897.320 7  -9906920.10622
 91  4 23 22 36 30.0010000  0  5G13G 2G15G19G 6
  24276454.669    -1431575.242 5   -986016.18621
  21324860.786       83599.754 8     63165.50023
  24659375.747     -336675.468 5   -217046.89721
  23055418.9744   11780800.77946   9179829.99261
  22003347.052   -12842852.178 7  -9923248.52322
 91  4 23 22 36 45.0010000  0  5G13G 2G15G19G 6
  24266060.927    -1486192.522 5  -1028574.77821
  21325495.966       86942.279 8     65770.08523
  24655981.9354    -354504.03645   -230939.15161
  23062589.8174   11818474.30746   9209185.92061
  21999367.810   -12863771.141 7  -9939548.96523
 91  4 23 22 37  0.0010000  0  5G13G 2G15G19G 6
  24255672.6224   -1540775.03945  -1071106.34061
  21326144.286       90339.568 8     68417.35123
  24652603.778     -372240.223 5   -244759.42721
  23069768.161    11856213.263 6   9238592.85021
  21995391.341   -12884655.903 7  -9955822.76122
 91  4 23 22 37 15.0010000  0  5G13G 2G15G19G 6
  24245294.4974   -1595320.07945  -1113608.68461
  21326800.708       93793.844 8     71109.01224
  24649248.3024    -389881.21645   -258505.47861
  23076962.8724   11894020.08746   9268052.64661
  21991424.747   -12905504.002 7  -9972067.99222
 91  4 23 22 37 30.0010000  0  5G13G 2G15G19G 6
  24234920.177    -1649826.897 5  -1156081.21921
  21327470.700       97305.442 8     73845.34223
  24645912.380     -407426.389 5   -272176.89421
  23084171.5914   11931894.99446   9297565.50861
  21987463.622   -12926314.837 7  -9988284.17522
 91  4 23 22 37 45.0010000  0  5G13G 2G15G19G 6
  24224557.4194   -1704296.06645  -1198524.41461
  21328147.0364     100873.22848     76625.45864
  24642587.2714    -424876.56245   -285774.27961
  23091389.2084   11969836.96146   9327130.60961
  21983511.661   -12947089.207 7 -10004471.95423
 91  4 23 22 38  0.0010000  0  5G13G 2G15G19G 6
  24214196.9584   -1758730.40045  -1240940.49361
  21328838.958      104493.808 8     79446.71124
  24639288.427     -442234.730 5   -299299.95221
  23098624.2944   12007842.71446   9356745.41161
  21979563.099   -12967830.216 7 -10020633.73822
 91  4 23 22 38 15.0010000  0  5G13G 2G15G19G 6
  24203847.528    -1813123.618 5  -1283324.54921
  21329537.5054     108173.00448     82313.64264
  24636002.0054    -459494.74945   -312749.17561
  23105866.6534   12045917.93446   9386414.36261
  21975623.263   -12988531.818 7 -10036764.81622
 91  4 23 22 38 30.0010000  0  5G13G 2G15G19G 6
  24193502.950    -1867477.029 5  -1325677.54021
  21330247.950      111909.208 8     85224.99423
  24632732.177     -476657.749 5   -326122.77821
  23113128.2244   12084061.03346   9416136.19061
  21971689.4194  -13009195.36647 -10052866.24162
 91  4 23 22 38 45.0010000  0  5G13G 2G15G19G 6
  24183164.4504   -1921791.87345  -1368000.52261
  21330969.489      115700.807 8     88179.50924
  24629488.9584    -493725.10745   -339421.86061
  23120397.364    12122270.384 6   9445909.64121
  21967767.7554  -13029822.43047 -10068939.24062
 91  4 23 22 39  0.0010000  0  5G13G 2G15G19G 6
  24172839.0994   -1976063.65245  -1410289.93261
  21331703.208      119551.737 8     91180.25724
  24626260.1924    -510692.30345   -352642.91461
  23127687.2004   12160550.16146   9475737.96961
  21963850.1224  -13050408.50047 -10084980.29462
 91  4 23 22 39 15.0010000  0  5G13G 2G15G19G 6
  24162518.786    -2030296.316 5  -1452548.85921
  21332445.317      123457.527 8     94223.74924
  24623049.3494    -527563.53745   -365789.19361
  23134979.521    12198896.020 6   9505617.79321
  21959938.3724  -13070957.63847 -10100992.57362
 91  4 23 22 39 30.0010000  0  5G13G 2G15G19G 6
  24152204.0674   -2084489.60245  -1494777.10361
  21333200.403      127417.866 8     97309.74924
  24619854.2554    -544338.61845   -378860.52761
  23142290.3564   12237307.72046   9535548.91961
  21956037.1144  -13091469.92347 -10116976.13462
 91  4 23 22 39 45.0010000  0  5G13G 2G15G19G 6
  24141899.974    -2138641.506 5  -1536973.08521
  21333963.060      131434.476 8    100439.59423
  24616681.513     -561015.536 5   -391855.38721
  23149612.849    12275787.005 6   9565532.70021
  21952138.9894  -13111943.56047 -10132929.57662
 91  4 23 22 40  0.0010000  0  5G13G 2G15G19G 6
  24131604.427    -2192753.184 5  -1579137.77121
  21334739.403      135505.639 8    103611.95424
  24613526.419     -577595.421 5   -404774.64121
  23156947.2314   12314332.32346   9595567.94661
  21948251.3104  -13132379.70847 -10148853.81263
 91  4 23 22 40 15.0010000  0  5G13G 2G15G19G 6
  24121313.8414   -2246821.83345  -1621268.88561
  21335523.560      139633.687 8    106828.63524
  24610393.638     -594075.748 5   -417616.31521
  23164293.231    12352945.890 6   9625656.36821
  21944370.4034  -13152775.91647 -10164746.92462
 91  4 23 22 40 30.0010000  0  5G13G 2G15G19G 6
  24111034.255    -2300845.681 5  -1663365.11021
  21336320.981      143820.116 8    110090.81224
  24607273.802     -610454.531 5   -430378.87121
  23171656.2244   12391629.21646   9655799.14761
  21940496.9194  -13173130.45747 -10180607.56562
 91  4 23 22 40 45.0010000  0  5G13G 2G15G19G 6
  24100759.466    -2354832.245 5  -1705432.27221
  21337127.122      148056.875 8    113392.20523
  24604177.3964    -626739.49445   -443068.29961
  23179029.677    12430374.238 6   9685989.99621
  21936629.8494  -13193451.02247 -10196441.73962
 91  4 23 22 41  0.0010000  0  5G13G 2G15G19G 6
  24090495.9114   -2408774.71545  -1747465.06361
  21337943.396      152350.251 8    116737.71624
  24601096.2944    -642924.12645   -455679.58361
  23186414.083    12469187.224 6   9716233.80521
  21932771.1774  -13213731.30047 -10212244.51662
 91  4 23 22 41 15.0010000  0  5G13G 2G15G19G 6
  24080239.364    -2462672.669 5  -1789463.17821
  21338771.583      156700.115 8    120127.24224
  24598033.7474    -659007.80645   -468212.20061
  23193814.8254   12508068.26846   9746530.65161
  21928918.8644  -13233970.67247 -10228015.41762
 91  4 23 22 41 30.0010000  0  5G13G 2G15G19G 6
  24069987.653    -2516528.707 5  -1831428.60621
  21339608.294      161103.374 8    123558.37324
  24594990.778     -674993.481 5   -480668.43521
  23201224.669    12547014.212 6   9776878.06821
  21925075.1384  -13254172.23647 -10243756.86262
 91  4 23 22 41 45.0010000  0  5G13G 2G15G19G 6
  24059748.5834   -2570341.94045  -1873360.71561
  21340457.216      165560.512 8    127031.49424
  24591970.802     -690880.167 5   -493047.54021
  23208650.7084   12586025.62746   9807276.50261
  21921236.981   -13274335.109 7 -10259468.15323
 91  4 23 22 42  0.0010000  0  5G13G 2G15G19G 6
  24049515.0054   -2624112.96145  -1915259.93161
  21341316.356      170070.465 8    130545.76124
  24588966.5604    -706668.39545   -505349.93461
  23216086.083    12625101.652 6   9837725.28421
  21917407.9504  -13294459.94747 -10275149.80863
 91  4 23 22 42 15.0010000  0  5G13G 2G15G19G 6
  24039293.560    -2677836.492 5  -1957122.07421
  21342184.333      174638.031 8    134104.92024
  24585980.5284    -722353.15145   -517571.69461
  23223534.6924   12664246.98846   9868228.06961
  21913585.4034  -13314541.77047 -10290797.94663
 91  4 23 22 42 30.0010000  0  5G13G 2G15G19G 6
  24029078.185    -2731518.426 5  -1998951.87521
  21343062.333      179256.987 8    137704.12624
  24583012.755     -737940.057 5   -529717.22621
  23230996.192    12703455.475 6   9898780.06721
  21909771.1854  -13334586.56547 -10306417.22863
 91  4 23 22 42 45.0010000  0  5G13G 2G15G19G 6
  24018870.606    -2785153.179 5  -2040744.87721
  21343954.294      183932.518 8    141347.42124
  24580066.911     -753423.891 5   -541782.43921
  23238467.3804   12742732.24446   9929385.27561
  21905968.2314  -13354588.74947 -10322003.30963
 91  4 23 22 43  0.0010000  0  5G13G 2G15G19G 6
  24008674.771    -2838739.240 5  -2082499.92721
  21344853.810      188665.721 8    145035.65524
  24577140.528     -768802.957 5   -553766.00921
  23245960.544    12782078.459 6   9960044.59121
  21902168.9814  -13374547.06447 -10337555.20263
 91  4 23 22 43 15.0010000  0  5G13G 2G15G19G 6
  23998484.0364   -2892278.04145  -2124218.14961
  21345765.685      193454.787 8    148767.41624
  24574234.1694    -784078.90745   -565669.25261
  23253456.4974   12821492.25346   9990756.57361
  21898377.4744  -13394463.04947 -10353074.11563
 91  4 23 22 43 30.0010000  0  5G13G 2G15G19G 6
  23988306.333    -2945767.639 5  -2165898.05121
  21346687.606      198300.808 8    152543.55524
  24571349.231     -799250.177 5   -577490.90521
  23260972.310    12860974.921 6  10021522.20421
  21894596.5834  -13414335.23447 -10368558.89463
 91  4 23 22 43 45.0010000  0  5G13G 2G15G19G 6
  23978134.5674   -2999212.49345  -2207543.10161
  21347618.974      203198.835 8    156360.21724
  24568480.013     -814321.497 5   -589234.66721
  23268496.4034   12900521.47146  10052337.64061
  21890822.372   -13434168.313 7 -10384013.19723
 91  4 23 22 44  0.0020000  0  5G13G 2G15G19G 6
  23967971.838    -3052610.700 5  -2249151.74321
  21348562.783      208154.350 8    160221.67424
  24565631.8614    -829288.09945   -600896.85261
  23276035.9324   12940139.80146  10083208.97861
  21887054.5104  -13453958.23047 -10399433.87363
 91  4 23 22 44 15.0020000  0  5G13G 2G15G19G 6
  23957822.9084   -3105955.26745  -2290718.62661
  21349515.502      213166.145 8    164126.98324
  24562802.221     -844148.015 5   -612475.89821
  23283587.2604   12979824.13646  10114131.77561
  21883297.5494  -13473702.43047 -10414818.92263
 91  4 23 22 44 30.0020000  0  5G13G 2G15G19G 6
  23947680.3224   -3159250.97345  -2332247.42261
  21350479.799      218232.620 8    168074.89924
  24559993.041     -858904.100 5   -623974.04821
  23291156.5184   13019575.24546  10145106.58761
  21879550.525   -13493403.647 7 -10430170.47823
 91  4 23 22 44 45.0020000  0  5G13G 2G15G19G 6
  23937546.6194   -3212499.95045  -2373739.82361
  21351455.463      223351.511 8    172063.65824
  24557204.4864    -873558.13245   -635392.65861
  23298726.947    13059390.738 6  10176131.58121
  21875809.658   -13513064.366 7 -10445490.47423
 91  4 23 22 45  0.0020000  0  5G13G 2G15G19G 6
  23927423.5254   -3265699.10345  -2415193.38861
  21352438.275      228525.419 8    176095.28824
  24554438.275     -888107.132 5   -646729.42621
  23306320.8544   13099273.38046  10207208.89361
  21872075.713   -13532681.574 7 -10460776.56623
 91  4 23 22 45 15.0020000  0  5G13G 2G15G19G 6
  23917310.6194   -3318844.71045  -2456605.22461
  21353434.463      233757.747 8    180172.44724
  24551690.088     -902547.432 5   -657981.49021
  23313918.744    13139226.581 6  10238341.18021
  21868351.932   -13552251.302 7 -10476025.66223
 91  4 23 22 45 30.0020000  0  5G13G 2G15G19G 6
  23907208.6894   -3371937.95945  -2497976.27261
  21354441.197      239046.681 8    184293.71424
  24548961.846     -916880.473 5   -669149.99321
  23321537.0254   13179248.47246  10269526.99761
  21864635.549   -13571775.314 7 -10491239.13723
 91  4 23 22 45 45.0020000  0  5G13G 2G15G19G 6
  23897114.221    -3424975.584 5  -2539303.98121
  21355457.955      244395.003 8    188461.24924
  24546255.939     -931102.874 5   -680232.27621
  23329166.041    13219341.956 6  10300768.60021
  21860930.9474  -13591250.49947 -10506414.56663
 91  4 23 22 46  0.0020000  0  5G13G 2G15G19G 6
  23887032.2994   -3477956.71345  -2580587.66761
  21356486.775      249803.205 8    192675.44624
  24543567.525     -945213.888 5   -691227.78021
  23336814.096    13259507.450 6  10332066.31221
  21857235.1744  -13610675.98547 -10521551.26563
 91  4 23 22 46 15.0020000  0  5G13G 2G15G19G 6
  23876961.939    -3530883.645 5  -2621829.08521
  21357529.080      255268.568 8    196934.18324
  24540910.721     -959215.952 5   -702138.35421
  23344465.002    13299742.410 6  10363418.16021
  21853546.9554  -13630054.19047 -10536651.11963
 91  4 23 22 46 30.0020000  0  5G13G 2G15G19G 6
  23866898.174    -3583759.541 5  -2663030.78121
  21358578.713      260787.476 8    201234.64924
  24538258.471     -973112.205 5   -712966.49121
  23352139.0104   13340042.98046  10394821.12561
  21849863.861   -13649388.664 7 -10551716.90023
 91  4 23 22 46 45.0020000  0  5G13G 2G15G19G 6
  23856845.3774   -3636581.96245  -2704190.79661
  21359638.596      266361.885 8    205578.35224
  24535637.7684    -986900.61745   -723710.59761
  23359818.010    13380411.245 6  10426276.83621
  21846195.1044  -13668677.10047 -10566746.80663
 91  4 23 22 47  0.0020000  0  5G13G 2G15G19G 6
  23846805.049    -3689348.266 5  -2745307.08821
  21360710.752      271993.881 8    209966.93624
  24533034.8224   -1000578.66345   -734368.68961
  23367510.1824   13420849.40646  10457787.02261
  21842535.2294  -13687916.96547 -10581738.87063
 91  4 23 22 47 15.0020000  0  5G13G 2G15G19G 6
  23836774.400    -3742059.619 5  -2786380.52721
  21361794.033      277681.715 8    214399.02924
  24530450.9714   -1014147.52745   -744941.71561
  23375218.2054   13461355.86346  10489350.42361
  21838883.080   -13707109.613 7 -10596694.13923
 91  4 23 22 47 30.0020000  0  5G13G 2G15G19G 6
  23826752.4394   -3794717.91745  -2827412.68061
  21362885.924      283423.177 8    218872.91024
  24527888.6744   -1027609.04945   -755431.09361
  23382939.643    13501928.226 6  10520965.18121
  21835238.510   -13726257.193 7 -10611614.28923
 91  4 23 22 47 45.0020000  0  5G13G 2G15G19G 6
  23816744.3144   -3847320.67645  -2868401.53061
  21363989.041      289220.415 8    223390.24824
  24525348.2914   -1040960.98845   -765835.08261
  23390672.494    13542568.432 6  10552632.80121
  21831604.314   -13745357.236 7 -10626497.39023
 91  4 23 22 48  0.0020000  0  5G13G 2G15G19G 6
  23806740.158    -3899869.916 5  -2909348.67221
  21365102.221      295071.016 8    227949.17224
  24522829.619    -1054205.326 5   -776155.24121
  23398420.986    13583274.286 6  10584351.57621
  21827978.7364  -13764411.77247 -10641345.03963
 91  4 23 22 48 15.0020000  0  5G13G 2G15G19G 6
  23796753.5414   -3952364.15145  -2950252.95961
  21366227.5254     300975.68748    232550.22564
  24520328.314    -1067340.766 5   -786390.55921
  23406180.244    13624046.977 6  10616122.42821
  21824360.8694  -13783419.55547 -10656156.25963
 91  4 23 22 48 30.0020000  0  5G13G 2G15G19G 6
  23786774.619    -4004797.756 5  -2991110.02021
  21367360.096      306939.594 8    237197.43924
  24517851.471    -1080361.748 5   -796536.63421
  23413953.7684   13664891.35946  10647949.14561
  21820753.5574  -13802375.37847 -10670926.99363
 91  4 23 22 48 45.0020000  0  5G13G 2G15G19G 6
  23776808.189    -4057176.340 5  -3031924.17721
  21368506.447      312956.976 8    241886.32224
  24515393.385    -1093274.045 5   -806598.06221
  23421737.861    13705801.599 6  10679827.17321
  21817156.8774  -13821284.81247 -10685661.58063
 91  4 23 22 49  0.0020000  0  5G13G 2G15G19G 6
  23766851.502    -4109500.046 5  -3072695.61321
  21369661.166      319027.406 8    246616.54324
  24512957.9714   -1106077.72045   -816574.82961
  23429535.330    13746777.364 6  10711756.26721
  21813568.5104  -13840147.88047 -10700360.03763
 91  4 23 22 49 15.0020000  0  5G13G 2G15G19G 6
  23756902.721    -4161769.480 5  -3113424.72121
  21370825.971      325149.510 8    251387.02724
  24510542.627    -1118773.547 5   -826467.58221
  23437343.486    13787817.396 6  10743735.43621
  21809986.0884  -13858965.68247 -10715023.21963
 91  4 23 22 49 30.0020000  0  5G13G 2G15G19G 6
  23746967.588    -4213984.697 5  -3154111.60721
  21372000.252      331322.860 8    256197.44624
  24508151.557    -1131361.826 5   -836276.51021
  23445166.0804   13828920.96846  10775764.12061
  21806413.8384  -13877738.42047 -10729651.29163
 91  4 23 22 49 45.0020000  0  5G13G 2G15G19G 6
  23737041.525    -4266143.427 5  -3194754.47621
  21373185.260      337549.139 8    261049.11024
  24505772.096    -1143840.532 5   -846000.04421
  23452998.830    13870089.932 6  10807843.75621
  21802849.3614  -13896464.09947 -10744242.69163
 91  4 23 22 50  0.0020000  0  5G13G 2G15G19G 6
  23727129.354    -4318241.244 5  -3235349.86221
  21374380.361      343832.470 8    265945.22624
  24503416.4084   -1156205.20345   -855634.74961
  23460848.463    13911328.447 6  10839977.58821
  21799295.1744  -13915138.26747 -10758793.95763
 91  4 23 22 50 15.0020000  0  5G13G 2G15G19G 6
  23717224.1824   -4370282.49145  -3275901.19861
  21375587.174      350167.837 8    270881.89224
  24501085.2754   -1168460.18945   -865184.00461
  23468707.596    13952631.622 6  10872161.79821
  21795751.6434  -13933765.41747 -10773308.58463
 91  4 23 22 50 30.0020000  0  5G13G 2G15G19G 6
  23707332.260    -4422267.475 5  -3316408.66621
  21376801.510      356554.525 8    275858.54524
  24498772.869    -1180605.914 5   -874648.09221
  23476579.416    13993998.692 6  10904395.80021
  21792215.1114  -13952346.07547 -10787786.98663
 91  4 23 22 50 45.0020000  0  5G13G 2G15G19G 6
  23697448.533    -4474197.299 5  -3356873.15521
  21378027.049      362991.116 8    280874.08924
  24496481.947    -1192643.455 5   -884027.90621
  23484463.768    14035428.459 6  10936678.64921
  21788688.1744  -13970881.39447 -10802230.05763
 91  4 23 22 51  0.0020000  0  5G13G 2G15G19G 6
  23687578.346    -4526070.694 5  -3397293.68821
  21379262.104      369478.521 8    285929.22624
  24494214.4004   -1204571.57445   -893322.42261
  23492358.650    14076921.625 6  10969010.91421
  21785169.8854  -13989370.08047 -10816636.79163
 91  4 23 22 51 15.0020000  0  5G13G 2G15G19G 6
  23677717.5964   -4577887.10245  -3437669.80961
  21380504.939      376016.647 8    291023.88624
  24491962.2684   -1216390.35445   -902531.74961
  23500265.893    14118477.944 6  11001392.38021
  21781660.1354  -14007812.10147 -10831007.16363
 91  4 23 22 51 30.0020000  0  5G13G 2G15G19G 6
  23667867.7684   -4629646.56745  -3478001.58461
  21381758.541      382604.812 8    296157.54224
  24489735.4084   -1228099.54845   -911655.70861
  23508188.479    14160097.128 6  11033822.83921
  21778157.6194  -14026207.47147 -10845341.17963
 91  4 23 22 51 45.0020000  0  5G13G 2G15G19G 6
  23658029.1974   -4681348.74545  -3518288.69061
  21383022.643      389243.250 8    301330.36624
  24487532.760    -1239698.959 5   -920694.09621
  23516119.2444   14201779.11746  11066302.21961
  21774668.1664  -14044556.02847 -10859638.72563
 91  4 23 22 52  0.0020000  0  5G13G 2G15G19G 6
  23648200.486    -4732994.850 5  -3558532.11421
  21384293.760      395930.217 8    306541.00624
  24485342.7134   -1251190.18045   -929648.20661
  23524061.525    14243522.234 6  11098829.24421
  21771187.6974  -14062859.13847 -10873900.85663
 91  4 23 22 52 15.0020000  0  5G13G 2G15G19G 6
  23638384.9554   -4784585.06945  -3598731.99661
  21385575.947      402664.983 8    311788.89724
  24483176.2134   -1262573.28145   -938518.06561
  23532016.994    14285326.064 6  11131403.57921
  21767710.1894  -14081117.17347 -10888127.85963
 91  4 23 22 52 30.0020000  0  5G13G 2G15G19G 6
  23628578.541    -4836113.404 6  -3638883.65921
  21386868.096      409453.275 8    317078.49324
  24481030.2054   -1273842.36045   -947299.06561
  23539985.994    14327196.122 6  11164029.51621
  21764247.1354  -14099324.15847 -10902315.08463
 91  4 23 22 52 45.0020000  0  5G13G 2G15G19G 6
  23618782.6044   -4887579.11446  -3678986.53861
  21388168.729      416295.406 8    322410.04124
  24478910.760    -1284996.827 5   -955990.78221
  23547964.604    14369132.670 6  11196707.26721
  21760790.5804  -14117479.38447 -10916461.97963
 91  4 23 22 53  0.0020000  0  5G13G 2G15G19G 6
  23609002.0254   -4938987.74645  -3719044.93061
  21389480.252      423185.219 8    327778.74624
  24476807.252    -1296042.355 5   -964597.58221
  23555958.1044   14411129.67546  11229432.12061
  21757345.2524  -14135588.80947 -10930573.18363
 91  4 23 22 53 15.0020000  0  5G13G 2G15G19G 6
  23599228.932    -4990337.534 5  -3759057.46721
  21390802.221      430124.175 8    333185.74524
  24474725.229    -1306977.077 5   -973118.05521
  23563959.7754   14453188.56946  11262205.19661
  21753909.6354  -14153650.59947 -10944647.26663
 91  4 23 22 53 30.0020000  0  5G13G 2G15G19G 6
  23589469.299    -5041625.301 5  -3799021.69521
  21392131.635      437114.899 8    338633.07824
  24472668.893    -1317798.043 5   -981549.88721
  23571976.7754   14495312.01046  11295028.56661
  21750479.8934  -14171661.77747 -10958681.91063
 91  4 23 22 53 45.0020000  0  5G13G 2G15G19G 6
  23579720.1824   -5092850.95545  -3838937.50161
  21393471.213      444157.183 8    344120.59224
  24470628.814    -1328505.368 5   -989893.16521
  23580002.963    14537499.781 6  11327902.07321
  21747064.0334  -14189622.38147 -10972677.14863
 91  4 23 22 54  0.0020000  0  5G13G 2G15G19G 6
  23569983.268    -5144017.953 6  -3878807.62221
  21394821.557      451246.908 8    349645.07024
  24468614.252    -1339102.632 6   -998150.69321
  23588043.1824   14579747.65946  11360822.40361
  21743655.7834  -14207536.18847 -10986635.91563
 91  4 23 22 54 15.0020000  0  5G13G 2G15G19G 6
  23560259.6274   -5195122.73645  -3918629.26561
  21396179.760      458387.337 8    355209.06224
  24466619.1274   -1349586.47245  -1006319.85061
  23596095.8304   14622058.94546  11393792.14261
  21740255.5184  -14225399.47547 -11000555.31863
 91  4 23 22 54 30.0020000  0  5G13G 2G15G19G 6
  23550544.588    -5246163.498 5  -3958401.00621
  21397550.252      465579.940 8    360813.70424
  24464644.0104   -1359955.29645  -1014399.35861
  23604161.0184   14664434.87845  11426812.26261
  21736865.705   -14243210.825 7 -11014434.25223
 91  4 23 22 54 45.0020000  0  5G13G 2G15G19G 6
  23540845.057    -5297144.482 6  -3998126.18821
  21398925.447      472820.141 8    366455.43624
  24462693.8224   -1370213.01645  -1022392.29561
  23612235.400    14706871.107 6  11459879.34721
  21733485.908   -14260974.380 7 -11028275.94323
 91  4 23 22 55  0.0020000  0  5G13G 2G15G19G 6
  23531153.807    -5348065.227 6  -4037804.46021
  21400314.533      480107.834 8    372134.17824
  24460761.4004   -1380359.38546  -1030298.46661
  23620323.127    14749367.575 5  11492993.39921
  21730115.049   -14278689.901 7 -11042080.20523
 91  4 23 22 55 15.0020000  0  5G13G 2G15G19G 6
  23521476.400    -5398925.288 6  -4077435.39321
  21401708.611      487442.731 8    377849.69324
  24458853.2134   -1390394.40046  -1038117.87261
  23628421.150    14791924.010 6  11526154.18121
  21726751.861   -14296357.236 7 -11055846.91823
 91  4 23 22 55 30.0020000  0  5G13G 2G15G19G 6
  23511808.9554   -5449722.65846  -4117017.50061
  21403113.580      494826.636 8    383603.40724
  24456963.6354   -1400315.69245  -1045848.66061
  23636534.4084   14834542.20745  11559363.07261
  21723399.5884  -14313974.42547 -11069574.55463
 91  4 23 22 55 45.0020000  0  5G13G 2G15G19G 6
  23502153.439    -5500463.058 6  -4156555.23021
  21404527.049      502253.143 8    389390.31024
  24455096.9794   -1410129.51946  -1053495.70661
  23644650.9714   14877215.76445  11592615.10961
  21720054.8774  -14331547.36947 -11083267.71863
 91  4 23 22 56  0.0020000  0  5G13G 2G15G19G 6
  23492509.8074   -5551143.42446  -4196046.16561
  21405948.713      509725.057 8    395212.59324
  24453250.268    -1419832.783 6  -1061056.59721
  23652782.5574   14919947.47345  11625912.44561
  21716720.0104  -14349073.08847 -11096924.08063
 91  4 23 22 56 15.0020000  0  5G13G 2G15G19G 6
  23482877.7684   -5601762.30646  -4235489.21661
  21407380.135      517243.240 8    401070.93724
  24451423.221    -1429424.450 5  -1068530.54221
  23660925.4324   14962738.19645  11659255.77661
  21713392.916   -14366550.417 7 -11110542.73523
 91  4 23 22 56 30.0020000  0  5G13G 2G15G19G 6
  23473254.6744   -5652321.18646  -4274885.45461
  21408817.838      524805.910 8    406963.94024
  24449620.768    -1438906.169 5  -1075918.78621
  23669077.7054   15005586.17745  11692643.72761
  21710079.7214  -14383980.90447 -11124124.89563
 91  4 23 22 56 45.0020000  0  5G13G 2G15G19G 6
  23463646.549    -5702817.696 6  -4314233.12421
  21410265.900      532415.268 8    412893.32724
  24447835.627    -1448275.440 6  -1083219.43221
  23677244.3144   15048493.29145  11726077.75261
  21706769.5414  -14401362.07147 -11137668.62163
 91  4 23 22 57  0.0020000  0  5G13G 2G15G19G 6
  23454047.932    -5753258.447 6  -4353537.38921
  21411720.158      540064.043 8    418853.42224
  24446073.9864   -1457539.19646  -1090437.84961
  23685422.275    15091452.544 5  11759552.39821
  21703471.8694  -14418700.87747 -11151179.34363
 91  4 23 22 57 15.0020000  0  5G13G 2G15G19G 6
  23444461.1354   -5803634.91346  -4392791.52961
  21413186.854      547760.156 8    424850.40624
  24444333.549    -1466688.863 6  -1097567.37621
  23693606.7364   15134471.93045  11793073.90261
  21700179.4794  -14435988.92347 -11164650.50763
 91  4 23 22 57 30.0020000  0  5G13G 2G15G19G 6
  23434884.0804   -5853949.94146  -4431997.77361
  21414659.854      555500.586 8    430881.92224
  24442614.721    -1475726.954 6  -1104609.95721
  23701806.6114   15177548.43545  11826639.91761
  21696899.9394  -14453228.89947 -11178084.21563
 91  4 23 22 57 45.0020000  0  5G13G 2G15G19G 6
  23425324.502    -5904201.938 6  -4471154.90021
  21416142.1664     563286.28348    436948.71264
  24440913.580    -1484652.430 6  -1111564.79321
  23710010.2604   15220682.99045  11860251.16661
  21693629.8774  -14470419.61547 -11191479.54063
 91  4 23 22 58  0.0020000  0  5G13G 2G15G19G 6
  23415772.4714   -5954392.21346  -4510263.99861
  21417631.252      571115.518 8    443049.42724
  24439238.5024   -1493466.58046  -1118432.88361
  23718232.986    15263873.824 5  11893906.25321
  21690366.2294  -14487562.53447 -11204837.62263
 91  4 23 22 58 15.0020000  0  5G13G 2G15G19G 6
  23406231.1274   -6004519.65046  -4549324.08761
  21419129.244      578989.224 8    449184.79624
  24437582.2134   -1502168.50046  -1125213.51861
  23726461.1744   15307121.63145  11927605.76261
  21687113.7684  -14504656.44247 -11218157.51363
 91  4 23 22 58 30.0020000  0  5G13G 2G15G19G 6
  23396705.3614   -6054587.61246  -4588337.80161
  21420637.166      586903.488 8    455351.76524
  24435945.8934   -1510761.85646  -1131909.53661
  23734704.744    15350422.675 5  11961346.72521
  21683868.6504  -14521705.05947 -11231442.11463
 91  4 23 22 58 45.0020000  0  5G13G 2G15G19G 6
  23387190.1744   -6104590.67146  -4627300.99661
  21422149.6044     594863.12348    461554.08964
  24434331.166    -1519241.460 6  -1138516.94521
  23742949.9004   15393781.78245  11995132.95061
  21680633.3304  -14538702.95247 -11244687.19463
 91  4 23 22 59  0.0020000  0  5G13G 2G15G19G 6
  23377687.5254   -6154529.02046  -4666213.74561
  21423671.533      602867.703 8    467791.43524
  24432740.471    -1527607.405 6  -1145035.78021
  23751217.322    15437198.330 5  12028963.91921
  21677407.3934  -14555650.56247 -11257893.08863
 91  4 23 22 59 15.0020000  0  5G13G 2G15G19G 6
  23368194.4164   -6204403.23846  -4705076.53861
  21425205.3384     610916.14948    474062.96164
  24431167.8074   -1535860.43146  -1151466.62761
  23759484.7914   15480671.29945  12062838.86961
  21674194.3304  -14572548.68047 -11271060.42363
 91  4 23 22 59 30.0020000  0  5G13G 2G15G19G 6
  23358718.0334   -6254213.86846  -4743889.74261
  21426743.0414     619007.39348    480367.83564
  24429622.5964   -1544001.43546  -1157810.18461
  23767768.4394   15524199.68545  12096757.00561
  21670987.2444  -14589397.81547 -11284189.58263
 91  4 23 22 59 45.0020000  0  5G13G 2G15G19G 6
  23349250.9714   -6303958.64246  -4782651.66561
  21428293.2914     627143.27348    486707.48964
  24428094.486    -1552028.143 6  -1164064.66821
  23776062.0184   15567785.27545  12130719.71861
  21667791.5024  -14606195.91747 -11297278.98263
 91  4 23 23  0  0.0020000  0  5G13G 2G15G19G 6
  23339797.479    -6353636.729 6  -4821361.63321
  21429849.3304     635324.19848    493082.24564
  24426587.3854   -1559939.90246  -1170229.60961
  23784370.0184   15611428.48145  12164727.30661
  21664604.7134  -14622942.14447 -11310327.95863
 91  4 23 23  0 15.0020000  0  5G13G 2G15G19G 6
  23330356.791    -6403249.155 6  -4860020.42021
  21431415.635      643548.905 8    499491.11724
  24425101.4864   -1567737.64946  -1176305.67061
  23792683.1194   15655128.06345  12198778.82961
  21661427.8384  -14639637.60447 -11323337.37563
 91  4 23 23  0 30.0020000  0  5G13G 2G15G19G 6
  23320925.8224   -6452794.39246  -4898626.85361
  21432988.869      651818.361 8    505934.86224
  24423640.5184   -1575420.06345  -1182291.87961
  23801010.9004   15698884.90645  12232874.97761
  21658260.0254  -14656281.00847 -11336306.22963
 91  4 23 23  0 45.0020000  0  5G13G 2G15G19G 6
  23311511.3074   -6502270.45246  -4937179.37961
  21434570.760      660134.162 8    512414.72124
  24422203.7214   -1582985.27246  -1188186.74961
  23809347.916    15742700.587 5  12267016.98021
  21655102.3854  -14672870.48047 -11349233.05863
 91  4 23 23  1  0.0020000  0  5G13G 2G15G19G 6
  23302109.643    -6551677.028 6  -4975677.79421
  21436162.549      668496.161 8    518930.57524
  24420783.947    -1590433.117 5  -1193990.19221
  23817699.213    15786574.940 5  12301204.68521
  21651956.6974  -14689405.82047 -11362117.70863
 91  4 23 23  1 15.0020000  0  5G13G 2G15G19G 6
  23292719.729    -6601016.333 6  -5014123.76021
  21437761.6044     676901.60648    525480.28464
  24419390.127    -1597766.177 6  -1199704.17321
  23826054.8304   15830505.19045  12335435.95861
  21648820.2444  -14705889.50547 -11374962.10963
 91  4 23 23  1 30.0020000  0  5G13G 2G15G19G 6
  23283344.291    -6650284.625 6  -5052514.39021
  21439369.9554     685354.14948    532066.68864
  24418016.2994   -1604980.39245  -1205325.55461
  23834429.674    15874495.058 5  12369713.66621
  21645691.0104  -14722317.50247 -11387763.11563
 91  4 23 23  1 45.0020000  0  5G13G 2G15G19G 6
  23273982.877    -6699483.003 6  -5090850.56521
  21440988.104      693851.961 8    538688.37124
  24416667.7914   -1612077.40946  -1210855.61261
  23842810.8774   15918542.79745  12404036.48561
  21642578.0884  -14738691.39447 -11400521.96263
 91  4 23 23  2  0.0020000  0  5G13G 2G15G19G 6
  23264631.8694   -6748614.59046  -5129134.69461
  21442611.5254     702391.54048    545342.59664
  24415337.9864   -1619060.29845  -1216296.73161
  23851205.104    15962644.974 5  12438401.73021
  21639471.5574  -14755014.20247 -11413241.00363
 91  4 23 23  2 15.0020000  0  5G13G 2G15G19G 6
  23255298.3614   -6797671.51646  -5167360.61961
  21444245.7214     710980.51848    552035.31763
  24414030.7364   -1625921.44845  -1221642.98861
  23859606.861    16006808.897 5  12472815.08021
  21636374.9794  -14771278.18447 -11425914.20863
 91  4 23 23  2 30.0020000  0  5G13G 2G15G19G 6
  23245975.7444   -6846657.21646  -5205531.07961
  21445889.0334     719614.89148    558763.40864
  24412747.846    -1632664.426 6  -1226897.18121
  23868023.041    16051030.498 5  12507273.35921
  21633291.9394  -14787487.08747 -11438544.49463
 91  4 23 23  2 45.0020000  0  5G13G 2G15G19G 6
  23236668.189    -6895571.332 6  -5243645.75421
  21447540.3074     728294.62648    565526.84563
  24411486.947    -1639289.174 6  -1232059.22821
  23876448.0644   16095309.63245  12541776.48261
  21630219.6824  -14803640.56247 -11451131.59263
 91  4 23 23  3  0.0020000  0  5G13G 2G15G19G 6
  23227374.213    -6944412.482 6  -5281703.54921
  21449201.025      737020.704 8    572326.39823
  24410247.1744   -1645794.09145  -1237127.91161
  23884884.736    16139647.418 5  12576325.30421
  21627154.4244  -14819737.28847 -11463674.46663
 91  4 23 23  3 15.0020000  0  5G13G 2G15G19G 6
  23218094.6744   -6993182.74746  -5319706.14061
  21450871.6354     745790.58948    579160.08264
  24409035.877    -1652181.594 6  -1242105.08521
  23893334.4714   16184041.36345  12610917.89761
  21624100.4474  -14835779.46847 -11476174.83563
 91  4 23 23  3 30.0020000  0  5G13G 2G15G19G 6
  23208824.635    -7041882.303 6  -5357653.63421
  21452547.4714     754603.52148    586027.30964
  24407838.807    -1658452.216 6  -1246991.21421
  23901790.8144   16228490.72245  12645553.66161
  21621061.1274  -14851767.60547 -11488633.09263
 91  4 23 23  3 45.0020000  0  5G13G 2G15G19G 6
  23199572.244    -7090509.851 6  -5395544.99021
  21454232.908      763460.556 8    592928.90524
  24406668.361    -1664604.815 6  -1251785.36021
  23910260.5494   16272996.41745  12680233.31461
  21618027.4324  -14867700.35047 -11501048.18863
 91  4 23 23  4  0.0020000  0  5G13G 2G15G19G 6
  23190331.479    -7139063.110 6  -5433378.49621
  21455926.611      772363.638 8    599866.38524
  24405522.221    -1670637.031 6  -1256485.71121
  23918743.2364   16317560.55145  12714958.51361
  21615008.6664  -14883575.34847 -11513418.29363
 91  4 23 23  4 15.0020000  0  5G13G 2G15G19G 6
  23181107.0104   -7187544.75046  -5471156.16661
  21457628.1194     781309.64448    606837.30563
  24404394.4794   -1676551.57446  -1261094.34861
  23927233.018    16362179.745 5  12749726.61221
  21611996.4864  -14899395.62247 -11525745.74763
 91  4 23 23  4 30.0020000  0  5G13G 2G15G19G 6
  23171895.9004   -7235953.71346  -5508877.22261
  21459339.5644     790299.31848    613842.25263
  24403293.486    -1682347.270 6  -1265610.39921
  23935734.682    16406854.870 5  12784538.28921
  21608998.3614  -14915159.82747 -11538029.51663
 91  4 23 23  4 45.0020000  0  5G13G 2G15G19G 6
  23162696.088    -7284289.780 6  -5546541.48321
  21461058.674      799332.100 8    620880.79724
  24402208.0414   -1688024.57845  -1270034.20261
  23944245.424    16451585.213 5  12819392.99921
  21606008.4164  -14930868.37347 -11550269.91063
 91  4 23 23  5  0.0020000  0  5G13G 2G15G19G 6
  23153512.6194   -7332550.95146  -5584147.36061
  21462786.1974     808409.58848    627954.17364
  24401155.229    -1693581.714 5  -1274364.36521
  23952768.494    16496372.580 5  12854292.13021
  21603030.979   -14946519.232 7 -11562465.35823
 91  4 23 23  5 15.0020000  0  5G13G 2G15G19G 6
  23144343.080    -7380738.482 6  -5621695.88821
  21464522.2754     817530.37848    635061.29264
  24400118.252    -1699020.030 5  -1278601.92921
  23961302.400    16541215.217 5  12889234.35221
  21600062.2524  -14962113.61347 -11574616.79363
 91  4 23 23  5 30.0020000  0  5G13G 2G15G19G 6
  23135186.229    -7428853.140 6  -5659187.60121
  21466266.002      826693.259 8    642201.21124
  24399107.518    -1704340.190 6  -1282747.42621
  23969846.627    16586111.878 5  12924218.66621
  21597105.4084  -14977652.46647 -11586724.96263
 91  4 23 23  5 45.0020000  0  5G13G 2G15G19G 6
  23126045.135    -7476892.213 6  -5696620.42921
  21468017.6664     835900.49348    649375.68564
  24398116.650    -1709539.618 6  -1286798.84921
  23978400.8464   16631064.76945  12959246.77761
  21594158.0884  -14993133.12647 -11598787.78063
 91  4 23 23  6  0.0020000  0  5G13G 2G15G19G 6
  23116915.799    -7524852.563 6  -5733991.92621
  21469776.9794     845154.90748    656586.92464
  24397150.236    -1714615.435 5  -1290753.96321
  23986966.557    16676076.842 5  12994321.00621
  21591225.7294  -15008552.55047 -11610802.88963
 91  4 23 23  6 15.0020000  0  5G13G 2G15G19G 6
  23107805.0884   -7572738.02246  -5771305.05161
  21471547.1974     854452.07448    663831.48164
  24396207.0254   -1719571.82945  -1294616.01261
  23995541.947    16721143.615 5  13029437.87621
  21588302.4794  -15023914.75947 -11622773.41363
 91  4 23 23  6 30.0020000  0  5G13G 2G15G19G 6
  23098707.1584   -7620544.17546  -5808556.39861
  21473324.736      863795.867 8    671112.37124
  24395290.4004   -1724404.58546  -1298381.72461
  24004130.1114   16766268.84645  13064600.29161
  21585390.1584  -15039215.72547 -11634696.21563
 91  4 23 23  6 45.0020000  0  5G13G 2G15G19G 6
  23089625.189    -7668273.475 6  -5845747.83321
  21475111.455      873183.537 8    678427.45024
  24394393.908    -1729116.279 6  -1302053.10821
  24012728.6274   16811449.92445  13099806.22061
  21582489.4714  -15054457.84047 -11646573.15763
 91  4 23 23  7  0.0020000  0  5G13G 2G15G19G 6
  23080556.4554   -7715926.41546  -5882879.80961
  21476906.768      882614.286 8    685776.09624
  24393519.572    -1733707.455 5  -1305630.58021
  24021336.1354   16856685.97545  13135054.99561
  21579600.6194  -15069641.56047 -11658404.59963
 91  4 23 23  7 15.0020000  0  5G13G 2G15G19G 6
  23071503.2604   -7763499.93646  -5919949.87561
  21478710.268      892090.685 8    693160.31524
  24392667.0334   -1738175.09345  -1309111.77161
  24029954.002    16901979.592 5  13170348.61521
  21576721.9554  -15084763.91947 -11670188.22563
 91  4 23 23  7 30.0020000  0  5G13G 2G15G19G 6
  23062465.674    -7810994.588 6  -5956958.46821
  21480521.6354     901611.80948    700579.37964
  24391843.2444   -1742520.00445  -1312497.35661
  24038583.822    16947329.744 5  13205686.28821
  21573856.3144  -15099825.50847 -11681924.49863
 91  4 23 23  7 45.0020000  0  5G13G 2G15G19G 6
  23053442.7214   -7858410.37246  -5993905.65461
  21482341.057      911177.300 8    708033.02324
  24391037.432    -1746742.489 6  -1315787.52321
  24047225.4554   16992735.96745  13241067.65861
  21570998.3384  -15114826.59047 -11693613.61563
 91  4 23 23  8  0.0020000  0  5G13G 2G15G19G 6
  23044435.9714   -7905746.76146  -6030790.94761
  21484171.510      920787.237 8    715521.30024
  24390257.174    -1750841.962 5  -1318981.85721
  24055878.4714   17038198.24345  13276492.70861
  21568157.9944  -15129766.55747 -11705255.12163
 91  4 23 23  8 15.0020000  0  5G13G 2G15G19G 6
  23035442.916    -7953000.271 6  -6067611.65221
  21486008.2604     930444.73048    723046.62564
  24389504.877    -1754815.148 6  -1322077.75121
  24064538.791    17083719.626 5  13311963.80421
  21565325.721   -15144642.193 7 -11716846.50123
 91  4 23 23  8 30.0020000  0  5G13G 2G15G19G 6
  23026465.025    -8000178.461 6  -6104373.68921
  21487854.4394     940142.03448    730602.97464
  24388768.2914   -1758669.90846  -1325081.39861
  24073211.8464   17129292.07645  13347474.69861
  21562509.1194  -15159460.96347 -11728393.56263
 91  4 23 23  8 45.0020000  0  5G13G 2G15G19G 6
  23017502.377    -8047277.551 6  -6141074.08521
  21489708.697      949882.538 8    738192.99224
  24388059.166    -1762402.224 6  -1327989.62421
  24081893.893    17174919.183 5  13383028.17821
  21559697.6744  -15174219.00947 -11739893.30663
 91  4 23 23  9  0.0020000  0  5G13G 2G15G19G 6
  23008553.807    -8094300.559 6  -6177715.17721
  21491568.158      959662.435 8    745813.70224
  24387369.5184   -1766015.63146  -1330805.20761
  24090587.0724   17220597.30945  13418621.43161
  21556901.8464  -15188919.98947 -11751348.58163
 91  4 23 23  9 15.0020000  0  5G13G 2G15G19G 6
  22999620.072    -8141241.874 6  -6214292.63321
  21493438.229      969486.938 8    753469.17023
  24386705.4394   -1769504.56646  -1333523.78361
  24099287.1894   17266331.68145  13454258.50061
  21554115.4164  -15203558.06647 -11762754.84163
 91  4 23 23  9 30.0020000  0  5G13G 2G15G19G 6
  22990704.5254   -8188098.94746  -6250804.45061
  21495316.0254     979358.32848    761161.17363
  24386065.5024   -1772866.69346  -1336143.55961
  24108007.3384   17312124.41245  13489941.03361
  21551342.3614  -15218130.74447 -11774110.14363
 91  4 23 23  9 45.0020000  0  5G13G 2G15G19G 6
  22981802.604    -8234871.879 6  -6287250.69421
  21497203.854      989276.087 8    768889.30824
  24385452.3854   -1776102.19146  -1338664.66361
  24116727.7604   17357975.00545  13525668.66461
  21548582.9794  -15232638.13147 -11785414.56263
 91  4 23 23 10  0.0020000  0  5G13G 2G15G19G 6
  22972916.377    -8281564.072 6  -6323634.02421
  21499099.354      999236.364 8    776650.57523
  24384857.7684   -1779214.77946  -1341089.99461
  24125466.2754   17403879.36245  13561438.18661
  21545834.4324  -15247084.08647 -11796671.11563
 91  4 23 23 10 15.0020000  0  5G13G 2G15G19G 6
  22964048.861    -8328175.333 6  -6359954.28821
  21501003.111     1009239.005 8    784444.85623
  24384288.4944   -1782204.46846  -1343419.56961
  24134209.002    17449837.450 5  13597249.58521
  21543094.2754  -15261468.27847 -11807879.54263
 91  4 23 23 10 30.0020000  0  5G13G 2G15G19G 6
  22955192.924    -8374701.892 6  -6396208.57021
  21502916.1664    1019287.23048    792274.65063
  24383742.5254   -1785067.68746  -1345650.58661
  24142964.377    17495852.312 5  13633105.20921
  21540371.8144  -15275787.21047 -11819037.11663
 91  4 23 23 10 45.0020000  0  5G13G 2G15G19G 6
  22946355.721    -8421141.599 6  -6432395.16021
  21504836.127     1029383.097 8    800141.57223
  24383224.744    -1787802.380 6  -1347781.45121
  24151733.8614   17541925.70245  13669006.42161
  21537658.1894  -15290038.64447 -11830142.09763
 91  4 23 23 11  0.0020000  0  5G13G 2G15G19G 6
  22937537.104    -8467492.046 6  -6468512.18721
  21506765.822     1039528.637 8    808047.20223
  24382729.0724   -1790406.14446  -1349810.29561
  24160514.7604   17588059.79045  13704954.94861
  21534958.0574  -15304220.25547 -11841192.66564
 91  4 23 23 11 15.0020000  0  5G13G 2G15G19G 6
  22928733.275    -8513753.956 6  -6504560.25121
  21508707.002     1049722.490 8    815990.47824
  24382258.1504   -1792880.00645  -1351737.92561
  24169302.0804   17634253.22945  13740949.73161
  21532274.2214  -15318332.88847 -11852189.49063
 91  4 23 23 11 30.0020000  0  5G13G 2G15G19G 6
  22919947.119    -8559923.995 6  -6540536.71421
  21510656.908     1059967.408 8    823973.54423
  24381812.4084   -1795221.10646  -1353562.11261
  24178111.002    17680508.899 5  13776993.00521
  21529603.3304  -15332373.53447 -11863130.21563
 91  4 23 23 11 45.0020000  0  5G13G 2G15G19G 6
  22911177.7054   -8606003.97346  -6576443.00261
  21512616.518     1070261.591 8    831995.00124
  24381392.455    -1797431.121 6  -1355284.14521
  24186918.4864   17726824.91345  13813083.27761
  21526946.1584  -15346343.79747 -11874016.09664
 91  4 23 23 12  0.0020000  0  5G13G 2G15G19G 6
  22902424.7054   -8651995.81546  -6612280.61861
  21514582.4794    1080602.60548    840052.94264
  24380996.174    -1799512.266 6  -1356905.76321
  24195742.4474   17773198.36045  13849218.30861
  21524297.6354  -15360245.74047 -11884848.74363
 91  4 23 23 12 15.0020000  0  5G13G 2G15G19G 6
  22893692.4634   -8697894.90846  -6648045.96561
  21516558.8934    1090994.51048    848150.54064
  24380623.791    -1801460.130 6  -1358423.53021
  24204579.2294   17819633.60445  13885401.50261
  21521668.2134  -15374075.00047 -11895624.75964
 91  4 23 23 12 30.0020000  0  5G13G 2G15G19G 6
  22884973.6744   -8743708.32146  -6683744.54361
  21518545.744     1101429.890 8    856282.01724
  24380277.564    -1803281.811 6  -1359842.96921
  24213427.877    17866123.200 5  13921627.02521
  21519049.1744  -15387838.62547 -11906349.62764
 91  4 23 23 12 45.0020000  0  5G13G 2G15G19G 6
  22876273.2364   -8789433.41646  -6719374.30661
  21520540.385     1111911.178 8    864449.26724
  24379956.6744   -1804974.97346  -1361162.26461
  24222283.6894   17912669.46045  13957896.73361
  21516441.2294  -15401533.95547 -11917021.27664
 91  4 23 23 13  0.0020000  0  5G13G 2G15G19G 6
  22867586.9394   -8835066.24146  -6754932.17361
  21522544.744     1122442.018 8    872655.12824
  24379660.041    -1806535.489 6  -1362378.20221
  24231153.658    17959275.741 5  13994213.19321
  21513848.9004  -15415157.06247 -11927636.65564
 91  4 23 23 13 15.0020000  0  5G13G 2G15G19G 6
  22858920.5494   -8880610.29646  -6790420.87961
  21524557.0964    1133018.37648    880896.45764
  24379386.2994   -1807967.36946  -1363493.89661
  24240035.166    18005938.091 5  14030573.35421
  21511272.2604  -15428711.78647 -11938198.73964
 91  4 23 23 13 30.0020000  0  5G13G 2G15G19G 6
  22850270.6584   -8926061.31746  -6825837.07561
  21526578.291     1143644.163 8    889176.30324
  24379133.4324   -1809266.57945  -1364506.22161
  24248927.2834   18052660.51445  14066980.30461
  21508705.9794  -15442193.68847 -11948704.08764
 91  4 23 23 13 45.0020000  0  5G13G 2G15G19G 6
  22841639.4084   -8971423.89746  -6861184.37161
  21528608.7754    1154314.37748    897490.76264
  24378915.111    -1810437.674 6  -1365418.71721
  24257825.791    18099437.742 5  14103429.95921
  21506151.5884  -15455607.65647 -11959156.49564
 91  4 23 23 14  0.0020000  0  5G13G 2G15G19G 6
  22833025.7364   -9016695.79246  -6896461.01361
  21530649.8144    1165030.97948    905841.36764
  24378717.8934   -1811478.70646  -1366229.87761
  24266741.0644   18146271.68245  14139923.82861
  21503611.8934  -15468951.44047 -11969554.21964
 91  4 23 23 14 15.0020000  0  5G13G 2G15G19G 6
  22824428.260    -9061877.118 6  -6931667.06921
  21532695.8694    1175793.12248    914227.46264
  24378542.033    -1812389.970 6  -1366939.92321
  24275660.3304   18193161.84845  14176461.50261
  21501086.5104  -15482225.25147 -11979897.42164
 91  4 23 23 14 30.0020000  0  5G13G 2G15G19G 6
  22815847.252    -9106969.908 6  -6966804.14021
  21534753.9714    1186598.72548    922647.42064
  24378397.393    -1813173.564 6  -1367550.44921
  24284594.299    18240105.710 5  14213041.01021
  21498574.0024  -15495431.08947 -11990187.65464
 91  4 23 23 14 45.0020000  0  5G13G 2G15G19G 6
  22807281.939    -9151972.891 6  -7001871.23821
  21536816.8464    1197448.67748    931101.93564
  24378271.8544   -1813828.39346  -1368060.67361
  24293538.455    18287104.131 5  14249663.04121
  21496074.010   -15508567.657 7 -12000423.91524
 91  4 23 23 15  0.0020000  0  5G13G 2G15G19G 6
  22798735.689    -9196883.324 6  -7036866.21421
  21538891.0334    1208345.03248    939592.61364
  24378171.2054   -1814352.16046  -1368468.75761
  24302492.9244   18334159.06745  14286329.09761
  21493587.2834  -15521632.68547 -12010604.42864
 91  4 23 23 15 15.0020000  0  5G13G 2G15G19G 6
  22790205.885    -9241706.072 6  -7071792.87721
  21540971.8144    1219282.65948    948115.44464
  24378092.502    -1814749.900 6  -1368778.64121
  24311457.963    18381265.247 5  14323035.09321
  21491112.6354  -15534630.99847 -12020732.95563
 91  4 23 23 15 30.0020000  0  5G13G 2G15G19G 6
  22781693.9244   -9286436.68246  -7106647.72761
  21543061.4714    1230265.75448    956673.70364
  24378041.689    -1815017.059 6  -1368986.78821
  24320432.518    18428427.119 5  14359784.47921
  21488651.729   -15547557.995 7 -12030805.91323
 91  4 23 23 15 45.0020000  0  5G13G 2G15G19G 6
  22773198.4864   -9331072.17746  -7141428.48861
  21545162.0804    1241296.85548    965269.37164
  24378017.932    -1815150.997 6
  24329414.4634   18475647.15445  14396579.18861
  21486209.104   -15560410.916 7 -12040821.15124
 91  4 23 23 16  0.0020000  0  5G13G 2G15G19G 6
  22764724.541    -9375614.505 6  -7176136.63921
  21547269.8304    1252373.98148    973900.90464
  24378017.635    -1815153.920 6
  24338413.3384   18522922.98445  14433417.36461
  21483777.158   -15573191.470 7 -12050780.00123
 91  4 23 23 16 15.0020000  0  5G13G 2G15G19G 6
  22756265.4084   -9420063.78946  -7210772.29161
  21549387.0884    1263496.43748    982567.76064
  24378044.0964   -1815026.13946
  24347420.9394   18570253.82745  14470298.43061
  21481358.979   -15585900.175 7 -12060682.86223
 91  4 23 23 16 30.0020000  0  5G13G 2G15G19G 6
  22747824.5884   -9464417.15646  -7245333.21161
  21551510.5184    1274666.62248    991271.80564
  24378094.877    -1814764.853 6
  24356444.5644   18617642.15945  14507224.27761
  21478952.604   -15598534.181 7 -12070527.51723
 91  4 23 23 16 45.0020000  0  5G13G 2G15G19G 6
  22739401.775    -9508678.580 6  -7279822.46521
  21553644.4394    1285880.03648   1000009.53464
  24378168.6664   -1814374.57446  -1368485.94861
  24365466.7754   18665083.36945  14544191.32661
  21476562.799   -15611097.722 7 -12080317.27123
 91  4 23 23 17  0.0020000  0  5G13G 2G15G19G 6
  22730996.0184   -9552844.84346  -7314237.58161
  21555788.4244    1297139.78648   1008783.36664
  24378265.893    -1813851.914 6  -1368078.63821
  24374504.0414   18712580.32745  14581201.80761
  21474186.963   -15623587.411 7 -12090049.47324
 91  4 23 23 17 15.0020000  0  5G13G 2G15G19G 6
  22722611.1824   -9596919.48146  -7348581.30861
  21557939.5494    1308441.95848   1017590.25964
  24378388.5644   -1813200.63846  -1367571.11661
  24383551.2364   18760129.25045  14618252.79261
  21471822.611   -15636006.911 7 -12099726.98123
 91  4 23 23 17 30.0020000  0  5G13G 2G15G19G 6
  22714241.4084   -9640899.12146  -7382850.99461
  21560098.3774    1319789.22648   1026432.29064
  24378536.010    -1812417.601 6  -1366960.91421
  24392609.463    18807732.975 5  14655346.46421
  21469475.682   -15648352.898 7 -12109347.21723
 91  4 23 23 17 45.0020000  0  5G13G 2G15G19G 6
  22705888.814    -9684783.381 6  -7417046.37621
  21562265.8304    1331181.73148   1035309.57264
  24378712.1274   -1811502.67046  -1366247.92861
  24401681.619    18855391.281 5  14692482.70521
  21467137.760   -15660625.142 7 -12118909.97323
 91  4 23 23 18  0.0020000  0  5G13G 2G15G19G 6
  22697556.6354   -9728577.14646  -7451171.22861
  21564441.1044    1342614.26148   1044218.04364
  24378913.0024   -1810460.83246  -1365436.07561
  24410761.5414   18903099.04645  14729657.46261
  21464817.307   -15672828.487 7 -12128419.05424
 91  4 23 23 18 15.0020000  0  5G13G 2G15G19G 6
  22689240.9554   -9772274.76346  -7485221.16761
  21566627.6274    1354091.94348   1053161.69664
  24379133.479    -1809286.828 6  -1364521.21621
  24419848.6894   18950861.26145  14766874.65061
  21462508.119   -15684957.705 7 -12137870.37024
 91  4 23 23 18 30.0020000  0  5G13G 2G15G19G 6
  22680943.3934   -9815877.31146  -7519197.03661
  21568819.4634    1365613.56448   1062139.58564
  24379381.2134   -1807981.79546  -1363504.27861
  24428945.3384   18998676.65945  14804133.28561
  21460212.166   -15697013.521 7 -12147264.48824
 91  4 23 23 18 45.0020000  0  5G13G 2G15G19G 6
  22672664.7444   -9859379.83846  -7553094.95761
  21571020.4944    1377183.69048   1071155.27464
  24379658.9004   -1806540.87646  -1362381.43761
  24438057.5024   19046549.58445  14841436.70961
  21457935.760   -15708991.155 7 -12156597.68924
 91  4 23 23 19  0.0020000  0  5G13G 2G15G19G 6
  22664404.502    -9902784.872 6  -7586916.91721
  21573230.8934    1388799.67948   1080206.69464
  24379956.619    -1804966.528 6  -1361154.62521
  24447175.885    19094477.318 5  14878782.88721
  21455669.729   -15720892.923 7 -12165871.77223
 91  4 23 23 19 15.0020000  0  5G13G 2G15G19G 6
  22656162.7294   -9946093.37046  -7620663.66561
  21575450.0574    1400459.77148   1089292.48464
  24380282.799    -1803260.314 6  -1359825.05721
  24456310.111    19142458.116 5  14916170.38021
  21453418.814   -15732720.250 7 -12175087.85023
 91  4 23 23 19 30.0020000  0  5G13G 2G15G19G 6
  22647941.4944   -9989302.13646  -7654332.68061
  21577677.7444    1412166.90448   1098414.92764
  24380630.338    -1801419.327 6  -1358390.48821
  24465449.518    19190494.649 5  14953601.33221
  21451181.768   -15744469.997 7 -12184243.47623
 91  4 23 23 19 45.0020000  0  5G13G 2G15G19G 6
  22639738.111   -10032411.881 6  -7687924.55321
  21579912.6434    1423920.27948   1107573.40664
  24381008.705    -1799444.296 6  -1356851.45921
  24474599.869    19238586.165 5  14991075.09521
  21448961.385   -15756142.614 7 -12193339.00023
 91  4 23 23 20  0.0020000  0  5G13G 2G15G19G 6
  22631552.119   -10075426.091 6  -7721441.98121
  21582159.2994    1435715.87548   1116764.78564
  24381406.5024   -1797338.87146  -1355210.82761
  24483760.4474   19286728.65845  15028588.61361
  21446754.330   -15767741.832 7 -12202377.33023
 91  4 23 23 20 15.0020000  0  5G13G 2G15G19G 6
  22623385.557   -10118344.327 6  -7754884.62321
  21584410.4164    1447553.65848   1125989.03664
  24381832.588    -1795102.769 6  -1353468.36321
  24492934.236    19334922.046 5  15066141.76021
  21444561.518   -15779267.247 7 -12211358.14623
 91  4 23 23 20 30.0020000  0  5G13G 2G15G19G 6
  22615235.588   -10161168.455 6  -7788253.93521
  21586672.3774    1459431.52248   1135244.51664
  24382284.1744   -1792738.11746  -1351625.73361
  24502116.4864   19383163.94345  15103732.72361
  21442381.486   -15790720.856 7 -12220283.01823
 91  4 23 23 20 45.0020000  0  5G13G 2G15G19G 6
  22607106.025   -10203894.626 6  -7821546.92221
  21588939.9004    1471352.97148   1144533.96264
  24382758.268    -1790241.503 6  -1349680.28121
  24511301.7994   19431457.67045  15141364.07761
  21440217.072   -15802098.887 7 -12229148.99023
 91  4 23 23 21  0.0020000  0  5G13G 2G15G19G 6
  22598992.471   -10246523.540 6  -7854764.12421
  21591216.4394    1483316.83448   1153856.45264
  24383255.830    -1787613.671 6  -1347632.57921
  24520504.619    19479801.981 5  15179034.82021
  21438065.377   -15813402.114 7 -12237956.67423
 91  4 23 23 21 15.0020000  0  5G13G 2G15G19G 6
  22590899.947   -10289054.855 6  -7887905.26621
  21593501.7524    1495323.18548   1163212.05564
  24383785.0414   -1784854.53746  -1345482.56461
  24529711.4714   19528197.00745  15216745.12061
  21435928.9324  -15824630.24947 -12246705.84663
 91  4 23 23 21 30.0020000  0  5G13G 2G15G19G 6
  22582822.619   -10331491.571 6  -7920972.70221
  21595792.5964    1507368.73648   1172598.20564
  24384333.7294   -1781967.12746  -1343232.58361
  24538931.010    19576639.642 5  15254492.47521
  21433804.291   -15835786.017 7 -12255398.62423
 91  4 23 23 21 45.0020000  0  5G13G 2G15G19G 6
  22574767.768   -10373831.291 6  -7953964.56021
  21598092.2134    1519455.30248   1182016.30964
  24384902.947    -1778949.350 6  -1340881.03421
  24548158.8694   19625131.61145  15292278.31361
  21431697.674   -15846867.408 7 -12264033.45523
 91  4 23 23 22  0.0020000  0  5G13G 2G15G19G 6
  22566729.7524  -10416070.61346  -7986878.18661
  21600401.8074    1531586.22248   1191468.97764
  24385507.127    -1775798.055 6  -1338425.42921
  24557400.0964   19673675.83145  15330104.85061
  21429603.604   -15857870.870 7 -12272607.55523
 91  4 23 23 22 15.0020000  0  5G13G 2G15G19G 6
  22558709.275   -10458216.336 6  -8019718.88121
  21602715.8144    1543754.30948   1200950.60764
  24386131.5884   -1772520.38546  -1335871.37061
  24566642.033    19722264.970 5  15367966.36921
  21427522.275   -15868803.572 7 -12281126.52223
 91  4 23 23 22 30.0020000  0  5G13G 2G15G19G 6
  22550707.643   -10500260.749 6  -8052480.61521
  21605042.0024    1555966.55048   1210466.64264
  24386781.807    -1769108.788 6  -1333212.94621
  24575902.111    19770906.190 5  15405868.47021
  21425458.885   -15879657.750 7 -12289584.30423
 91  4 23 23 22 45.0020000  0  5G13G 2G15G19G 6
  22542725.4634  -10542211.15346  -8085169.11661
  21607372.3694    1568215.49648   1220011.28064
  24387450.4634   -1765570.82646  -1330456.07561
  24585162.658    19819591.954 5  15443805.30021
  21423405.088   -15890440.726 7 -12297986.59923
 91  4 23 23 23  0.0020000  0  5G13G 2G15G19G 6
  22534760.775   -10584061.259 6  -8117779.45921
  21609712.6824    1580507.18348   1229589.22564
  24388150.1744   -1761900.13446  -1327595.73961
  24594439.2294   19868328.20345  15481781.45261
  21421369.768   -15901146.146 7 -12306328.46123
 91  4 23 23 23 15.0020000  0  5G13G 2G15G19G 6
  22526815.9554  -10625811.21046  -8150311.75561
  21612057.1194    1592841.23248   1239200.17664
  24388875.221    -1758096.864 6  -1324632.13321
  24603718.854    19917114.276 5  15519796.41521
  21419346.6114  -15911774.24047 -12314610.06463
 91  4 23 23 23 30.0020000  0  5G13G 2G15G19G 6
  22518888.6664  -10667464.11746  -8182768.43161
  21614410.1894    1605214.04648   1248841.33064
  24389622.8074   -1754164.69546  -1321568.08761
  24613018.0964   19965946.50244  15557847.38061
  21417335.611   -15922328.181 7 -12322833.89423
 91  4 23 23 23 45.0020000  0  5G13G 2G15G19G 6
  22510983.010   -10709013.061 6  -8215144.09921
  21616776.5964    1617632.23948   1258517.84964
  24390395.3144   -1750096.96046  -1318398.39061
  24622317.6744   20014831.48745  15595939.41761
  21415343.979   -15932801.114 7 -12330994.60023
 91  4 23 23 24  0.0020000  0  5G13G 2G15G19G 6
  22503095.064   -10750462.669 6  -8247442.37021
  21619145.8224    1630091.02748   1268225.99964
  24391196.6044   -1745898.26146  -1315126.64061
  24631634.9474   20063764.14144  15634068.62261
  21413365.939   -15943197.630 7 -12339095.75723
 91  4 23 23 24 15.0020000  0  5G13G 2G15G19G 6
  22495227.041   -10791811.459 6  -8279662.06921
  21621524.6434    1642591.36048   1277966.51964
  24392018.8464   -1741567.22346  -1311751.76761
  24640952.166    20112745.489 5  15672235.77521
  21411403.705   -15953516.367 7 -12347136.30923
 91  4 23 23 24 30.0020000  0  5G13G 2G15G19G 6
  22487376.3614  -10833063.25246  -8311806.20161
  21623910.3854    1655129.01548   1287736.12264
  24392871.205    -1737108.308 6  -1308277.26121
  24650276.7294   20161771.26945  15710437.53361
  21409452.705   -15963761.284 7 -12355119.33823
 91  4 23 23 24 45.0020000  0  5G13G 2G15G19G 6
  22479546.799   -10874211.978 7  -8343870.00321
  21626303.3694    1667709.78148   1297539.31964
  24393745.869    -1732515.470 6  -1304698.39121
  24659617.0494   20210847.01844  15748678.23061
  21407518.400   -15973926.233 7 -12363040.05823
 91  4 23 23 25  0.0020000  0  5G13G 2G15G19G 6
  22471736.5334  -10915259.21046  -8375854.73661
  21628706.5254    1680331.83248   1307374.68764
  24394644.0804   -1727790.57446  -1301016.61861
  24668970.2364   20259970.85044  15786956.39361
  21405598.439   -15984012.966 7 -12370899.82923
 91  4 23 23 25 15.0020000  0  5G13G 2G15G19G 6
  22463943.5804  -10956204.89546  -8407760.33961
  21631117.6584    1692994.76748   1317241.91064
  24395567.7214   -1722933.53646  -1297231.88961
  24678324.822    20309142.572 4  15825271.87321
  21403695.510   -15994021.235 7 -12378698.46023
 91  4 23 23 25 30.0020000  0  5G13G 2G15G19G 6
  22456171.4794  -10997046.10946  -8439584.52961
  21633535.3854    1705701.50848   1327143.27064
  24396518.9244   -1717941.79746  -1293342.18761
  24687689.1194   20358364.66044  15863626.60861
  21401804.432   -16003948.144 7 -12386433.69223
 91  4 23 23 25 45.0020000  0  5G13G 2G15G19G 6
  22448419.2294  -11037782.94546  -8471327.40061
  21635961.3854    1718451.06848   1337077.98964
  24397491.3774   -1712815.83246  -1289347.89061
  24697069.150    20407636.080 4  15902019.77421
  21399932.588   -16013794.201 7 -12394105.92223
 91  4 23 23 26  0.0020000  0  5G13G 2G15G19G 6
  22440686.6824  -11078417.83047  -8502990.81761
  21638393.9004    1731240.84448   1347044.04764
  24398494.1504   -1707558.24146  -1285251.04361
  24706447.7834   20456954.18144  15940449.34261
  21398072.666   -16023561.697 7 -12401716.94023
 91  4 23 23 26 15.0020000  0  5G13G 2G15G19G 6
  22432973.3934  -11118951.39246  -8534575.28061
  21640836.2364    1744070.14248   1357040.90564
  24399512.7054   -1702169.45646  -1281051.95361
  24715843.8304   20506318.16844  15978914.61761
  21396228.900   -16033251.099 7 -12409267.10023
 91  4 23 23 26 30.0020000  0  5G13G 2G15G19G 6
  22425278.994   -11159383.442 7  -8566080.63821
  21643284.7214    1756938.83448   1367068.46064
  24400564.1354   -1696649.76946  -1276750.86561
  24725245.7214   20555727.59344  16017415.31361
  21394400.221   -16042862.367 7 -12416756.38223
 91  4 23 23 26 45.0020000  0  5G13G 2G15G19G 6
  22417603.9794  -11199714.74446  -8597507.50061
  21645739.3614    1769845.64848   1377125.71964
  24401643.6044   -1691000.26046  -1272348.60361
  24734658.1504   20605181.25244  16055950.48161
  21392584.588   -16052396.473 7 -12424185.52923
 91  4 23 23 27  0.0020000  0  5G13G 2G15G19G 6
  22409950.3224  -11239942.42647  -8628853.61361
  21648204.4794    1782793.25848   1387214.76864
  24402743.057    -1685218.266 6  -1267843.14621
  24744077.338    20654681.782 4  16094522.17221
  21390787.674   -16061850.313 7 -12431552.14023
 91  4 23 23 27 15.0020000  0  5G13G 2G15G19G 6
  22402314.8304  -11280064.02646  -8660117.07361
  21650677.9554    1795783.58048   1397337.09964
  24403870.7754   -1679301.52646  -1263232.66461
  24753506.9554   20704231.01744  16133131.82061
  21389004.877   -16071221.644 7 -12438854.45423
 91  4 23 23 27 30.0020000  0  5G13G 2G15G19G 6
  22394700.3074  -11320081.74347  -8691299.57961
  21653157.7444    1808814.11148   1407490.76264
  24405022.2524   -1673252.43846  -1258519.04161
  24762945.080    20753826.352 3  16171777.40321
  21387236.463   -16080512.669 7 -12446094.19623
 91  4 23 23 27 45.0020000  0  5G13G 2G15G19G 6
  22387103.6194  -11359997.32247  -8722402.50661
  21655643.1664    1821882.79748   1417674.15264
  24406194.4944   -1667072.88746  -1253703.77861
  24772389.604    20803465.742 3  16210457.29021
  21385483.025   -16089725.204 7 -12453272.77523
 91  4 23 23 28  0.0020000  0  5G13G 2G15G19G 6
  22379527.8464  -11399808.07747  -8753423.75261
  21658137.1504    1834991.98548   1427889.10264
  24407397.5964   -1660760.37346  -1248784.90961
  24781845.424    20853151.325 3  16249173.16921
  21383744.721   -16098856.565 7 -12460388.09923
 91  4 23 23 28 15.0020000  0  5G13G 2G15G19G 6
  22371970.7444  -11439511.10846  -8784361.05361
  21660641.0184    1848144.30148   1438137.65564
  24408623.932    -1654312.457 6  -1243760.53121
  24791309.1894   20902885.41143  16287926.85861
  21382024.033   -16107903.964 7 -12467437.99823
 91  4 23 23 28 30.0020000  0  5G13G 2G15G19G 6
  22364437.9634  -11479109.82747  -8815217.07061
  21663150.5334    1861336.06648   1448416.95664
  24409873.9864   -1647732.73946  -1238633.45061
  24800782.885    20952664.468 3  16326715.55321
  21380317.549   -16116870.630 7 -12474424.99923
 91  4 23 23 28 45.0020000  0  5G13G 2G15G19G 6
  22356922.682   -11518601.647 7  -8845989.79121
  21665670.0494    1874569.50748   1458728.72764
  24411153.8144   -1641018.60646  -1233401.62261
  24810262.3144   21002490.47543  16365540.86361
  21378626.768   -16125754.215 7 -12481347.25423
 91  4 23 23 29  0.0020000  0  5G13G 2G15G19G 6
  22349425.6434  -11557985.15746  -8876678.11661
  21668195.6274    1887845.67548   1469073.79464
  24412458.064    -1634169.118 6  -1228064.32821
  24819755.674    21052364.568 3  16404403.64621
  21376951.955   -16134553.243 7 -12488203.62323
 91  4 23 23 29 15.0020000  0  5G13G 2G15G19G 6
  22341953.2684  -11597258.85647  -8907280.87361
  21670727.9324    1901165.79548   1479453.10964
  24413787.9474   -1627182.92846  -1222620.51461
  24829256.1974   21102287.73143  16443304.63961
  21375293.799   -16143266.271 7 -12494992.98223
 91  4 23 23 29 30.0020000  0  5G13G 2G15G19G 6
  22334500.7684  -11636419.23046  -8937795.32861
  21673273.0334    1914533.04348   1489869.14764
  24415145.494    -1620056.735 6  -1217067.60221
  24838765.1274   21152262.90943  16482246.20161
  21373654.650   -16151889.864 7 -12501712.64423
 91  4 23 23 29 45.0020000  0  5G13G 2G15G19G 6
  22327068.8304  -11675471.86346  -8968225.82661
  21675825.1744    1927941.76248   1500317.49864
  24416528.9714   -1612796.28046  -1211410.07861
  24848283.072    21202284.323 3  16521223.74121
  21372027.096   -16160429.508 7 -12508366.89323
 91  4 23 23 30  0.0020000  0  5G13G 2G15G19G 6
  22319659.8074  -11714413.49647  -8998569.83661
  21678385.0884    1941394.70348   1510800.31764
  24417932.8144   -1605398.52846  -1205645.57261
  24857811.4474   21252354.68443  16560239.48661
  21370417.744   -16168881.970 7 -12514953.21223
 91  4 23 23 30 15.0020000  0  5G13G 2G15G19G 6
  22312270.557   -11753240.008 6  -9028824.13321
  21680953.7444    1954895.69848   1521320.57564
  24419367.1824   -1597859.40446  -1199770.89961
  24867347.018    21302477.724 3  16599296.23921
  21368827.963   -16177243.315 7 -12521468.52723
 91  4 23 23 30 30.0020000  0  5G13G 2G15G19G 6
  22304902.6114  -11791953.97047  -9058990.73361
  21683533.9794    1968441.85248   1531876.01964
  24420825.799    -1590182.125 6  -1193788.58821
  24876898.908    21352650.326 3  16638391.62021
  21367254.744   -16185516.009 7 -12527914.76823
 91  4 23 23 30 45.0020000  0  5G13G 2G15G19G 6
  22297558.7134  -11830556.17547  -9089070.25861
  21686119.6434    1982032.09348   1542465.82264
  24422312.3614   -1582367.75646  -1187699.43561
  24886454.900    21402871.319 4  16677524.70921
  21365695.877   -16193700.977 7 -12534292.64623
 91  4 23 23 31  0.0020000  0  5G13G 2G15G19G 6
  22290233.2214  -11869047.04947  -9119063.01961
  21688712.1824    1995665.88648   1553089.55964
  24423831.8224   -1574416.57746  -1181503.68961
  24896019.557    21453139.810 3  16716694.80121
  21364155.713   -16201798.521 7 -12540602.40623
 91  4 23 23 31 15.0020000  0  5G13G 2G15G19G 6
  22282929.1274  -11907425.34347  -9148968.07061
  21691316.2834    2009343.88548   1563747.73664
  24425367.932    -1566327.606 6  -1175200.56221
  24905594.8774   21503456.65643  16755902.55061
  21362631.346   -16209807.625 7 -12546843.25123
 91  4 23 23 31 30.0020000  0  5G13G 2G15G19G 6
  22275647.4474  -11945694.36347  -9178787.95561
  21693926.9634    2023062.68948   1574437.71664
  24426933.666    -1558104.367 6  -1168792.82121
  24915181.7134   21553818.48943  16795145.36861
  21361123.283   -16217731.233 7 -12553017.47423
 91  4 23 23 31 45.0020000  0  5G13G 2G15G19G 6
  22268386.5804  -11983850.77947  -9208520.12361
  21696546.7834    2036825.13448   1585161.70464
  24428519.7294   -1549744.18846  -1162278.36261
  24924772.010    21604227.865 3  16834425.25421
  21359632.057   -16225566.469 7 -12559122.84123
 91  4 23 23 32  0.0020000  0  5G13G 2G15G19G 6
  22261147.088   -12021896.237 7  -9238165.81921
  21699173.2134    2050628.93448   1595917.91264
  24430141.4164   -1541248.88046  -1155658.62061
  24934376.2684   21654682.57043  16873740.41661
  21358157.205   -16233314.955 7 -12565160.60523
 91  4 23 23 32 15.0020000  0  5G13G 2G15G19G 6
  22253926.541   -12059832.213 7  -9267726.20721
  21701808.5884    2064472.55948   1606705.15664
  24431776.900    -1532619.959 6  -1148934.77121
  24943983.4474   21705180.79144  16913089.53061
  21356699.408   -16240978.191 7 -12571131.94223
 91  4 23 23 32 30.0020000  0  5G13G 2G15G19G 6
  22246729.721   -12097655.643 7  -9297198.89621
  21704450.1354    2078359.13548   1617525.87064
  24433450.5574   -1523854.30546  -1142104.37761
  24953601.502    21755725.370 3  16952474.73821
  21355259.322   -16248552.794 7 -12577034.21423
 91  4 23 23 32 45.0020000  0  5G13G 2G15G19G 6
  22239553.8464  -12135363.72047  -9326581.69961
  21707098.8614    2092291.04448   1628381.90164
  24435145.002    -1514949.355 6  -1135165.44021
  24963226.346    21806318.560 3  16991897.85221
  21353834.330   -16256036.063 7 -12582865.31623
 91  4 23 23 33  0.0020000  0  5G13G 2G15G19G 6
  22232398.557   -12172960.708 7  -9355877.93921
  21709759.1044    2106263.66148   1639269.65964
  24436860.768    -1505910.067 6  -1128121.82221
  24972868.736    21856955.703 3  17031355.18621
  21352427.361   -16263432.422 7 -12588628.69223
 91  4 23 23 33 15.0020000  0  5G13G 2G15G19G 6
  22225265.111   -12210445.952 7  -9385087.11121
  21712427.1824    2120277.40448   1650189.46264
  24438606.2834   -1496735.83746  -1120973.05361
  24982508.088    21907637.253 3  17070847.14321
  21351035.658   -16270741.157 7 -12594323.79523
 91  4 23 23 33 30.0020000  0  5G13G 2G15G19G 6
  22218155.080   -12247820.446 7  -9414209.98221
  21715099.9714    2134330.95348   1661140.27364
  24440379.0334   -1487427.72346  -1113719.96961
  24992163.252    21958361.529 3  17110372.36621
  21349662.7994  -16277963.28147 -12599951.41663
 91  4 23 23 33 45.0020000  0  5G13G 2G15G19G 6
  22211064.502   -12285080.756 7  -9443243.89021
  21717783.4324    2148427.53448   1672124.62464
  24442176.533    -1477982.186 5  -1106359.79321
  25001825.3384   22009131.79844  17149933.45061
  21348304.119   -16285095.235 7 -12605508.76123
 91  4 23 23 34  0.0020000  0  5G13G 2G15G19G 6
  22203994.150   -12322227.559 7  -9472189.34221
  21720474.799     2162566.114 8   1683141.71424
  24443998.182    -1468400.444 6  -1098893.49121
  25011495.463    22059946.977 4  17189529.52421
  21346963.174   -16292137.825 7 -12610996.46723
 91  4 23 23 34 15.0020000  0  5G13G 2G15G19G 6
  22196946.682   -12359264.351 7  -9501049.06921
  21723170.6584    2176742.90448   1694188.56364
  24445846.713    -1458686.467 6  -1091324.14421
  25021171.5724   22110802.96843  17229157.40861
  21345642.502   -16299094.671 7 -12616417.37023
 91  4 23 23 34 30.0020000  0  4G13G 2G15G 6
  22189918.8544  -12396187.79347  -9529820.48161
  21725875.9944    2190961.02048   1705267.61464
  24447724.385    -1448837.098 6  -1083649.30321
  21344333.471   -16305962.313 7 -12621768.75923
 91  4 23 23 34 45.0020000  0  4G13G 2G15G 6
  22182917.2444  -12432993.50647  -9558500.15961
  21728590.6434    2205224.45648   1716381.98364
  24449626.4244   -1438848.19746  -1075865.71061
  21343045.354   -16312736.482 7 -12627047.31223
 91  4 23 23 35  0.0020000  0  4G13G 2G15G 6
  22175938.080   -12469687.044 7  -9587092.42121
  21731312.8074    2219527.36248   1727527.10364
  24451552.3934   -1428725.29646  -1067977.74361
  21341770.057   -16319422.752 7 -12632257.37223
 91  4 23 23 35 15.0020000  0  4G13G 2G15G 6
  22168973.932   -12506263.704 7  -9615593.61721
  21734042.5254    2233874.09548   1738706.37664
  24453501.4864   -1418463.95846  -1059981.88361
  21340517.314   -16326016.424 7 -12637395.28223
 91  4 23 23 35 30.0020000  0  4G13G 2G15G 6
  22162034.494   -12542725.771 7  -9644005.51221
  21736779.4864    2248262.16548   1749917.86264
  24455484.252    -1408066.789 6  -1051880.17321
  21339279.650   -16332519.657 7 -12642462.71923
 91  4 23 23 35 45.0020000  0  4G13G 2G15G 6
  22155118.369   -12579069.495 7  -9672325.19921
  21739526.8074    2262695.03048   1761164.25064
  24457485.9794   -1397530.38446  -1043669.97161
  21338060.244   -16338928.849 7 -12647456.87523
 91  4 23 23 36  0.0020000  0  4G13G 2G15G 6
  22148223.432   -12615301.044 7  -9700557.47321
  21742279.8144    2277166.41348   1772440.65264
  24459521.713    -1386861.073 6  -1035356.19821
  21336858.572   -16345250.183 7 -12652382.57023
 91  4 23 23 36 15.0020000  0  4G13G 2G15G 6
  22141351.0644  -12651415.89947  -9728698.82261
  21745043.4164    2291680.23148   1783750.12164
  24461570.666    -1376054.780 6  -1026935.70221
  21335671.682   -16351479.185 7 -12657236.31923
 91  4 23 23 36 30.0020000  0  4G13G 2G15G 6
  22134502.3144  -12687410.44347  -9756746.41961
  21747812.7294    2306239.84948   1795095.27664
  24463660.135    -1365108.187 6  -1018405.88121
  21334504.604   -16357612.286 7 -12662015.34023
 91  4 23 23 36 45.0020000  0  4G13G 2G15G 6
  22127674.0024  -12723287.24847  -9784702.27761
  21750592.9554    2320842.49848   1806473.96564
  24465768.338    -1354023.755 6  -1009768.64721
  21333355.150   -16363651.863 7 -12666721.49523
 91  4 23 23 37  0.0020000  0  4G13G 2G15G 6
  22120869.9474  -12759049.78347  -9812569.08961
  21753379.1114    2335484.45948   1817883.28864
  24467900.2444   -1342805.43146  -1001027.07861
  21332224.791   -16369601.534 7 -12671357.57623
 91  4 23 23 37 15.0020000  0  4G13G 2G15G 6
  22114086.611   -12794693.566 7  -9840343.36821
  21756173.7134    2350170.08148   1829326.62664
  24470061.877    -1331448.955 6   -992177.86921
  21331108.314   -16375456.901 7 -12675920.17923
 91  4 23 23 37 30.0020000  0  4G13G 2G15G 6
  22107325.924   -12830219.676 7  -9868025.94921
  21758975.5724    2364897.97848   1840802.91264
  24472247.127    -1319955.591 6   -983221.99521
  21330012.541   -16381218.946 7 -12680410.07023
 91  4 23 23 37 45.0020000  0  4G13G 2G15G 6
  22100588.4164  -12865627.56547  -9895616.42161
  21761787.3224    2379668.52848   1852312.43164
  24474461.291    -1308324.715 6   -974158.96621
  21328934.025   -16386886.949 7 -12684826.67623
 91  4 23 23 38  0.0020000  0  4G13G 2G15G 6
  22093872.002   -12900916.210 7  -9923113.97021
  21764605.4474    2394482.42148   1863855.72364
  24476701.8384   -1296555.73345   -964988.31861
  21327875.143   -16392459.943 7 -12689169.25424
 91  4 23 23 38 15.0020000  0  4G13G 2G15G 6
  22087178.2524  -12936087.54647  -9950520.11261
  21767432.5804    2409337.21848   1875430.89064
  24478961.236    -1284651.040 5   -955711.91421
  21326829.893   -16397940.051 7 -12693439.45023
 91  4 23 23 38 30.0020000  0  4G13G 2G15G 6
  22080508.7444  -12971143.76447  -9977836.55061
  21770267.7214    2424230.45048   1887036.00664
  24481258.1194   -1272613.12445   -946331.69961
  21325804.221   -16403329.512 7 -12697639.01123
 91  4 23 23 38 45.0020000  0  4G13G 2G15G 6
  22073860.3544  -13006079.88447 -10005059.40161
  21773108.2134    2439167.15248   1898674.99164
  24483577.721    -1260437.022 5   -936843.81721
  21324796.744   -16408623.148 7 -12701763.90823
 91  4 23 23 39  0.0020000  0  4G13G 2G15G 6
  22067234.8694  -13040897.26747 -10032189.73561
  21775958.0494    2454145.61748   1910346.52064
  24485920.385    -1248124.413 6   -927249.56521
  21323807.947   -16413822.371 7 -12705815.23023
 91  4 23 23 39 15.0020000  0  4G13G 2G15G 6
  22060633.0104  -13075595.34647 -10059227.10361
  21778817.4084    2469165.83848   1922050.58864
  24488284.4394   -1235674.91845   -917548.64561
  21322838.361   -16418926.723 7 -12709792.63223
 91  4 23 23 39 30.0020000  0  4G13G 2G15G 6
  22054051.1274  -13110172.44747 -10086170.20661
  21781682.5804    2484229.42448   1933788.44764
  24490683.6434   -1223087.30146   -907740.10561
  21321884.049   -16423934.454 7 -12713694.74623
 91  4 23 23 39 45.0020000  0  4G13G 2G15G 6
  22047494.2524  -13144630.98847 -10113020.92761
  21784558.4554    2499333.78948   1945558.07964
  24493102.268    -1210364.064 6   -897825.87921
  21320948.713   -16428848.016 7 -12717523.47923
 91  4 23 23 40  0.0020000  0  4G13G 2G15G 6
  22040960.4244  -13178969.20247 -10139777.88361
  21787441.2604    2514480.42348   1957360.64564
  24495553.049    -1197503.747 6   -887804.84621
  21320031.775   -16433665.600 7 -12721277.42723
 91  4 23 23 40 15.0020000  0  4G13G 2G15G 6
  22034448.2294  -13213183.09747 -10166437.96361
  21790332.0884    2529673.01248   1969199.02664
  24498020.010    -1184502.404 5   -877673.91421
  21319133.932   -16438383.114 7 -12724953.39523
 91  4 23 23 40 30.0020000  0  4G13G 2G15G 6
  22027961.1824  -13247277.26947 -10193004.76161
  21793230.0184    2544906.86548   1981069.55964
  24500526.752    -1171365.085 5   -867437.03621
  21318255.275   -16443005.174 7 -12728554.98423
 91  4 23 23 40 45.0020000  0  4G13G 2G15G 6
  22021495.5334  -13281250.26347 -10219477.13761
  21796136.5574    2560183.15648   1992973.15864
  24503050.666    -1158090.441 5   -857093.14621
  21317393.299   -16447530.185 7 -12732080.95423
 91  4 23 23 41  0.0020000  0  4G13G 2G15G 6
  22015053.6584  -13315102.24847 -10245855.22161
  21799053.3694    2575501.29148   2004909.36264
  24505600.564    -1144678.823 6   -846642.51921
  21316551.643   -16451958.513 7 -12735531.58723
 91  4 23 23 41 15.0020000  0  4G13G 2G15G 6
  22008636.9324  -13348832.33447 -10272138.32061
  21801975.1114    2590861.98148   2016878.72764
  24508183.846    -1131129.676 6   -836084.73221
  21315726.682   -16456289.266 7 -12738906.18723
 91  4 23 23 41 30.0020000  0  4G13G 2G15G 6
  22002241.7914  -13382437.12647 -10298323.78261
  21804906.1894    2606268.34948   2028883.68964
  24510787.729    -1117439.898 6   -825417.35421
  21314923.299   -16460519.039 7 -12742202.10123
 91  4 23 23 41 45.0020000  0  4G13G 2G15G 6
  21995870.3074  -13415920.41647 -10324414.56561
  21807846.3304    2621716.63348   2040921.30564
  24513421.3934   -1103613.51846   -814643.54461
  21314134.510   -16464651.380 7 -12745422.09323
 91  4 23 23 42  0.0020000  0  4G13G 2G15G 6
  21989522.111   -13449278.989 7 -10350408.18221
  21810794.1114    2637209.63848   2052993.77764
  24516074.932    -1089647.656 6   -803761.04321
  21313368.838   -16468683.351 7 -12748563.87523
 91  4 23 23 42 15.0020000  0  4G13G 2G15G 6
  21983197.0884  -13482514.07447 -10376305.55661
  21813750.5724    2652745.99048   2065100.02064
  24518760.1434   -1075543.51946   -792770.79561
  21312621.2214  -16472615.93447 -12751628.21563
 91  4 23 23 42 30.0020000  0  4G13G 2G15G 6
  21976896.799   -13515623.527 7 -10402105.05121
  21816717.7444    2668327.27848   2077241.28464
  24521467.674    -1061299.572 6   -781671.60421
  21311890.572   -16476447.195 7 -12754613.60023
 91  4 23 23 42 45.0020000  0  4G13G 2G15G 6
  21970619.869   -13548608.073 7 -10427807.20321
  21819690.1824    2683952.79248   2089417.00364
  24524202.8934   -1046916.71145   -770464.17361
  21311179.8694  -16480177.74547 -12757520.51163
 91  4 23 23 43  0.0020000  0  4G13G 2G15G 6
  21964365.3934  -13581470.04147 -10453413.84761
  21822671.9084    2699619.83948   2101625.09264
  24526972.0644   -1032397.30445   -759150.35061
  21310489.307   -16483809.974 7 -12760350.80823
 91  4 23 23 43 15.0020000  0  4G13G 2G15G 6
  21958136.143   -13614207.045 7 -10478923.11721
  21825660.1504    2715330.63348   2113867.26564
  24529763.674    -1017739.130 5   -747728.38121
  21309818.424   -16487341.404 7 -12763102.55923
 91  4 23 23 43 30.0020000  0  4G13G 2G15G 6
  21951931.7294  -13646816.52047 -10504333.01161
  21828660.9394    2731087.75048   2126145.53964
  24532571.4714   -1002939.98245   -736196.57261
  21309166.252   -16490769.216 7 -12765773.56723
 91  4 23 23 43 45.0020000  0  4G13G 2G15G 6
  21945749.064   -13679300.136 7 -10529644.84221
  21831665.9164    2746889.02648   2138458.21864
  24535420.119     -988001.729 5   -724556.35821
  21308531.861   -16494095.232 7 -12768365.25423
 91  4 23 23 44  0.0020000  0  4G13G 2G15G 6
  21939591.939   -13711656.610 7 -10554857.59921
  21834682.1894    2762735.31348   2150805.97164
  24538283.174     -972923.465 5   -712807.06221
  21307920.9394  -16497318.32247 -12770876.74463
 91  4 23 23 44 15.0020000  0  4G13G 2G15G 6
  21933459.439   -13743889.012 7 -10579973.67421
  21837704.6664    2778623.45748   2163186.34364
  24541185.432     -957708.506 5   -700951.23721
  21307325.111   -16500441.514 7 -12773310.38623
 91  4 23 23 44 30.0020000  0  4G13G 2G15G 6
  21927349.260   -13775994.941 7 -10604991.20221
  21840736.0104    2794555.66248   2175601.04664
  24544101.8854    -942354.99745   -688987.46261
  21306751.150   -16503462.367 7 -12775664.28723
 91  4 23 23 44 45.0020000  0  4G13G 2G15G 6
  21921262.893   -13807976.883 7 -10629912.11621
  21843778.2834    2810529.37048   2188048.08864
  24547050.3224    -926865.48145   -676917.72161
  21306194.2214  -16506383.24347 -12777940.28363
 91  4 23 23 45  0.0020000  0  4G13G 2G15G 6
  21915201.322   -13839833.678 7 -10654735.51921
  21846824.4634    2826545.33148   2200528.05964
  24550030.2294    -911238.99445   -664741.21061
  21305658.0644  -16509203.08347 -12780137.55063
 91  4 23 23 45 15.0020000  0  4G13G 2G15G 6
  21909162.5494  -13871564.33147 -10679460.62861
  21849880.7294    2842604.22648   2213041.48064
  24553028.6894    -895474.68345   -652457.32361
  21305139.1434  -16511920.84247 -12782255.27463
 91  4 23 23 45 30.0020000  0  4G13G 2G15G 6
  21903148.619   -13903170.146 7 -10704088.45821
  21852943.0804    2858704.64748   2225587.25564
  24556049.5184    -879574.32145   -640067.42361
  21304643.6194  -16514538.00947 -12784294.61463
 91  4 23 23 45 45.0020000  0  4G13G 2G15G 6
  21897157.760   -13934651.999 7 -10728619.69821
  21856014.8544    2874845.64648
  24559102.0494    -863538.81645
  21304164.9084  -16517055.17847 -12786256.03763
 91  4 23 23 46  0.0020000  0  4G13G 2G15G 6
  21891190.408   -13966008.183 7 -10753053.01421
  21859094.8694    2891028.63348
  24562179.8384    -847366.44545
  21303703.9164  -16519470.62447 -12788138.19563
 91  4 23 23 46 15.0020000  0  4G13G 2G15G 6
  21885247.002   -13997239.345 7 -10777388.91021
  21862181.5644    2907252.51048   2263416.74964
  24565281.2524    -831058.66545   -602263.00161
  21303262.0024  -16521785.02147 -12789941.61063
 91  4 23 23 46 30.0020000  0  4G13G 2G15G 6
  21879327.8384  -14028343.71947 -10801626.01861
  21865276.1584    2923519.01148   2276091.93864
  24568412.971     -814613.727 5   -589448.75921
  21302844.7684  -16523996.48447 -12791664.82163
 91  4 23 23 46 45.0020000  0  4G13G 2G15G 6
  21873432.3224  -14059321.68047 -10825764.61661
  21868380.1894    2939827.71148   2288800.01064
  24571566.6114    -798032.05345   -576527.96561
  21302441.9944  -16526105.26147 -12793308.01563
 91  4 23 23 47  0.0020000  0  4G13G 2G15G 6
  21867561.283   -14090174.079 7 -10849805.37221
  21871492.4794    2956177.44848   2301540.05764
  24574748.572     -781315.009 5   -563501.68621
  21302059.4164  -16528112.50147 -12794872.08763
 91  4 23 23 47 15.0020000  0  4G13G 2G15G 6
  21861715.1114  -14120898.35647 -10873746.30261
  21874611.0254    2972570.33948   2314313.73364
  24577954.8694    -764460.40746   -550368.22961
  21301696.111   -16530015.576 7 -12796354.99023
 91  4 23 23 47 30.0020000  0  4G13G 2G15G 6
  21855892.9554  -14151496.32247 -10897588.79561
  21877739.2294    2989004.30648   2327119.41964
  24581195.6664    -747470.67145   -537129.47261
  21301354.3224  -16531816.42747 -12797758.24663
 91  4 23 23 47 45.0020000  0  4G13G 2G15G 6
  21850094.049   -14181968.472 7 -10921333.25321
  21880875.0024    3005478.92748   2339956.78164
  24584447.4554    -730345.95545   -523785.53361
  21301030.9864  -16533515.23247 -12799081.97663
 91  4 23 23 48  0.0020000  0  4G13G 2G15G 6
  21844317.5724  -14212317.18947 -10944981.54161
  21884014.2134    3021991.74248   2352823.90664
  24587733.8074    -713088.82245   -510338.41861
  21300726.6744  -16535114.24947 -12800327.95863
 91  4 23 23 48 15.0020000  0  4G13G 2G15G 6
  21838567.7834  -14242540.57347 -10968532.15761
  21887166.3144    3038544.41148   2365722.08264
  24591040.7994    -695697.51545   -496786.74561
  21300442.4714  -16536611.42747 -12801494.58163
 91  4 23 23 48 30.0020000  0  4G13G 2G15G 6
  21832839.838   -14272635.529 7 -10991982.70021
  21890325.2684    3055139.54248   2378653.34764
  24594379.5804    -678169.50645   -483128.55161
  21300176.7684  -16538003.96447 -12802579.66863
 91  4 23 23 48 45.0020000  0  4G13G 2G15G 6
  21827136.9474  -14302601.20247 -11015332.51061
  21893491.4084    3071777.99348   2391618.37464
  24597733.4944    -660504.16945   -469363.33761
  21299932.369   -16539290.925 7 -12803582.48323
 91  4 23 23 49  0.0020000  0  4G13G 2G15G 6
  21821459.7684  -14332439.25547 -11038582.86761
  21896665.0804    3088457.94248   2404615.73164
  24601124.299     -642703.355 6   -455492.57121
  21299707.979   -16540473.858 7 -12804504.23923
 91  4 23 23 49 15.0020000  0  4G13G 2G15G 6
  21815806.7364  -14362148.49647 -11061732.85961
  21899847.7294    3105180.12248   2417645.99864
  24604541.635     -624766.472 6   -441515.76721
  21299502.650   -16541551.753 7 -12805344.14623
 91  4 23 23 49 30.0020000  0  4G13G 2G15G 6
  21810177.6974  -14391725.63047 -11084779.91061
  21903039.4394    3121947.75448   2430711.68264
  24607980.3694    -606690.17645   -427430.34161
  21299317.768   -16542521.040 7 -12806099.42123
 91  4 23 23 49 45.0020000  0  4G13G 2G15G 6
  21804573.0494  -14421174.71747 -11107727.17761
  21906236.5804    3138756.77848   2443809.62164
  24611445.666     -588478.557 5   -413239.45821
  21299152.3304  -16543385.85247 -12806773.28963
 91  4 23 23 50  0.0020000  0  4G13G 2G15G 6
  21798993.3544  -14450498.81947 -11130577.06361
  21909441.5964    3155604.12048   2456937.41563
  24614936.1274    -570134.89545   -398945.69961
  21299006.3774  -16544148.85447 -12807367.82763
 91  4 23 23 50 15.0020000  0  4G13G 2G15G 6
  21793439.1274  -14479689.32747 -11153322.84461
  21912656.3614    3172497.92048   2470101.41564
  24618457.2134    -551650.84146   -384542.52961
  21298883.1274  -16544801.77047 -12807876.58363
 91  4 23 23 50 30.0020000  0  4G13G 2G15G 6
  21787909.0414  -14508748.07247 -11175965.95661
  21915880.5184    3189436.11148   2483300.00263
  24622000.7364    -533028.84845   -370031.88461
  21298778.7054  -16545346.31547 -12808300.89263
 91  4 23 23 50 45.0020000  0  4G13G 2G15G 6
  21782403.9084  -14537674.86247 -11198506.24761
  21919110.4324    3206418.63948   2496533.13463
  24625564.8544    -514268.83845   -355413.69061
  21298697.3304  -16545782.29947 -12808640.60963
 91  4 23 23 51  0.0020000  0  4G13G 2G15G 6
  21776925.1584  -14566473.65847 -11220946.80661
  21922350.1434    3223441.46148   2509797.66963
  24629159.7444    -495375.18645   -340691.37761
  21298632.525   -16546113.575 7 -12808898.73623
 91  4 23 23 51 15.0020000  0  4G13G 2G15G 6
  21771469.5334  -14595141.12547 -11243285.02262
  21925599.0184    3240507.51548   2523095.88863
  24632780.4634    -476344.82045   -325862.50161
  21298590.6974  -16546336.94547 -12809072.78363
 91  4 23 23 51 30.0020000  0  4G13G 2G15G 6
  21766038.4004  -14623679.06647 -11265522.31262
  21928854.3074    3257614.64848   2536426.12063
  24636431.1974    -457179.69145   -310928.64961
  21298565.4794  -16546454.17147
 91  4 23 23 51 45.0020000  0  4G13G 2G15G 6
  21760632.5804  -14652085.96247 -11287657.49062
  21932118.2134    3274764.58448   2549789.70363
  24640100.4394    -437878.43645   -295888.69961
  21298567.4554  -16546463.53347
 91  4 23 23 52  0.0020000  0  4G13G 2G15G 6
  21755252.236   -14680362.889 7 -11309691.38621
  21935389.3774    3291956.28248   2563185.82663
  24643803.1114    -418442.42245   -280743.74461
  21298585.7684  -16546365.99847
 91  4 23 23 52 15.0020000  0  4G13G 2G15G 6
  21749894.752   -14708510.076 7 -11331624.19722
  21938668.6114    3309189.06348   2576613.96663
  24647524.236     -398872.135 5   -265494.15621
  21298624.955   -16546162.001 7
 91  4 23 23 52 30.0020000  0  4G13G 2G15G 6
  21744561.9164  -14736525.78747 -11353454.55262
  21941954.7754    3326464.44848   2590075.29663
  24651277.7994    -379166.34845   -250139.00261
  21298686.9554  -16545849.59947
 91  4 23 23 52 45.0020000  0  4G13G 2G15G 6
  21739257.2994  -14764409.97647 -11375182.42262
  21945250.5884    3343782.39248   2603569.79563
  24655047.9794    -359325.02845   -234678.23761
  21298765.3934  -16545428.74547 -12808365.04063
 91  4 23 23 53  0.0020000  0  4G13G 2G15G 6
  21733977.6894  -14792161.55547 -11396806.96562
  21948554.4634    3361143.73548   2617098.10863
  24658854.0884    -339347.46445   -219111.30361
  21298865.260   -16544898.497 7 -12807951.85123
 91  4 23 23 53 15.0020000  0  4G13G 2G15G 6
  21728721.3144  -14819780.93347 -11418328.49462
  21951866.8544    3378547.97448   2630659.85063
  24662682.0884    -319234.19845   -203438.62361
  21298987.7214  -16544259.00447 -12807453.53863
 91  4 23 23 53 30.0020000  0  4G13G 2G15G 6
  21723491.3074  -14847266.55647 -11439745.79862
  21955187.9084    3395996.37248   2644255.99763
  24666535.7294    -298984.05945   -187659.28961
  21299128.7684  -16543508.74447 -12806868.91063
 91  4 23 23 53 45.0020000  0  4G13G 2G15G 6
  21718284.7444  -14874621.71747 -11461061.44462
  21958516.4394    3413485.68048   2657884.02563
  24670412.955     -278600.364 5   -171775.89021
  21299290.846   -16542650.868 7 -12806200.42323
 91  4 23 23 54  0.0020000  0  4G13G 2G15G 6
  21713104.8774  -14901844.80047 -11482274.17562
  21961851.9164    3431017.37948   2671545.08563
  24674317.533     -258081.911 5   -155787.49021
  21299477.4714  -16541683.56747 -12805446.67563
 91  4 23 23 54 15.0020000  0  4G13G 2G15G 6
  21707950.1504  -14928934.79647 -11503383.19362
  21965195.3464    3448592.08448   2685239.65363
  24678246.9944    -237428.17245   -139693.66261
  21299682.4554  -16540606.04947 -12804607.04263
 91  4 23 23 54 30.0020000  0  4G13G 2G15G 6
  21702819.8074  -14955892.75647 -11524389.33562
  21968548.3144    3466208.76248   2698966.93163
  24682202.7914    -216640.08745   -123495.15961
  21299906.0644  -16539419.28247 -12803682.28263
 91  4 23 23 54 45.0020000  0  4G13G 2G15G 6
  21697715.3384  -14982714.82747 -11545289.58362
  21971908.2364    3483871.15548   2712729.83264
  24686185.611     -195713.942 5   -107189.08421
  21300155.0644  -16538119.18647 -12802669.21263
 91  4 23 23 55  0.0020000  0  4G13G 2G15G 6
  21692637.2364  -15009404.85247 -11566086.94562
  21975279.0574    3501575.39348   2726525.33163
  24690197.2684    -174653.93745    -90778.69261
  21300423.0184  -16536709.57247 -12801570.80663
 91  4 23 23 55 15.0020000  0  4G13G 2G15G 6
  21687584.6434  -15035958.16047 -11586777.76962
  21978654.8774    3519325.51048   2740356.59164
  24694223.5964    -153455.82345    -74260.67361
  21300713.9244  -16535185.98747 -12800383.58863
 91  4 23 23 55 30.0020000  0  4G13G 2G15G 6
  21682556.3694  -15062378.57747 -11607365.04062
  21982042.9164    3537117.72448   2754220.64863
  24698283.0104    -132123.92545    -57638.41861
  21301022.6974  -16533552.04747 -12799110.38063
 91  4 23 23 55 45.0020000  0  4G13G 2G15G 6
  21677551.6744  -15088668.83047 -11627850.89162
  21985433.2914    3554949.01848   2768115.16163
  24702371.1974    -110661.17945    -40914.19661
  21301355.9634  -16531810.77447 -12797753.53763
 91  4 23 23 56  0.0020000  0  4G13G 2G15G 6
  21672575.6974  -15114827.01747 -11648233.83162
  21988835.6114    3572821.28448   2782041.60163
  24706481.5024     -89065.73745    -24086.57061
  21301706.1974  -16529959.81947 -12796311.23463
 91  4 23 23 56 15.0020000  0  4G13G 2G15G 6
  21667622.0184  -15140852.31347 -11668513.21962
  21992243.0104    3590735.03948   2796000.36963
  24710619.1274     -67337.05345     -7155.13561
  21302080.6194  -16527998.41747 -12794782.86163
 91  4 23 23 56 30.0020000  0  4G13G 2G15G 6
  21662695.4084  -15166746.04447 -11688690.08562
  21995660.2214    3608689.03848   2809990.49563
  24714773.4794     -45476.67645      9878.93661
  21302476.2604  -16525927.84947 -12793169.42563
 91  4 23 23 56 45.0020000  0  4G13G 2G15G 6
  21657791.0964  -15192511.66647 -11708767.12962
  21999084.2214    3626679.96548   2824009.39863
  24718957.4634     -23488.18745     27012.81261
  21302888.6114  -16523751.18647 -12791473.32063
 91  4 23 23 57  0.0020000  0  4G13G 2G15G 6
  21652915.8304  -15218142.95347 -11728739.49862
  22002516.2364    3644713.36748   2838061.39863
  24723169.9794      -1365.70945     44251.11561
  21303324.4324  -16521462.40147 -12789689.84463
 91  4 23 23 57 15.0020000  0  4G13G 2G15G 6
  21648061.8694  -15243647.08847 -11748612.78662
  22005955.6894    3662782.18548   2852140.99263
  24727399.1274      20883.32445     61588.00961
  21303780.5574  -16519068.51747 -12787824.47763
 91  4 23 23 57 30.0020000  0  4G13G 2G15G 6
  21643231.5964  -15269020.39647 -11768384.13362
  22009399.8934    3680890.08348   2866251.04163
  24731665.6974      43262.38745     79026.25461
  21304255.8304  -16516565.87847 -12785874.36363
 91  4 23 23 57 45.0020000  0  4G13G 2G15G 6
  21638428.5644  -15294262.37047 -11788053.13562
  22012853.6824    3699037.18948   2880391.63963
  24735947.6664      65771.70445     96565.97461
  21304753.2364  -16513954.01147 -12783839.13463
 91  4 23 23 58  0.0020000  0  4G13G 2G15G 6
  21633650.3144  -15319372.76147 -11807619.61362
  22016313.7914    3717223.73748   2894562.97363
  24740251.135       88411.039 5    114207.00721
  21305271.158   -16511232.596 7 -12781718.54123
 91  4 23 23 58 15.0020000  0  4G13G 2G15G 6
  21628897.5414  -15344349.63747 -11827082.05562
  22019781.7524    3735451.44048   2908766.37563
  24744585.6044     111182.02745    131950.62761
  21305811.0804  -16508399.71747 -12779511.09763
 91  4 23 23 58 30.0020000  0  4G13G 2G15G 6
  21624170.7364  -15369193.38647 -11846440.75462
  22023258.0254    3753719.63948   2923001.33463
  24748945.4394     134084.11845    149796.43361
  21306371.5414  -16505455.67447 -12777217.02263
 91  4 23 23 58 45.0020000  0  4G13G 2G15G 6
  21619468.4634  -15393902.01447 -11865694.16962
  22026744.8074    3772030.38348   2937269.44563
  24753326.1894     157119.31045    167745.93261
  21306951.5104  -16502398.33647 -12774834.68163
 91  4 23 23 59  0.0020000  0  4G13G 2G15G 6
  21614791.7214  -15418477.54447 -11884843.87162
  22030235.2604    3790381.40148   2951568.93863
  24757735.5104     180285.14345    185797.23361
  21307555.0574  -16499229.69447 -12772365.60463
 91  4 23 23 59 15.0020000  0  4G13G 2G15G 6
  21610140.4864  -15442919.93947 -11903889.83562
  22033736.0884    3808772.55148   2965899.70163
  24762169.588      203581.224 5    203950.03021
  21308179.3614  -16495949.79747 -12769809.83163
 91  4 23 23 59 30.0020000  0  4G13G 2G15G 6
  21605515.7214  -15467224.01947 -11922828.01262
  22037243.0414    3827208.98648   2980265.74863
  24766622.2914     227012.66345    222208.30161
  21308825.463   -16492553.051 7 -12767163.00823
 91  4 23 23 59 45.0020000  0  4G13G 2G15G 6
  21600915.3854  -15491390.20147 -11941658.74462
  22040761.5024    3845690.23448   2994666.72063
  24771110.6744     250578.99245    240571.67661
  21309495.5574  -16489039.98347 -12764425.54563
 91  4 24  0  0  0.0020000  0  4G13G 2G15G 6
  21596344.525   -15515416.537 7 -11960380.50822
  22044286.0724    3864218.10648   3009104.01763
  24775625.1664     274281.77545    259041.38061
  21310185.3854  -16485408.55147 -12761595.85163
 91  4 24  0  0 15.0020000  0  4G13G 2G15G 6
  21591800.7684  -15539298.88147 -11978990.06262
  22047823.9394    3882796.61448   3023580.76864
  24780153.4864     298124.61945    277620.21461
  21310899.0804  -16481654.55947 -12758670.65663
 91  4 24  0  0 30.0020000  0  4G13G 2G15G 6
  21587280.2754  -15563046.30747 -11997494.48562
  22051364.9324    3901416.50048   3038089.77163
  24784723.2994     322098.32145    296301.00561
  21311636.4324  -16477787.19847 -12755657.12863
 91  4 24  0  0 45.0020000  0  4G13G 2G15G 6
  21582786.932   -15586657.459 7 -12015892.73022
  22054917.8614    3920078.82748   3052631.83364
  24789309.314      346203.997 5    315084.64821
  21312393.6894  -16473804.95847 -12752554.08063
 91  4 24  0  1  0.0020000  0  4G13G 2G15G 6
  21578320.6744  -15610130.47647 -12034183.32662
  22058475.9474    3938785.70648   3067208.61563
  24793919.6894     370443.41945    333972.52061
  21313174.4084  -16469705.72947 -12749359.87263
 91  4 24  0  1 15.0020000  0  4G13G 2G15G 6
  21573880.1274  -15633463.36647 -12052364.73962
  22062044.1434    3957538.93048   3081821.51464
  24798558.4394     394818.21545    352965.86661
  21313975.9864  -16465487.57647 -12746072.99263
 91  4 24  0  1 30.0020000  0  4G13G 2G15G 6
  21569466.9394  -15656660.32847 -12070440.24062
  22065621.4164    3976334.15748   3096467.13263
  24803218.869      419323.868 5    372061.16221
  21314800.5104  -16461154.59947 -12742696.63863
 91  4 24  0  1 45.0020000  0  4G13G 2G15G 6
  21565077.9324  -15679719.64347 -12088408.47862
  22069206.0644    3995173.01548   3111146.76063
  24807910.9794     443961.66445    391259.44561
  21315647.7684  -16456705.15647 -12739229.53463
 91  4 24  0  2  0.0020000  0  4G13G 2G15G 6
  21560716.5334  -15702639.33247 -12106267.91662
  22072797.4554    4014057.12748   3125861.64263
  24812627.650      468733.603 5    410562.27621
  21316517.0184  -16452137.11847 -12735670.02363
 91  4 24  0  2 15.0020000  0  4G13G 2G15G 6
  21556381.9714  -15725419.58647 -12124018.70662
  22076402.6824    4032986.51748   3140611.80363
  24817365.877      493639.513 5    429969.47321
  21317408.9004  -16447450.54847 -12732018.14963
 91  4 24  0  2 30.0020000  0  4G13G 2G15G 6
  21552074.0184  -15748062.09347 -12141662.16062
  22080014.0254    4051959.33748   3155395.81163
  24822129.010      518677.249 5    449479.38221
  21318322.4474  -16442646.92147 -12728275.06163
 91  4 24  0  2 45.0020000  0  4G13G 2G15G 6
  21547791.0104  -15770568.03347 -12159199.19761
  22083630.3384    4070974.21048   3170212.58463
  24826917.5184     543845.15745    469090.73961
  21319258.0024  -16437727.49447 -12724441.73463
 91  4 24  0  3  0.0020000  0  4G13G 2G15G 6
  21543532.7684  -15792935.39547 -12176628.25662
  22087257.7914    4090033.28248   3185063.79963
  24831729.7604     569145.12145    488805.00061
  21320217.2754  -16432690.10047 -12720516.48863
 91  4 24  0  3 15.0020000  0  4G13G 2G15G 6
  21539304.0254  -15815163.48747 -12193948.78862
  22090892.5724    4109136.86348   3199949.69563
  24836576.9324     594577.57445    508622.47461
  21321198.0184  -16427534.06747 -12716498.79663
 91  4 24  0  3 30.0020000  0  4G13G 2G15G 6
  21535100.6894  -15837255.17447 -12211163.03062
  22094536.2834    4128282.15248   3214868.09763
  24841441.6274     620139.53245    528540.89561
  21322201.4634  -16422262.19747 -12712390.84063
 91  4 24  0  3 45.0020000  0  4G13G 2G15G 6
  21530921.2914  -15859210.77347 -12228271.23262
  22098187.6044    4147468.63448   3229818.59963
  24846326.0414     645830.14145    548559.53961
  21323226.6434  -16416874.75747 -12708192.83263
 91  4 24  0  4  0.0020000  0  4G13G 2G15G 6
  21526768.8384  -15881030.63247 -12245273.66162
  22101846.9794    4166695.81448   3244800.80563
  24851239.439      671648.627 5    568677.82821
  21324273.5884  -16411372.06847 -12703905.02363
 91  4 24  0  4 15.0020000  0  4G13G 2G15G 6
  21522644.361   -15902711.243 7 -12262167.58422
  22105514.0334    4185967.10048   3259817.38163
  24856177.158      697598.745 5    588898.66921
  21325344.0644  -16405750.62947 -12699524.67463
 91  4 24  0  4 30.0020000  0  4G13G 2G15G 6
  21518545.2914  -15924251.41247 -12278952.07662
  22109190.1194    4205283.77548   3274869.32763
  24861140.9474     723680.94045    609222.45261
  21326435.5334  -16400008.96447 -12695050.64863
 91  4 24  0  4 45.0020000  0  4G13G 2G15G 6
  21514473.643   -15945650.089 7 -12295626.31822
  22112874.9634    4224646.54248   3289957.19063
  24866125.1354     749896.16945    629649.90561
  21327551.3464  -16394146.10947 -12690482.19263
 91  4 24  0  5  0.0020000  0  4G13G 2G15G 6
  21510428.5884  -15966908.21147 -12312191.03062
  22116569.1744    4244054.42548   3305080.21063
  24871141.955      776243.369 5    650180.17521
  21328689.1664  -16388162.87447 -12685819.93163
 91  4 24  0  5 15.0020000  0  4G13G 2G15G 6
  21506408.2054  -15988028.43847 -12328648.29062
  22120266.2054    4263504.70648   3320236.26463
  24876178.799      802719.634 5    670811.01121
  21329852.0644  -16382061.87547 -12681065.90663
 91  4 24  0  5 30.0020000  0  4G13G 2G15G 6
  21502416.1894  -16009009.46747 -12344997.09362
  22123977.7914    4282998.60248   3335426.30663
  24881239.650      829326.085 5    691543.28721
  21331033.3074  -16375841.65747 -12676218.98363
 91  4 24  0  5 45.0020000  0  4G13G 2G15G 6
  21498450.611   -16029850.545 7 -12361236.84022
  22127697.2054    4302536.85748   3350650.91563
  24886330.2444     856063.13845    712377.35961
  21332240.2214  -16369501.32647 -12671278.46663
 91  4 24  0  6  0.0020000  0  3G13G 2G 6
  21494511.4084  -16050550.38047 -12377366.52662
  22131423.1274    4322120.89848   3365911.19763
  21333470.6584  -16363039.46847 -12666243.25263
 91  4 24  0  6 15.0020000  0  3G13G 2G 6
  21490598.994   -16071106.501 7 -12393384.23122
  22135159.119     4341752.939 8   3381208.88123
  21334725.9084  -16356453.60247 -12661111.41263
 91  4 24  0  6 30.0020000  0  3G13G 2G 6
  21486714.408   -16091518.908 7 -12409289.94622
  22138904.2684    4361432.55648   3396543.63863
  21335999.4634  -16349743.89347 -12655883.06963
 91  4 24  0  6 45.0020000  0  3G13G 2G 6
  21482857.9944  -16111787.84647 -12425083.86862
  22142660.7054    4381159.83748   3411915.53663
  21337300.5884  -16342910.40647 -12650558.27863
 91  4 24  0  7  0.0020000  0  3G13G 2G 6
  21479028.7214  -16131912.30147 -12440765.20562
  22146422.6584    4400935.71448   3427325.30963
  21338625.0804  -16335951.83847 -12645136.02063
 91  4 24  0  7 15.0020000  0  3G13G 2G 6
  21475226.088   -16151895.400 7 -12456336.40122
  22150192.0964    4420756.81448   3442770.31163
  21339973.8854  -16328871.31047 -12639618.72963
 91  4 24  0  7 30.0020000  0  3G13G 2G 6
  21471450.025   -16171738.511 7 -12471798.50922
  22153973.9474    4440621.72748   3458249.45263
  21341341.9634  -16321670.08147 -12634007.38063
 91  4 24  0  7 45.0020000  0  3G13G 2G 6
  21467699.158   -16191440.058 7 -12487150.31222
  22157761.9324    4460531.88448   3473763.84963
  21342736.9394  -16314346.58247 -12628300.75663
 91  4 24  0  8  0.0020000  0  3G13G 2G 6
  21463978.0414  -16211000.57347 -12502392.21862
  22161558.1824    4480486.83148   3489313.14863
  21344153.8694  -16306901.18447 -12622499.14363
 91  4 24  0  8 15.0020000  0  3G13G 2G 6
  21460283.439   -16230418.974 7 -12517523.38722
  22165364.6894    4500487.65548   3504898.19963
  21345595.0414  -16299332.77347 -12616601.69063
 91  4 24  0  8 30.0020000  0  3G13G 2G 6
  21456616.072   -16249690.647 7 -12532540.22522
  22169180.9794    4520538.98748   3520522.60563
  21347057.4394  -16291636.55447 -12610604.63763
 91  4 24  0  8 45.0030000  0  3G13G 2G 6
  21452973.983   -16268825.300 7 -12547450.29822
  22173005.1944    4540633.51148   3536180.66763
  21348545.0224  -16283820.62347 -12604514.30263
 91  4 24  0  9  0.0030000  0  3G13G 2G 6
  21449359.819   -16287818.610 7 -12562250.22722
  22176835.2804    4560770.15248   3551871.54163
  21350055.3044  -16275884.00547 -12598329.92463
 91  4 24  0  9 15.0030000  0  3G13G 2G 6
  21445773.491   -16306671.847 7 -12576941.01222
  22180676.1944    4580950.10848   3567596.17463
  21351588.9054  -16267826.25547 -12592051.16263
 91  4 24  0  9 30.0030000  0  3G13G 2G 6
  21442212.897   -16325381.424 7 -12591519.85622
  22184525.288     4601177.023 8   3583357.39823
  21353145.7414  -16259643.54847 -12585675.02763
 91  4 24  0  9 45.0030000  0  3G13G 2G 6
  21438678.687   -16343949.068 7 -12605988.10022
  22188384.2884    4621449.13048   3599153.83263
  21354726.5544  -16251337.69047 -12579202.93563
 91  4 24  0 10  0.0030000  0  3G13G 2G 6
  21435172.968   -16362374.047 7 -12620345.17422
  22192248.897     4641767.047 8   3614985.96423
  21356331.4134  -16242907.74247 -12572634.14863
 91  4 24  0 10 15.0030000  0  3G13G 2G 6
  21431692.702   -16380659.293 7 -12634593.37222
  22196124.710     4662128.146 8   3630851.73823
  21357957.7104  -16234356.34547 -12565970.72163
 91  4 24  0 10 30.0030000  0  3G13G 2G 6
  21428239.640   -16398802.557 7 -12648730.92822
  22200005.562     4682534.286 8   3646752.61623
  21359610.4214  -16225681.35547 -12559210.99463
 91  4 24  0 10 45.0030000  0  3G13G 2G 6
  21424814.608   -16416805.429 7 -12662759.09222
  22203900.2574    4702983.76248   3662687.26163
  21361283.0304  -16216884.47447 -12552356.27663
 91  4 24  0 11  0.0030000  0  3G13G 2G 6
  21421414.515   -16434668.700 7 -12676678.47622
  22207798.843     4723475.716 8   3678655.00323
  21362979.7964  -16207966.23447 -12545406.99563
 91  4 24  0 11 15.0030000  0  3G13G 2G 6
  21418041.413   -16452389.831 7 -12690487.10422
  22211706.796     4744013.196 8   3694658.22423
  21364701.3194  -16198923.76547 -12538360.92263
 91  4 24  0 11 30.0030000  0  3G13G 2G 6
  21414695.788   -16469970.733 7 -12704186.45722
  22215622.804     4764593.809 8   3710695.05223
  21366445.9444  -16189759.03847 -12531219.57763
 91  4 24  0 11 45.0030000  0  3G13G 2G 6
  21411377.546   -16487411.951 7 -12717776.97022
  22219547.140     4785217.139 8   3726765.16223
  21368211.5624  -16180472.47147 -12523983.29663
 91  4 24  0 12  0.0030000  0  3G13G 2G 6
  21408086.343   -16504713.004 7 -12731258.26222
  22223479.796     4805883.447 8   3742868.76623
  21370003.5224  -16171063.57047 -12516651.68863
 91  4 24  0 12 15.0030000  0  3G13G 2G 6
  21404819.702   -16521875.628 7 -12744631.68922
  22227420.3044    4826591.02248   3759004.52963
  21371815.6084  -16161534.05647 -12509226.09563
 91  4 24  0 12 30.0030000  0  3G13G 2G 6
  21401579.960   -16538900.443 7 -12757897.72722
  22231370.7494    4847339.48448   3775172.14663
  21373653.3044  -16151884.21647 -12501706.74163
 91  4 24  0 12 45.0030000  0  3G13G 2G 6
  21398367.929   -16555784.835 7 -12771054.35222
  22235325.007     4868131.444 8   3791373.66323
  21375513.2334  -16142111.31447 -12494091.49463
 91  4 24  0 13  0.0030000  0  3G13G 2G 6
  21395180.710   -16572527.655 7 -12784100.65922
  22239291.4374    4888967.84348   3807609.80763
  21377394.3514  -16132214.09947 -12486379.38462
 91  4 24  0 13 15.0030000  0  3G13G 2G 6
  21392021.280   -16589132.227 7 -12797039.24022
  22243262.9914    4909845.00648   3823877.71563
  21379301.1794  -16122196.11747 -12478573.16263
 91  4 24  0 13 30.0030000  0  3G13G 2G 6
  21388887.437   -16605596.721 7 -12809868.67122
  22247243.960     4930764.949 8   3840178.95423
  21381230.3664  -16112055.29647 -12470671.22962
 91  4 24  0 13 45.0030000  0  3G13G 2G 6
  21385781.585   -16621917.808 7 -12822586.35622
  22251234.3124    4951730.85448   3856516.01563
  21383184.8824  -16101788.59847 -12462671.20762
 91  4 24  0 14  0.0030000  0  3G13G 2G 6
  21382702.976   -16638095.862 7 -12835192.58422
  22255231.3044    4972742.56948   3872888.76763
  21385162.8824  -16091395.87347 -12454572.98562
 91  4 24  0 14 15.0030000  0  3G13G 2G 6
  21379652.765   -16654130.758 7 -12847687.26322
  22259238.960     4993799.955 8   3889297.10723
  21387167.0624  -16080877.04547 -12446376.50363
 91  4 24  0 14 30.0030000  0  3G13G 2G 6
  21376627.983   -16670022.640 7 -12860070.49722
  22263254.9834    5014902.85748   3905740.91563
  21389190.1324  -16070232.20547 -12438081.82863
 91  4 24  0 14 45.0030000  0  3G13G 2G 6
  21373630.772   -16685769.840 7 -12872341.00422
  22267280.7184    5036052.97848   3922221.51863
  21391238.4214  -16059459.44247 -12429687.47763
 91  4 24  0 15  0.0030000  0  3G13G 2G 6
  21370662.163   -16701369.589 7 -12884496.60522
  22271315.0544    5057253.21948   3938741.17563
  21393313.5154  -16048555.73447 -12421191.08762
 91  4 24  0 15 15.0030000  0  3G13G 2G 6
  21367720.218   -16716827.741 7 -12896541.88322
  22275356.1474    5078497.59548   3955295.22763
  21395415.3584  -16037527.05147 -12412597.31663
 91  4 24  0 15 30.0030000  0  3G13G 2G 6
  21364806.796   -16732139.510 7 -12908473.07622
  22279409.2104    5099791.09948   3971887.55463
  21397536.5304  -16026368.42047 -12403902.28763
 91  4 24  0 15 45.0030000  0  3G13G 2G 6
  21361919.8744  -16747307.95547 -12920292.60662
  22283469.9834    5121130.56948   3988515.70363
  21399684.8744  -16015082.96447 -12395108.43263
 91  4 24  0 16  0.0030000  0  3G13G 2G 6
  21359061.718   -16762332.773 7 -12932000.20822
  22287541.4604    5142516.23148   4005179.84763
  21401855.1944  -16003670.14047 -12386215.32762
 91  4 24  0 16 15.0030000  0  3G13G 2G 6
  21356229.530   -16777213.340 7 -12943595.41422
  22291616.749     5163948.378 8   4021880.20823
  21404051.9444  -15992129.38247 -12377222.53663
 91  4 24  0 16 30.0030000  0  3G13G 2G 6
  21353425.702   -16791950.375 7 -12955078.77622
  22295705.4214    5185426.75048   4038616.59463
  21406274.2024  -15980461.15347 -12368130.41763
 91  4 24  0 16 45.0030000  0  3G13G 2G 6
  21350648.710   -16806544.636 7 -12966450.88022
  22299801.116     5206950.358 8   4055388.22823
  21408518.5464  -15968666.21347 -12358939.56463
 91  4 24  0 17  0.0030000  0  3G13G 2G 6
  21347897.874   -16820996.539 7 -12977712.06022
  22303905.4214    5228518.81548   4072194.80763
  21410786.1944  -15956744.70347 -12349650.08263
